[[[{"header":{"parameterUnit":"kt","parameterCategory":2,"dx":1,"dy":1,"la1":29.587661999999998,"la2":31.0,"lo1":-88.76705300000003,"lo2":-86.6583820000003,"nx":115,"ny":88,"refTime":"2022-09-22T06:00:00:Z","depth":0,"parameterNumber":1,"parameterNumberName":"U-component_of_WINDS"},"data":[6.3222,6.2371,6.3063,6.3633,6.3858,6.2632,6.2676,6.2858,6.1422,6.0975,6.0941,6.0985,5.8824,5.4438,5.3736,5.4112,5.4578,5.3533,5.416,5.4453,5.4168,5.5688,5.5884,5.4075,5.6919,5.6854,5.6114,5.7161,5.6343,5.724,5.8303,5.7573,5.7765,5.7293,5.6991,5.4857,5.2947,5.1658,5.1129,5.2164,5.0419,4.6963,4.39,4.3083,4.4695,3.2577,2.2372,1.5619,0.4565,-0.7912,-1.8918,-2.4776,-2.9125,-3.2764,-3.4458,-3.4021,-3.5226,-3.5085,-3.4353,-3.4871,-3.5136,-3.6016,-3.542,-3.6448,-3.6509,-3.6484,-4.0418,-4.1684,-4.7908,-5.8435,-6.1036,-6.3511,-6.4845,-6.6472,-6.7753,-6.8718,-6.9248,-6.9507,-6.9672,-6.9681,-6.9647,-6.8712,-6.7312,-6.7465,-6.7761,-6.7037,-6.4997,-6.503,-6.3542,-6.4757,-6.5278,-6.151,-5.7548,-6.3558,-6.7566,-6.7265,-6.7388,-6.8829,-6.8846,-6.675,-6.6736,-6.9517,-6.9591,-6.9797,-6.9523,-6.9471,-6.9573,-7.0264,-7.015,-7.1092,-7.3206,-7.3917,-7.2721,-7.1071,-6.971,5.3264,4.777,4.8677,5.0628,5.2844,5.278,5.3854,5.5613,5.5775,5.5797,5.4625,5.0709,4.9305,4.8358,4.8313,4.9091,4.853,4.5917,4.618,4.6127,4.5211,4.6517,4.6422,4.5761,4.7029,4.7829,4.8397,4.8997,4.9598,5.058,4.9994,4.7063,4.5637,4.4441,3.9933,3.8061,3.9189,3.9484,3.9813,4.0151,3.6595,3.2723,2.9016,2.5076,2.1898,1.6585,1.1342,0.5301,-0.1837,-1.4528,-2.7718,-3.3728,-3.8424,-4.1396,-4.1874,-4.2535,-4.3625,-4.2866,-4.1381,-4.3417,-4.377,-4.338,-4.1645,-4.1315,-4.1486,-4.4255,-4.9911,-5.3826,-5.8585,-6.377,-6.4225,-6.5363,-6.6121,-6.7196,-6.8258,-6.9306,-6.9374,-6.9452,-6.9556,-6.9556,-6.9497,-6.9475,-6.8967,-6.9021,-6.9074,-6.902,-6.8772,-6.9126,-6.9064,-6.8315,-6.7911,-6.5481,-6.3229,-6.5111,-6.8447,-6.8873,-6.8752,-6.9847,-6.99,-6.9932,-6.9895,-6.9776,-6.9562,-6.9194,-6.9129,-6.9294,-6.9412,-6.9398,-7.0282,-7.1059,-7.2204,-7.2459,-7.1728,-7.1691,-7.106,4.6202,4.3699,4.5401,4.722,4.7912,4.5706,4.5617,4.6719,4.6178,4.3823,4.0169,3.8744,3.7443,3.6886,3.703,3.6699,3.578,3.5696,3.6556,3.6922,3.6529,3.7429,3.837,3.8744,3.8969,3.9893,4.0767,4.104,4.2073,4.2818,4.2002,3.9243,3.9645,3.8275,3.3765,3.2255,3.224,3.0839,3.1654,2.8762,2.3136,1.8942,1.4804,2.1722,1.7237,0.6567,0.1079,-0.6631,-1.5892,-2.8345,-3.6661,-4.2343,-4.6218,-4.8525,-5.0224,-5.0835,-5.1018,-5.2848,-5.273,-5.3527,-5.4594,-5.5148,-5.4112,-5.2067,-5.1643,-5.0068,-5.5733,-5.7366,-6.2154,-6.3093,-6.3546,-6.4523,-6.5329,-6.6036,-6.7006,-6.7662,-6.78,-6.834,-6.893,-6.9058,-6.9209,-6.9143,-6.9218,-6.9203,-6.9231,-6.9144,-6.9209,-6.9209,-6.9316,-6.896,-6.8908,-6.791,-6.7195,-6.8432,-6.9274,-6.9398,-6.9562,-6.9679,-6.9736,-6.9791,-6.9819,-6.971,-6.9631,-6.9384,-6.9276,-6.9285,-6.9166,-6.9052,-6.9773,-7.0836,-7.1121,-7.1375,-7.1398,-7.1478,-7.1307,3.6419,3.8468,3.9273,3.9996,3.9844,3.6763,3.5976,3.7079,3.4765,3.0017,2.556,2.6947,2.7792,2.6676,2.6646,2.6243,2.4839,2.5057,2.6045,2.9042,2.8394,2.9227,3.0734,3.0127,3.1419,3.2505,3.256,3.1793,3.2129,3.1692,3.0954,2.5682,2.5503,2.458,2.1248,2.1167,1.9581,1.6971,1.6198,1.2322,0.7421,0.3554,0.0927,0.7223,0.8124,-0.5511,-1.1579,-1.8714,-2.8327,-3.7205,-4.3795,-4.8927,-5.3894,-5.5764,-5.8066,-6.0245,-5.8585,-5.8197,-5.8059,-5.8242,-5.8987,-6.0587,-6.1142,-6.2147,-6.1737,-5.9563,-5.8759,-5.9671,-6.071,-6.0935,-6.1447,-6.2594,-6.363,-6.4315,-6.4999,-6.528,-6.5544,-6.6771,-6.8055,-6.843,-6.8729,-6.8859,-6.8951,-6.8972,-6.9033,-6.8996,-6.8972,-6.9026,-6.911,-6.8993,-6.8699,-6.8811,-6.8823,-6.8856,-6.8939,-6.9068,-6.9291,-6.946,-6.9554,-6.9651,-6.9727,-6.9697,-6.9664,-6.9533,-6.9455,-6.9528,-6.944,-6.9164,-6.9465,-7.0443,-7.1012,-7.1989,-7.2109,-7.1234,-7.1305,2.013,2.7171,2.2052,2.2458,2.3062,2.3484,2.4314,2.5939,2.1431,1.6496,1.4363,1.8811,2.0051,1.813,1.7797,1.7415,1.6232,1.4571,1.7138,2.6689,2.1271,2.0243,2.0871,2.0607,2.159,2.2521,2.2551,2.1552,2.1082,2.0611,1.6196,0.3173,0.6649,0.8534,0.8351,0.7899,0.5615,0.2528,-0.1156,-0.314,-0.8341,-1.2639,-1.6087,-1.3523,-1.6804,-2.1509,-2.5572,-2.9398,-3.3663,-3.6465,-4.0004,-4.3222,-4.6864,-4.9652,-5.3473,-5.5551,-5.6694,-5.7098,-5.7659,-5.84,-5.9156,-5.9706,-6.0097,-6.0241,-5.9755,-5.8156,-5.7648,-5.8351,-5.9028,-5.9306,-5.9594,-6.0599,-6.1059,-6.1532,-6.2476,-6.3185,-6.3856,-6.508,-6.6318,-6.7211,-6.7596,-6.8266,-6.8384,-6.8584,-6.8599,-6.8281,-6.8287,-6.8544,-6.8492,-6.8336,-6.8319,-6.8498,-6.844,-6.8387,-6.8575,-6.8873,-6.9064,-6.9223,-6.9414,-6.9453,-6.9288,-6.9432,-6.9645,-6.9647,-6.9552,-6.9653,-6.9708,-6.9651,-6.9781,-7.0352,-7.103,-7.235,-7.2161,-7.0974,-7.0838,1.5383,1.8198,1.6447,1.6606,1.7825,1.7126,1.3793,1.0619,0.9521,0.8677,0.7919,1.1413,1.2,1.0361,0.9437,0.8528,0.7474,0.59,0.7096,1.2293,0.9073,1.0613,1.088,1.0644,1.1959,1.2579,1.2744,1.2384,1.2532,1.1424,1.0118,0.2278,0.1022,0.0386,-0.1167,-0.2339,-0.6199,-1.1464,-1.5331,-1.6346,-1.744,-1.9305,-2.1118,-2.0942,-2.3272,-2.5847,-2.8033,-2.8791,-3.1224,-3.312,-3.5197,-3.7627,-3.8881,-4.3774,-4.821,-5.203,-5.3122,-5.4027,-5.4482,-5.5298,-5.5897,-5.6437,-5.6781,-5.709,-5.6766,-5.6706,-5.6634,-5.6761,-5.7298,-5.7761,-5.8086,-5.8373,-5.8528,-5.8714,-5.9887,-6.1023,-6.2158,-6.3363,-6.4533,-6.5593,-6.6521,-6.7302,-6.7818,-6.806,-6.8097,-6.7927,-6.7965,-6.8073,-6.7927,-6.7708,-6.7745,-6.7892,-6.7888,-6.7884,-6.838,-6.8705,-6.8773,-6.8836,-6.9005,-6.8993,-6.8859,-6.8922,-6.9119,-6.9324,-6.9571,-6.9616,-6.9623,-6.9723,-6.9771,-6.9821,-7.0323,-7.094,-7.0747,-7.0141,-7.0297,0.9308,0.9514,1.0357,1.1076,1.1682,0.991,0.5572,0.0302,0.2263,0.2566,0.2417,0.4216,0.4204,0.2571,0.1055,-0.0301,-0.1357,-0.1964,-0.1508,-0.0603,0.1052,0.1672,0.2607,0.371,0.4213,0.5273,0.593,0.6184,0.5965,0.4215,0.3009,0.1418,-0.1933,-0.3871,-0.5301,-0.6207,-1.1464,-1.6252,-1.9218,-1.9963,-2.0898,-2.2748,-2.3889,-2.4404,-2.5918,-2.6969,-2.8107,-2.8829,-2.9766,-3.0973,-3.2705,-3.382,-3.4059,-3.8908,-4.3457,-4.7809,-5.0391,-5.1599,-5.1782,-5.2375,-5.2917,-5.3253,-5.3539,-5.3671,-5.4032,-5.435,-5.4964,-5.5565,-5.6179,-5.623,-5.646,-5.6747,-5.6978,-5.7271,-5.7821,-5.8653,-5.9155,-6.0571,-6.2448,-6.3652,-6.519,-6.6019,-6.7088,-6.7366,-6.7446,-6.7597,-6.7634,-6.7523,-6.7371,-6.6999,-6.698,-6.7124,-6.7174,-6.7247,-6.7708,-6.816,-6.8261,-6.8393,-6.8528,-6.8565,-6.8459,-6.8499,-6.8586,-6.8903,-6.9398,-6.9537,-6.9525,-6.959,-6.9666,-6.9672,-6.9601,-6.9516,-6.9491,-6.9605,-6.9748,-0.1044,-0.0457,0.1215,0.2122,0.1667,-0.0302,-0.2117,-0.3182,0.0302,-0.0757,-0.4718,-0.2267,-0.2266,-0.4706,-0.653,-0.7286,-0.7593,-0.7899,-0.621,-0.469,-0.4846,-0.3191,-0.1837,-0.093,-0.0312,0.046,0.0452,-0.0,0.0424,-0.1369,-0.4128,-0.6547,-0.5842,-0.7745,-0.9679,-1.0962,-1.3391,-1.6951,-1.99,-2.113,-2.2242,-2.4217,-2.5232,-2.584,-2.6238,-2.7053,-2.8049,-2.8698,-2.948,-3.0848,-3.2304,-3.3197,-3.4824,-3.7109,-3.98,-4.3322,-4.7755,-4.9293,-5.012,-5.0537,-5.0792,-5.0841,-5.0774,-5.1123,-5.1751,-5.2568,-5.3357,-5.4136,-5.4969,-5.4903,-5.5023,-5.535,-5.5704,-5.5892,-5.6242,-5.6446,-5.6766,-5.8366,-6.0369,-6.1897,-6.3464,-6.489,-6.591,-6.6551,-6.6651,-6.6614,-6.6452,-6.637,-6.6054,-6.5829,-6.5858,-6.6091,-6.6433,-6.6541,-6.6856,-6.725,-6.7445,-6.7671,-6.7888,-6.7884,-6.8126,-6.8146,-6.8146,-6.8368,-6.9043,-6.9387,-6.9288,-6.9338,-6.9461,-6.9499,-6.9397,-6.9347,-6.9245,-6.931,-6.9507,-0.1916,-0.1937,-0.2716,-0.2273,-0.197,-0.6666,-0.8651,-0.8042,-0.6806,-0.6806,-0.8029,-0.7568,-0.727,-0.8033,-0.9108,-1.0024,-0.9873,-1.0644,-0.9405,-0.9098,-0.8962,-0.7795,-0.6797,-0.6104,-0.5156,-0.5045,-0.557,-0.5866,-0.5112,-0.6657,-0.7812,-0.8263,-0.7599,-1.0101,-1.2901,-1.4186,-1.5457,-1.7551,-1.9295,-2.1023,-2.2748,-2.4414,-2.5495,-2.588,-2.6681,-2.7488,-2.8742,-2.9877,-3.0712,-3.2512,-3.3756,-3.4701,-3.622,-3.8142,-4.0241,-4.1941,-4.501,-4.7015,-4.8337,-4.9021,-4.9423,-4.9284,-4.9251,-4.9948,-5.1022,-5.1332,-5.2014,-5.2878,-5.3709,-5.3911,-5.4145,-5.4749,-5.4938,-5.4938,-5.5128,-5.5147,-5.5776,-5.7803,-5.9717,-6.0591,-6.1909,-6.3412,-6.4672,-6.5183,-6.5676,-6.5432,-6.5219,-6.491,-6.4537,-6.4515,-6.4537,-6.5023,-6.5465,-6.5808,-6.6163,-6.635,-6.6524,-6.6944,-6.6987,-6.6987,-6.7183,-6.7482,-6.7559,-6.7705,-6.8356,-6.8844,-6.8917,-6.8997,-6.9059,-6.9099,-6.9085,-6.9086,-6.9068,-6.9247,-6.9499,-0.4526,-0.4462,-0.6336,-0.6817,-0.6953,-1.0766,-1.2301,-1.2144,-1.1523,-1.106,-1.0748,-1.0748,-1.0453,-1.0754,-1.1511,-1.2274,-1.168,-1.2458,-1.3058,-1.2437,-1.1837,-1.1522,-1.1461,-1.0893,-1.0334,-0.9997,-0.9753,-0.9653,-0.9653,-0.9186,-0.919,-0.9583,-0.9988,-1.1658,-1.4602,-1.6377,-1.6754,-1.8454,-1.9677,-2.0657,-2.2414,-2.4568,-2.6074,-2.6382,-2.8318,-2.9692,-3.0933,-3.1561,-3.2496,-3.3923,-3.4986,-3.6026,-3.7469,-3.8855,-4.0975,-4.2818,-4.3623,-4.5934,-4.7757,-4.782,-4.8452,-4.8521,-4.8741,-4.9723,-5.1105,-5.0875,-5.1392,-5.2375,-5.3029,-5.2883,-5.2891,-5.3338,-5.3742,-5.38,-5.4245,-5.4166,-5.5227,-5.7276,-5.9079,-6.0008,-6.0941,-6.2516,-6.3775,-6.4515,-6.4515,-6.4317,-6.4376,-6.4079,-6.3958,-6.3836,-6.3775,-6.4341,-6.4707,-6.5077,-6.5237,-6.5112,-6.522,-6.5907,-6.6126,-6.6198,-6.6376,-6.6652,-6.6774,-6.7015,-6.7665,-6.826,-6.8261,-6.8276,-6.8462,-6.8574,-6.857,-6.8549,-6.8836,-6.9149,-6.9448,-0.9016,-0.8801,-0.9873,-1.1686,-1.3322,-1.3201,-1.3494,-1.392,-1.3628,-1.288,-1.2404,-1.271,-1.2567,-1.2873,-1.4938,-1.4955,-1.4077,-1.4681,-1.4987,-1.4532,-1.4077,-1.4814,-1.4951,-1.4586,-1.3539,-1.3832,-1.3274,-1.2621,-1.1997,-1.1755,-1.1398,-1.174,-1.2903,-1.4384,-1.5672,-1.6901,-1.7369,-1.7607,-1.9948,-2.0805,-2.2256,-2.5379,-2.7149,-2.8273,-3.0189,-3.1585,-3.23,-3.2941,-3.3942,-3.5219,-3.6179,-3.7443,-3.8773,-4.0082,-4.1658,-4.3787,-4.4415,-4.6174,-4.8753,-4.7527,-4.7449,-4.7923,-4.8708,-4.9856,-5.1269,-5.1813,-5.1932,-5.2388,-5.273,-5.2223,-5.1649,-5.134,-5.1873,-5.2341,-5.3193,-5.3744,-5.5156,-5.6927,-5.8766,-6.0116,-6.1006,-6.1935,-6.3,-6.3623,-6.3371,-6.3307,-6.3498,-6.3561,-6.3561,-6.3498,-6.3532,-6.3836,-6.3898,-6.4306,-6.4422,-6.4079,-6.4199,-6.491,-6.5432,-6.564,-6.5871,-6.5764,-6.5959,-6.636,-6.6723,-6.695,-6.7243,-6.7487,-6.7376,-6.7266,-6.756,-6.8023,-6.8637,-6.9056,-6.9468,-1.0802,-1.0226,-1.1753,-1.3508,-1.5044,-1.4995,-1.4681,-1.4398,-1.4846,-1.5426,-1.6595,-1.6447,-1.6743,-1.7324,-1.8208,-1.7609,-1.7029,-1.6891,-1.6891,-1.6447,-1.6002,-1.6002,-1.6037,-1.5923,-1.5783,-1.5524,-1.5359,-1.5959,-1.5703,-1.5519,-1.52,-1.5639,-1.6954,-1.7625,-1.8348,-1.8441,-1.8818,-1.9789,-2.1158,-2.178,-2.3934,-2.655,-2.8315,-2.8732,-3.1167,-3.2745,-3.3269,-3.3965,-3.4967,-3.639,-3.7662,-3.9066,-4.0525,-4.1881,-4.2647,-4.3487,-4.4175,-4.4879,-4.5755,-4.5823,-4.6528,-4.8134,-4.8928,-5.0191,-5.1486,-5.19,-5.2061,-5.2571,-5.2973,-5.3205,-5.3137,-5.3163,-5.3422,-5.3092,-5.3738,-5.4281,-5.5617,-5.6551,-5.8395,-6.0111,-6.0957,-6.177,-6.2449,-6.2551,-6.2312,-6.2209,-6.2244,-6.2244,-6.2517,-6.2719,-6.2886,-6.3083,-6.3312,-6.3532,-6.3686,-6.3748,-6.3836,-6.4457,-6.4686,-6.502,-6.493,-6.4763,-6.4819,-6.5202,-6.5468,-6.5663,-6.5829,-6.6018,-6.6043,-6.5993,-6.6423,-6.692,-6.7604,-6.8663,-6.9181,-1.2931,-1.2628,-1.4289,-1.5749,-1.6983,-1.6483,-1.6168,-1.6177,-1.677,-1.7815,-1.8699,-1.8962,-1.9245,-1.9548,-1.9684,-1.9684,-1.8795,-1.8795,-1.8658,-1.8227,-1.808,-1.8208,-1.8491,-1.8511,-1.8061,-1.891,-1.8795,-1.8962,-1.9328,-1.9226,-1.8924,-1.9374,-2.0686,-2.1074,-2.0922,-2.0719,-2.1196,-2.2176,-2.269,-2.3305,-2.5399,-2.7152,-2.8318,-2.9013,-3.174,-3.3385,-3.402,-3.4808,-3.6,-3.7345,-3.8764,-4.0112,-4.1516,-4.2602,-4.3435,-4.3925,-4.377,-4.4224,-4.46,-4.5995,-4.6826,-4.8601,-4.9207,-5.03,-5.2417,-5.2391,-5.2534,-5.2469,-5.2834,-5.2684,-5.2864,-5.3759,-5.4914,-5.497,-5.5056,-5.5484,-5.616,-5.668,-5.8073,-5.9512,-6.0519,-6.1238,-6.1385,-6.1458,-6.1279,-6.1057,-6.0941,-6.0983,-6.1391,-6.1646,-6.2,-6.2243,-6.2787,-6.3117,-6.272,-6.3083,-6.3561,-6.3748,-6.3898,-6.3898,-6.374,-6.3686,-6.3906,-6.3975,-6.4193,-6.4668,-6.4919,-6.4721,-6.4946,-6.5308,-6.566,-6.5901,-6.6968,-6.8165,-6.8501,-1.5295,-1.5642,-1.7066,-1.8384,-1.8983,-1.7795,-1.809,-1.8689,-1.9129,-1.9433,-1.9716,-2.0256,-2.0402,-2.0256,-2.1152,-2.0861,-1.9245,-2.01,-2.0402,-2.0143,-1.9862,-2.057,-2.0995,-2.0995,-2.0995,-2.2274,-2.1285,-2.1285,-2.2177,-2.228,-2.29,-2.233,-2.4273,-2.3668,-2.3434,-2.3773,-2.418,-2.4328,-2.4304,-2.4771,-2.571,-2.7148,-2.8605,-3.0143,-3.2579,-3.4709,-3.5609,-3.6325,-3.725,-3.7661,-3.9239,-4.0659,-4.1829,-4.3051,-4.3984,-4.4395,-4.43,-4.4652,-4.5256,-4.6733,-4.7712,-4.7837,-4.8471,-5.0227,-5.2332,-5.2893,-5.2998,-5.2709,-5.2977,-5.2714,-5.2293,-5.1984,-5.3528,-5.4186,-5.5094,-5.58,-5.6724,-5.7092,-5.7748,-5.9048,-5.98,-6.0268,-6.0498,-6.0485,-6.0268,-6.0191,-6.0101,-6.0321,-6.0596,-6.0617,-6.1065,-6.1464,-6.2138,-6.2138,-6.1713,-6.2173,-6.2751,-6.3045,-6.3526,-6.3371,-6.2952,-6.3117,-6.3376,-6.3415,-6.3254,-6.3797,-6.4193,-6.4123,-6.4234,-6.4655,-6.4884,-6.5072,-6.586,-6.6653,-6.7098,-1.6836,-1.8729,-2.0008,-1.9976,-1.9245,-2.0132,-1.9997,-1.9569,-2.0446,-2.1029,-2.1308,-2.2009,-2.2875,-2.3175,-2.3044,-2.29,-2.2443,-2.2599,-2.2599,-2.231,-2.1888,-2.1877,-2.2166,-2.1888,-2.1599,-2.2021,-2.2093,-2.2117,-2.3427,-2.5474,-2.7429,-2.7953,-2.7704,-2.766,-2.7414,-2.6918,-2.6574,-2.6524,-2.6033,-2.6064,-2.6631,-2.8115,-2.9725,-3.1613,-3.3463,-3.5469,-3.6827,-3.7343,-3.8111,-3.8658,-3.9873,-4.1215,-4.2307,-4.378,-4.4714,-4.5184,-4.6078,-4.6447,-4.6937,-4.7554,-4.7752,-4.7958,-4.8539,-4.9811,-5.167,-5.2686,-5.3137,-5.3726,-5.363,-5.3509,-5.3626,-5.4064,-5.4186,-5.4424,-5.5102,-5.6283,-5.7305,-5.7441,-5.8007,-5.872,-5.908,-5.9483,-5.9161,-5.9207,-5.9304,-5.9323,-5.9532,-5.9709,-5.9772,-5.961,-5.9925,-6.0312,-6.0734,-6.0809,-6.0883,-6.1402,-6.1969,-6.2482,-6.3174,-6.3307,-6.2853,-6.2754,-6.2754,-6.2516,-6.2304,-6.2789,-6.3415,-6.3445,-6.3538,-6.3817,-6.4123,-6.4269,-6.4539,-6.4866,-6.532,-1.8542,-2.0615,-2.132,-2.1297,-2.114,-2.1587,-2.1454,-2.132,-2.2322,-2.2755,-2.29,-2.3775,-2.4634,-2.4634,-2.4348,-2.4205,-2.4062,-2.3475,-2.3331,-2.3044,-2.2467,-2.2479,-2.2648,-2.2045,-2.3086,-2.3768,-2.3819,-2.3578,-2.4898,-2.7691,-2.9719,-2.9209,-2.9838,-3.0034,-2.8584,-2.8423,-2.8375,-2.8205,-2.789,-2.7916,-2.9048,-3.0336,-3.1919,-3.3779,-3.4854,-3.6118,-3.7404,-3.8018,-3.8979,-3.9853,-4.19,-4.2943,-4.4206,-4.5454,-4.6402,-4.6865,-4.8133,-4.8917,-4.9071,-4.9403,-4.916,-4.9032,-4.9491,-4.9922,-5.0775,-5.229,-5.3726,-5.4751,-5.4372,-5.4215,-5.4537,-5.4584,-5.473,-5.5085,-5.5214,-5.615,-5.6536,-5.713,-5.7571,-5.7999,-5.8337,-5.7766,-5.7328,-5.7609,-5.7904,-5.7891,-5.8094,-5.8326,-5.8348,-5.8504,-5.8885,-5.9242,-5.9451,-5.9577,-6.0104,-6.071,-6.1297,-6.1759,-6.2449,-6.2517,-6.2277,-6.2138,-6.1785,-6.1597,-6.1809,-6.2166,-6.2446,-6.2687,-6.2888,-6.3117,-6.3346,-6.3721,-6.4089,-6.4228,-6.4358,-2.0154,-2.161,-2.1744,-2.2166,-2.29,-2.2755,-2.29,-2.3344,-2.4205,-2.4491,-2.4205,-2.5204,-2.5658,-2.5502,-2.4919,-2.4634,-2.4388,-2.3878,-2.3679,-2.373,-2.3502,-2.3858,-2.4033,-2.2929,-2.5089,-2.6402,-2.6457,-2.6831,-2.8174,-2.8956,-2.9472,-2.9821,-3.046,-3.041,-3.0003,-2.9763,-2.951,-2.9535,-2.922,-3.0071,-3.2038,-3.3078,-3.4492,-3.5803,-3.6596,-3.7075,-3.831,-3.9387,-3.9996,-4.0839,-4.3886,-4.5864,-4.6725,-4.7847,-4.8692,-4.9507,-5.0387,-5.1394,-5.1199,-5.1053,-5.0736,-5.0231,-5.0383,-5.0691,-5.0931,-5.2047,-5.3163,-5.5089,-5.4495,-5.4086,-5.4301,-5.4056,-5.407,-5.4636,-5.536,-5.5599,-5.5625,-5.6208,-5.6246,-5.6611,-5.7048,-5.6454,-5.6305,-5.6397,-5.6548,-5.6548,-5.6638,-5.6728,-5.6964,-5.7429,-5.7914,-5.8388,-5.8606,-5.8885,-5.9306,-5.9937,-6.0475,-6.0917,-6.1285,-6.1464,-6.1747,-6.196,-6.1385,-6.1279,-6.168,-6.2068,-6.1352,-6.1318,-6.2104,-6.2312,-6.2209,-6.2719,-6.3435,-6.3595,-6.3504,-2.0154,-2.1599,-2.2178,-2.2322,-2.2166,-2.3762,-2.4192,-2.4205,-2.5218,-2.58,-2.5786,-2.5942,-2.5942,-2.5658,-2.5374,-2.5102,-2.4544,-2.4744,-2.4715,-2.5101,-2.569,-2.6409,-2.7036,-2.7499,-2.7932,-2.8717,-2.8341,-2.9516,-3.1391,-3.1778,-3.1743,-3.1793,-3.19,-3.1839,-3.1639,-3.1254,-3.1403,-3.1236,-3.1095,-3.1687,-3.3321,-3.4794,-3.6406,-3.7953,-3.8121,-3.8846,-4.0015,-4.075,-4.1043,-4.1686,-4.2989,-4.4429,-4.5021,-4.7176,-4.9307,-5.0726,-5.1272,-5.1394,-5.1552,-5.1552,-5.1297,-5.0931,-5.0508,-5.0688,-5.0953,-5.1193,-5.1491,-5.2321,-5.3056,-5.4033,-5.4531,-5.4801,-5.517,-5.5404,-5.5501,-5.5625,-5.5476,-5.5214,-5.5347,-5.5271,-5.5511,-5.579,-5.6064,-5.6337,-5.6548,-5.6548,-5.6548,-5.6548,-5.6638,-5.7022,-5.7285,-5.7657,-5.7999,-5.8168,-5.8835,-5.961,-5.9846,-6.0268,-6.0421,-6.0683,-6.1165,-6.1531,-6.1564,-6.1312,-6.1536,-6.0883,-5.9735,-5.929,-6.0432,-6.1105,-6.1065,-6.1397,-6.2106,-6.2415,-6.2619,-2.1018,-2.2178,-2.2624,-2.3044,-2.3762,-2.4933,-2.536,-2.5516,-2.6084,-2.6382,-2.6226,-2.6084,-2.58,-2.5728,-2.5765,-2.6125,-2.6668,-2.7315,-2.7683,-2.7726,-2.8447,-2.8772,-2.8864,-2.9164,-2.9659,-3.0445,-3.1576,-3.3288,-3.4215,-3.3791,-3.3727,-3.3648,-3.3316,-3.3157,-3.3014,-3.2521,-3.2141,-3.1981,-3.1807,-3.2428,-3.3977,-3.4431,-3.6436,-3.7872,-3.8786,-3.9638,-4.105,-4.1816,-4.237,-4.2772,-4.4068,-4.5345,-4.6744,-4.8166,-4.9316,-5.0134,-5.0992,-5.1552,-5.1552,-5.1552,-5.1552,-5.1479,-5.1112,-5.0931,-5.121,-5.159,-5.2075,-5.2686,-5.3779,-5.4817,-5.5275,-5.5617,-5.5779,-5.5775,-5.5583,-5.5558,-5.5585,-5.5113,-5.4664,-5.4288,-5.5165,-5.5915,-5.6087,-5.6338,-5.655,-5.6548,-5.6548,-5.6548,-5.6548,-5.6728,-5.6786,-5.7198,-5.7657,-5.8084,-5.8998,-5.929,-5.9451,-5.9642,-5.9721,-5.9957,-6.0268,-6.0268,-6.0421,-6.0574,-6.0268,-5.9768,-5.8917,-5.8587,-5.9129,-5.9846,-6.008,-6.0389,-6.095,-6.1425,-6.1785,-2.2178,-2.3044,-2.2755,-2.3683,-2.5211,-2.5081,-2.5464,-2.6524,-2.6494,-2.6553,-2.6452,-2.628,-2.6206,-2.6262,-2.6374,-2.752,-2.8761,-2.9899,-3.0606,-3.0456,-3.0989,-3.1082,-3.1264,-3.1614,-3.2211,-3.3506,-3.4739,-3.5351,-3.5363,-3.505,-3.4736,-3.4753,-3.4281,-3.3949,-3.3807,-3.3474,-3.3316,-3.2824,-3.3268,-3.3868,-3.495,-3.5574,-3.6986,-3.9297,-3.977,-4.0392,-4.1499,-4.2686,-4.3526,-4.3901,-4.5366,-4.6647,-4.7514,-4.7911,-4.8489,-4.9339,-5.0318,-5.1127,-5.1419,-5.1552,-5.1552,-5.1552,-5.1321,-5.1528,-5.1661,-5.2249,-5.2468,-5.3043,-5.3894,-5.5193,-5.6661,-5.6424,-5.6066,-5.587,-5.5892,-5.6253,-5.6225,-5.5567,-5.4809,-5.5405,-5.5767,-5.6284,-5.6483,-5.673,-5.7012,-5.7198,-5.6939,-5.6611,-5.6734,-5.6735,-5.6642,-5.6995,-5.7285,-5.8084,-5.8899,-5.8848,-5.872,-5.8752,-5.8917,-5.9161,-5.9403,-5.9242,-5.8917,-5.8803,-5.8587,-5.842,-5.8504,-5.8504,-5.8835,-5.9371,-5.9371,-5.9451,-6.0312,-6.1131,-6.1352,-2.2755,-2.4491,-2.2611,-2.2723,-2.3817,-2.3274,-2.4107,-2.5572,-2.565,-2.6586,-2.7668,-2.7847,-2.7499,-2.7954,-2.8882,-2.9568,-3.0321,-3.1097,-3.1592,-3.167,-3.2786,-3.3426,-3.411,-3.4896,-3.597,-3.652,-3.6592,-3.6334,-3.6005,-3.538,-3.5363,-3.505,-3.491,-3.491,-3.505,-3.519,-3.467,-3.3852,-3.4777,-3.6006,-3.6366,-3.7683,-3.8842,-4.0542,-4.0992,-4.1459,-4.2074,-4.239,-4.2665,-4.2665,-4.413,-4.4999,-4.5431,-4.5553,-4.6244,-4.8927,-4.9202,-4.9886,-5.0699,-5.1127,-5.1285,-5.1552,-5.1419,-5.1419,-5.1419,-5.1819,-5.206,-5.2093,-5.2518,-5.3274,-5.4141,-5.5799,-5.6429,-5.6255,-5.7643,-5.7662,-5.6393,-5.5758,-5.6181,-5.7031,-5.6919,-5.7095,-5.7285,-5.7404,-5.7719,-5.7737,-5.7104,-5.6616,-5.6936,-5.6942,-5.6826,-5.7002,-5.6937,-5.746,-5.7915,-5.7922,-5.7633,-5.7743,-5.8084,-5.8504,-5.8998,-5.867,-5.8253,-5.7774,-5.7342,-5.7198,-5.7198,-5.7516,-5.8168,-5.8917,-5.908,-5.9048,-5.9689,-6.065,-6.1131,-2.2169,-2.3372,-2.2153,-2.2852,-2.4409,-2.4131,-2.5043,-2.6664,-2.6858,-2.7343,-2.7965,-2.7965,-2.7965,-2.7979,-2.8708,-2.9466,-3.009,-3.0894,-3.1667,-3.2513,-3.3188,-3.4199,-3.514,-3.673,-3.7691,-3.7519,-3.7092,-3.6937,-3.6919,-3.6592,-3.6299,-3.6282,-3.5849,-3.5693,-3.5849,-3.5067,-3.4761,-3.4284,-3.4522,-3.4794,-3.5179,-3.6333,-3.7773,-3.8366,-4.0072,-4.1608,-4.2222,-4.239,-4.239,-4.2538,-4.3128,-4.3547,-4.3568,-4.4276,-4.5266,-4.6811,-4.7374,-4.8443,-4.8719,-4.9155,-4.9453,-5.0158,-5.0318,-5.0723,-5.1285,-5.1552,-5.1552,-5.1686,-5.2167,-5.306,-5.4426,-5.6457,-5.7191,-5.6961,-5.7719,-5.8198,-5.7737,-5.7115,-5.6953,-5.6936,-5.7577,-5.804,-5.8271,-5.8456,-5.8736,-5.8974,-5.8297,-5.7529,-5.7726,-5.703,-5.6948,-5.6704,-5.6611,-5.6671,-5.7008,-5.7037,-5.6906,-5.711,-5.7429,-5.786,-5.7882,-5.7626,-5.7602,-5.7254,-5.6845,-5.6548,-5.6548,-5.6607,-5.7079,-5.7743,-5.8253,-5.8472,-5.8885,-5.9371,-5.9957,-2.1498,-2.2432,-2.1889,-2.3038,-2.4989,-2.5156,-2.6176,-2.7926,-2.7926,-2.8165,-2.8404,-2.8235,-2.8264,-2.8292,-2.9013,-2.9513,-3.1156,-3.1993,-3.2618,-3.371,-3.3868,-3.4497,-3.5123,-3.642,-3.7383,-3.7519,-3.7501,-3.7501,-3.7501,-3.7347,-3.7501,-3.7365,-3.6782,-3.6644,-3.6472,-3.5832,-3.4834,-3.4413,-3.4177,-3.4199,-3.4324,-3.5263,-3.623,-3.7004,-3.8842,-4.0692,-4.1925,-4.239,-4.239,-4.2538,-4.2538,-4.2538,-4.2665,-4.3547,-4.44,-4.5122,-4.5938,-4.6603,-4.6885,-4.7166,-4.7586,-4.9041,-4.9477,-4.9886,-5.1285,-5.1552,-5.1552,-5.1661,-5.2431,-5.3035,-5.4043,-5.566,-5.5935,-5.5926,-5.6511,-5.7504,-5.8524,-5.8365,-5.7629,-5.731,-5.8009,-5.8755,-5.8477,-5.9377,-5.99,-5.9978,-5.9457,-5.8725,-5.7938,-5.7087,-5.6634,-5.6301,-5.6152,-5.6156,-5.6491,-5.6703,-5.6669,-5.6875,-5.6875,-5.7053,-5.6426,-5.6064,-5.6458,-5.6519,-5.6368,-5.6518,-5.6518,-5.6607,-5.6546,-5.6666,-5.7022,-5.7829,-5.842,-5.82,-5.8587,-2.1645,-2.3624,-2.2479,-2.291,-2.4395,-2.4295,-2.5807,-2.7372,-2.7695,-2.8368,-2.9361,-2.9753,-2.9436,-2.9795,-3.0741,-3.2621,-3.4209,-3.4744,-3.654,-3.7021,-3.7175,-3.6695,-3.5747,-3.6092,-3.6575,-3.7347,-3.7501,-3.7501,-3.7501,-3.7501,-3.7501,-3.7501,-3.7347,-3.7365,-3.7211,-3.7673,-3.7241,-3.6468,-3.6727,-3.6797,-3.6161,-3.6797,-3.7908,-3.8842,-3.9921,-4.0992,-4.2074,-4.239,-4.2518,-4.2833,-4.2538,-4.239,-4.239,-4.2538,-4.3254,-4.44,-4.4689,-4.551,-4.6462,-4.6744,-4.7469,-4.8766,-4.9202,-4.9886,-5.1127,-5.1552,-5.1552,-5.1552,-5.1552,-5.1927,-5.2406,-5.3165,-5.3579,-5.3528,-5.4576,-5.6092,-5.7527,-5.8685,-5.9274,-5.9105,-5.9048,-5.9309,-5.9713,-6.0572,-6.1232,-6.0466,-5.9836,-5.901,-5.8194,-5.7185,-5.6358,-5.6089,-5.6015,-5.5815,-5.6001,-5.6277,-5.6277,-5.6246,-5.6064,-5.5851,-5.5205,-5.5265,-5.5662,-5.5692,-5.5697,-5.582,-5.6125,-5.6366,-5.6426,-5.6515,-5.6666,-5.7516,-5.8337,-5.7774,-5.7633,-2.1194,-2.1514,-2.1803,-2.2996,-2.4623,-2.5648,-2.71,-2.8626,-2.883,-2.9318,-2.9833,-2.9995,-2.9895,-3.0074,-3.1761,-3.2857,-3.3691,-3.4884,-3.5747,-3.623,-3.6075,-3.6402,-3.7039,-3.6884,-3.7056,-3.7501,-3.7501,-3.7501,-3.7501,-3.7501,-3.7501,-3.7501,-3.7501,-3.7501,-3.7519,-3.8115,-3.8007,-3.7691,-3.8105,-3.8439,-3.7881,-3.886,-3.9902,-4.0484,-4.1569,-4.2202,-4.2813,-4.2833,-4.2813,-4.3107,-4.3128,-4.296,-4.2665,-4.2665,-4.2981,-4.3254,-4.3401,-4.411,-4.5223,-4.5653,-4.6811,-4.8628,-4.9202,-5.0046,-5.1151,-5.1552,-5.1552,-5.1552,-5.1552,-5.1552,-5.1552,-5.1952,-5.2456,-5.2562,-5.293,-5.3295,-5.3915,-5.5436,-5.5909,-5.643,-5.7312,-5.8539,-5.9072,-5.9826,-6.0429,-6.068,-6.0092,-5.9134,-5.8506,-5.714,-5.6207,-5.6375,-5.6364,-5.5926,-5.591,-5.5586,-5.5441,-5.5108,-5.4954,-5.4924,-5.4735,-5.4954,-5.5048,-5.5052,-5.4988,-5.5112,-5.5514,-5.579,-5.6034,-5.6336,-5.6487,-5.6845,-5.7198,-5.6933,-5.7053,-2.086,-2.0561,-2.2027,-2.3665,-2.5475,-2.7307,-2.8816,-2.9833,-2.9995,-2.9833,-3.0142,-3.0451,-3.0642,-3.0771,-3.2366,-3.3473,-3.416,-3.504,-3.5123,-3.5107,-3.5263,-3.6712,-3.8016,-3.8323,-3.817,-3.7827,-3.7845,-3.7691,-3.7673,-3.7519,-3.7501,-3.7501,-3.7501,-3.7501,-3.7501,-3.7827,-3.7988,-3.8014,-3.8007,-3.8052,-3.845,-3.9372,-4.0184,-4.0933,-4.2162,-4.294,-4.3547,-4.3254,-4.3254,-4.3672,-4.3526,-4.3401,-4.3107,-4.3107,-4.3128,-4.296,-4.2833,-4.3107,-4.3985,-4.413,-4.5531,-4.805,-4.8489,-4.9477,-5.1285,-5.1552,-5.1552,-5.1552,-5.1552,-5.1552,-5.1552,-5.1552,-5.1927,-5.2693,-5.2192,-5.1927,-5.2562,-5.3425,-5.4553,-5.4807,-5.6825,-5.8274,-5.8927,-5.9425,-5.9914,-6.0481,-5.99,-5.8668,-5.8351,-5.7432,-5.6516,-5.6654,-5.651,-5.6054,-5.5438,-5.4979,-5.4723,-5.4449,-5.4382,-5.4401,-5.443,-5.4479,-5.4318,-5.4581,-5.4836,-5.4664,-5.489,-5.5168,-5.5636,-5.6003,-5.6246,-5.6548,-5.6607,-5.6487,-5.6607,-2.1139,-2.1965,-2.3809,-2.564,-2.7157,-2.8993,-2.9818,-2.9995,-2.9995,-2.9995,-3.0304,-3.1211,-3.1966,-3.2572,-3.3521,-3.5123,-3.6867,-3.7039,-3.7501,-3.8439,-3.8897,-3.8897,-3.9087,-3.8629,-3.8476,-3.8439,-3.817,-3.8034,-3.8016,-3.7845,-3.7501,-3.7519,-3.7519,-3.7501,-3.7501,-3.7519,-3.7791,-3.7908,-3.7211,-3.7673,-3.8592,-3.8079,-3.8823,-4.1231,-4.1549,-4.231,-4.3401,-4.3547,-4.3693,-4.3964,-4.3839,-4.3693,-4.3547,-4.3547,-4.3421,-4.3401,-4.3128,-4.3107,-4.296,-4.3254,-4.4358,-4.7189,-4.7749,-4.8305,-5.0992,-5.1552,-5.1552,-5.1552,-5.1552,-5.1552,-5.1552,-5.1552,-5.1552,-5.1686,-5.1686,-5.206,-5.3295,-5.5311,-5.5811,-5.6702,-5.8182,-5.9274,-5.8748,-5.8955,-5.9278,-5.9538,-5.9569,-5.8774,-5.8376,-5.7862,-5.7017,-5.6722,-5.6574,-5.6075,-5.5561,-5.5171,-5.5229,-5.4983,-5.465,-5.44,-5.412,-5.3765,-5.351,-5.4257,-5.4701,-5.4411,-5.434,-5.4613,-5.5057,-5.5291,-5.5759,-5.6458,-5.6427,-5.6216,-5.6125,-2.2185,-2.2342,-2.5157,-2.6816,-2.7484,-2.9155,-2.9995,-2.9995,-2.9995,-2.9995,-2.9995,-3.0598,-3.0817,-3.1307,-3.2699,-3.4794,-3.6951,-3.733,-3.8305,-3.9391,-3.9694,-3.9372,-3.8916,-3.8476,-3.8323,-3.8323,-3.8476,-3.8458,-3.8476,-3.8305,-3.8152,-3.7998,-3.8152,-3.8133,-3.7655,-3.8421,-3.9353,-3.994,-4.026,-4.1161,-4.2014,-4.1994,-4.229,-4.3192,-4.3359,-4.3652,-4.413,-4.4276,-4.4276,-4.4421,-4.4421,-4.413,-4.3985,-4.3693,-4.3401,-4.3254,-4.3107,-4.3401,-4.4255,-4.4276,-4.5839,-4.8073,-4.8605,-4.959,-5.0992,-5.1552,-5.1552,-5.1552,-5.1552,-5.1552,-5.1552,-5.1552,-5.1552,-5.1552,-5.1552,-5.1686,-5.2192,-5.319,-5.3812,-5.4324,-5.5185,-5.5561,-5.5926,-5.6284,-5.7181,-5.8218,-5.8949,-5.9108,-5.8826,-5.8093,-5.7585,-5.7161,-5.6954,-5.6437,-5.5725,-5.5653,-5.5721,-5.5539,-5.5269,-5.4921,-5.4594,-5.4058,-5.3703,-5.4544,-5.4388,-5.4043,-5.4864,-5.4935,-5.4859,-5.442,-5.4605,-5.5411,-5.618,-5.5936,-5.6581,-2.351,-2.4009,-2.6323,-2.7661,-2.8328,-2.948,-2.9995,-2.9995,-2.9995,-2.9995,-3.0156,-3.1081,-3.1587,-3.1942,-3.3928,-3.5868,-3.7719,-3.7637,-3.8287,-3.9524,-3.9675,-3.9524,-3.9068,-3.8782,-3.8934,-3.9505,-4.0072,-4.0373,-4.0373,-4.0203,-3.994,-3.9486,-3.9638,-3.9316,-3.8879,-3.9808,-4.0561,-4.129,-4.2054,-4.294,-4.3985,-4.413,-4.4276,-4.4711,-4.4711,-4.4711,-4.4711,-4.4711,-4.4711,-4.4711,-4.4711,-4.4566,-4.4276,-4.413,-4.3839,-4.3547,-4.3401,-4.3839,-4.4711,-4.4855,-4.5696,-4.7537,-4.8096,-4.8927,-5.0453,-5.0723,-5.0858,-5.1419,-5.1552,-5.1552,-5.1552,-5.1552,-5.1528,-5.1637,-5.1686,-5.1686,-5.1952,-5.1952,-5.1819,-5.2324,-5.3708,-5.4706,-5.5107,-5.6284,-5.7649,-5.8511,-5.9213,-5.9708,-5.9479,-5.8828,-5.8177,-5.8121,-5.7556,-5.7132,-5.6762,-5.6561,-5.7064,-5.7213,-5.6677,-5.6174,-5.5779,-5.5271,-5.4893,-5.4842,-5.4205,-5.4272,-5.5279,-5.5706,-5.5811,-5.5489,-5.5636,-5.5753,-5.5732,-5.643,-5.7397,-2.4838,-2.6993,-2.7484,-2.8328,-2.9656,-2.9833,-2.9995,-2.9995,-2.9995,-2.9995,-3.0612,-3.3268,-3.4183,-3.528,-3.7294,-3.9505,-3.9505,-3.8268,-3.8592,-3.9827,-3.9978,-3.9978,-3.9978,-3.9827,-4.0411,-4.1717,-4.3131,-4.3569,-4.311,-4.2691,-4.2269,-4.1954,-4.1678,-4.14,-4.1141,-4.0992,-4.1141,-4.129,-4.1459,-4.2034,-4.2813,-4.3254,-4.3839,-4.4566,-4.4711,-4.4711,-4.4711,-4.4711,-4.4711,-4.4711,-4.4711,-4.4711,-4.4711,-4.4566,-4.4545,-4.4442,-4.4276,-4.3985,-4.3693,-4.3547,-4.4255,-4.5553,-4.5266,-4.7071,-4.9453,-4.975,-5.0294,-5.1285,-5.1552,-5.1577,-5.1577,-5.1552,-5.1661,-5.1985,-5.1902,-5.1952,-5.2241,-5.2084,-5.2456,-5.3605,-5.5212,-5.7218,-5.7582,-5.7952,-5.8574,-5.9039,-5.962,-5.9909,-5.9796,-5.9538,-5.945,-5.9366,-5.8942,-5.8348,-5.7867,-5.7641,-5.8346,-5.8885,-5.8122,-5.7274,-5.6795,-5.6851,-5.6507,-5.5431,-5.4792,-5.5356,-5.6489,-5.6532,-5.6622,-5.6475,-5.7639,-5.7838,-5.7293,-5.6779,-5.7907,-2.4341,-2.732,-2.8654,-2.9494,-2.9995,-2.9995,-2.9995,-2.9995,-2.9995,-3.0612,-3.1692,-3.2777,-3.3884,-3.514,-3.6092,-3.7791,-3.9827,-3.9524,-3.9505,-3.9978,-3.9997,-3.9997,-3.9978,-3.9827,-4.0129,-4.0842,-4.0842,-4.0992,-4.0972,-4.1608,-4.1439,-4.0992,-4.1886,-4.1886,-4.1439,-4.1479,-4.1925,-4.237,-4.235,-4.296,-4.3964,-4.413,-4.4276,-4.4711,-4.4711,-4.4711,-4.4711,-4.4711,-4.4711,-4.4711,-4.4711,-4.4711,-4.4711,-4.4421,-4.4276,-4.4276,-4.413,-4.3985,-4.413,-4.4935,-4.6058,-4.7211,-4.8166,-4.943,-5.1102,-5.1419,-5.1552,-5.1976,-5.2241,-5.2291,-5.2316,-5.2026,-5.1794,-5.1927,-5.1927,-5.1952,-5.1843,-5.1976,-5.2266,-5.2819,-5.3887,-5.4197,-5.4222,-5.5678,-5.6812,-5.7218,-5.8943,-5.9793,-5.9767,-5.9623,-5.9651,-5.9566,-5.968,-5.9425,-5.9309,-5.9427,-6.017,-5.9995,-5.9427,-5.8433,-5.7952,-5.8234,-5.8009,-5.6597,-5.6343,-5.6964,-5.7302,-5.7355,-5.6954,-5.646,-5.7837,-5.9294,-5.8233,-5.7428,-5.8167,-2.5664,-2.7484,-2.9169,-2.9995,-2.9995,-2.9995,-3.0304,-3.0773,-3.0773,-3.1852,-3.3252,-3.4042,-3.4827,-3.5937,-3.6557,-3.7944,-3.9978,-3.9997,-4.0411,-4.0842,-4.0842,-4.1141,-4.1569,-4.142,-4.1717,-4.229,-4.2269,-4.2417,-4.2984,-4.3631,-4.3652,-4.3339,-4.3672,-4.3672,-4.3066,-4.2793,-4.3107,-4.3547,-4.3547,-4.3964,-4.4545,-4.4711,-4.4711,-4.4711,-4.4711,-4.4711,-4.4711,-4.4711,-4.4711,-4.4711,-4.4711,-4.4711,-4.4711,-4.4421,-4.4276,-4.4276,-4.4276,-4.4545,-4.4935,-4.6036,-4.7144,-4.8305,-4.9222,-5.0063,-5.137,-5.1661,-5.1952,-5.2349,-5.2374,-5.3161,-5.372,-5.3995,-5.3676,-5.3676,-5.3676,-5.3616,-5.3541,-5.3541,-5.3516,-5.3516,-5.3651,-5.4321,-5.5616,-5.6275,-5.7353,-5.8372,-5.955,-6.0168,-5.9995,-5.9853,-5.9821,-5.9846,-5.9906,-6.008,-6.0732,-6.1573,-6.169,-6.1427,-6.1195,-6.0566,-6.0594,-6.1049,-6.1049,-5.994,-5.8594,-5.91,-6.0623,-6.0568,-6.0218,-5.9741,-5.9914,-6.0743,-5.8945,-6.0348,-6.0313,-2.8667,-2.7864,-2.9332,-2.9995,-2.9995,-3.0156,-3.0905,-3.23,-3.2459,-3.3553,-3.514,-3.6712,-3.7501,-3.7673,-3.9049,-3.9978,-4.011,-4.028,-4.0992,-4.2437,-4.2437,-4.3318,-4.4626,-4.477,-4.5323,-4.5872,-4.5872,-4.6744,-4.8189,-4.8628,-4.8674,-4.7885,-4.7041,-4.6594,-4.5718,-4.4978,-4.4855,-4.4855,-4.4855,-4.4834,-4.4855,-4.4855,-4.4855,-4.4855,-4.4855,-4.4855,-4.4711,-4.4711,-4.4711,-4.4711,-4.4711,-4.4711,-4.4711,-4.4711,-4.4711,-4.4711,-4.4711,-4.5244,-4.6036,-4.6581,-4.7261,-4.8097,-4.888,-4.9179,-5.0979,-5.1259,-5.1919,-5.2622,-5.2796,-5.3626,-5.6184,-5.6336,-5.6463,-5.6513,-5.6313,-5.6288,-5.664,-5.5974,-5.6389,-5.6125,-5.5999,-5.6695,-5.9103,-6.028,-6.0542,-6.1379,-6.1462,-6.1089,-6.0931,-6.0679,-6.0473,-6.0575,-6.0638,-6.1053,-6.3438,-6.3735,-6.3879,-6.3673,-6.3386,-6.3667,-6.4103,-6.4276,-6.4132,-6.3518,-6.174,-6.1535,-6.3218,-6.3625,-6.2918,-6.2597,-6.262,-6.2888,-6.185,-6.3256,-6.314,-2.8734,-2.9888,-2.9839,-2.9995,-2.9995,-3.1226,-3.1996,-3.2618,-3.371,-3.5296,-3.6884,-3.7365,-3.8133,-3.9372,-3.9808,-4.0711,-4.1569,-4.1717,-4.2584,-4.3901,-4.4047,-4.4337,-4.4626,-4.477,-4.4914,-4.518,-4.551,-4.5653,-4.5916,-4.6528,-4.655,-4.6244,-4.6714,-4.69,-4.6736,-4.6594,-4.6453,-4.6332,-4.6453,-4.6168,-4.5718,-4.6146,-4.6168,-4.5574,-4.5574,-4.5287,-4.4711,-4.4711,-4.4711,-4.4711,-4.4711,-4.4711,-4.4711,-4.4711,-4.4711,-4.4834,-4.5674,-4.6462,-4.6744,-4.8696,-5.0087,-5.0564,-5.2213,-5.3417,-5.3861,-5.4621,-5.5233,-5.5718,-5.542,-5.5434,-5.6879,-5.6742,-5.6578,-5.6578,-5.644,-5.6301,-5.6237,-5.6301,-5.649,-5.6414,-5.6806,-5.7155,-5.7786,-5.8786,-5.9905,-6.1181,-6.1625,-6.2118,-6.373,-6.362,-6.2951,-6.2215,-6.2917,-6.3678,-6.4316,-6.4812,-6.473,-6.4638,-6.4691,-6.4719,-6.419,-6.6519,-6.7496,-6.5051,-6.3816,-6.3551,-6.4338,-6.3921,-6.321,-6.3171,-6.321,-6.34,-6.4101,-6.3523,-6.3653,-3.0264,-3.1246,-3.0891,-3.0922,-3.1449,-3.2103,-3.3252,-3.4497,-3.5625,-3.7021,-3.8439,-3.8592,-3.9068,-3.9978,-3.9997,-4.0773,-4.1971,-4.2723,-4.3932,-4.5772,-4.651,-4.7263,-4.77,-4.7845,-4.7845,-4.7845,-4.7845,-4.7845,-4.7845,-4.8324,-4.8324,-4.8279,-4.8468,-4.8657,-4.8612,-4.7966,-4.7622,-4.7622,-4.7242,-4.7019,-4.6878,-4.7323,-4.7182,-4.6453,-4.631,-4.6003,-4.5287,-4.5143,-4.4999,-4.4711,-4.4711,-4.4711,-4.4711,-4.4711,-4.4711,-4.4711,-4.551,-4.6639,-4.8294,-5.044,-5.2252,-5.353,-5.5103,-5.5889,-5.5914,-5.6498,-5.7362,-5.8048,-5.811,-5.811,-5.8302,-5.811,-5.7943,-5.7943,-5.7943,-5.7994,-5.7685,-5.7852,-5.7943,-5.7943,-5.811,-5.8559,-5.9181,-6.0232,-6.1208,-6.2035,-6.2784,-6.3532,-6.4376,-6.4828,-6.4483,-6.4175,-6.5346,-6.6292,-6.6559,-6.6595,-6.6653,-6.653,-6.6501,-6.6472,-6.6494,-6.8041,-6.8427,-6.642,-6.5912,-6.5701,-6.5337,-6.548,-6.5355,-6.5469,-6.5257,-6.5074,-6.5074,-6.4948,-6.485,-3.2201,-3.1886,-3.1715,-3.2388,-3.3253,-3.3233,-3.467,-3.7193,-3.7673,-3.8592,-3.9846,-4.0073,-4.0111,-4.0092,-4.0225,-4.0968,-4.2104,-4.3512,-4.556,-4.7932,-4.9536,-5.1123,-5.2111,-5.2444,-5.2638,-5.2491,-5.2491,-5.232,-5.232,-5.2491,-5.2421,-5.2351,-5.1624,-5.1214,-5.0997,-4.9761,-4.8872,-4.876,-4.7907,-4.774,-4.8464,-4.8372,-4.7885,-4.716,-4.7182,-4.6736,-4.6025,-4.5882,-4.5574,-4.4855,-4.4711,-4.4711,-4.4711,-4.4711,-4.4711,-4.4711,-4.4711,-4.6309,-4.9853,-5.1637,-5.3565,-5.6477,-5.6829,-5.7057,-5.7083,-5.721,-5.8124,-5.9598,-6.0157,-6.0055,-6.0233,-6.0106,-6.0004,-5.9928,-6.0004,-6.0233,-6.008,-6.0233,-6.0233,-6.0233,-5.9953,-6.0737,-6.1571,-6.278,-6.3988,-6.3879,-6.4482,-6.5033,-6.5005,-6.5262,-6.5555,-6.6295,-6.7583,-6.8656,-6.8753,-6.8986,-6.8666,-6.8753,-6.8898,-6.8695,-6.8424,-6.8753,-6.8928,-6.7882,-6.8143,-6.7872,-6.8229,-6.8605,-6.8148,-6.752,-6.7478,-6.7636,-6.7722,-6.732,-6.7004,-3.2273,-3.2441,-3.1531,-3.2006,-3.358,-3.5458,-3.6712,-3.7673,-3.8897,-3.9675,-4.0073,-4.0699,-4.0984,-4.106,-4.1686,-4.3429,-4.575,-4.6387,-4.8323,-5.1055,-5.2384,-5.3077,-5.347,-5.4368,-5.4718,-5.4718,-5.4718,-5.4718,-5.4742,-5.4742,-5.4321,-5.3377,-5.2437,-5.2065,-5.2042,-5.1663,-5.0985,-5.0365,-4.9945,-4.9994,-5.0112,-4.9345,-4.8674,-4.8047,-4.7908,-4.7627,-4.6736,-4.6168,-4.5739,-4.5596,-4.4999,-4.4711,-4.4711,-4.4711,-4.4711,-4.4711,-4.4711,-4.5618,-4.7667,-5.0979,-5.3713,-5.5449,-5.7184,-5.82,-5.8277,-5.8963,-5.975,-6.0131,-6.0233,-6.0233,-6.0233,-6.0233,-6.0233,-6.0233,-6.0233,-6.0379,-6.0233,-6.0233,-6.0233,-6.0233,-6.0233,-6.0353,-6.0907,-6.1975,-6.3052,-6.3636,-6.5001,-6.6637,-6.7589,-6.7969,-6.8075,-6.8298,-6.8656,-6.8986,-6.8986,-6.8986,-6.8986,-6.8986,-6.8986,-6.8986,-6.8986,-6.8986,-6.8888,-6.8605,-6.8334,-6.8334,-6.8136,-6.8036,-6.8036,-6.8036,-6.8036,-6.7908,-6.7908,-6.7678,-6.7447,-3.2455,-3.2816,-3.257,-3.2806,-3.3627,-3.6637,-3.8168,-3.8782,-4.0071,-4.0794,-4.1174,-4.1629,-4.2312,-4.2959,-4.3546,-4.5364,-4.8242,-4.8994,-5.0729,-5.3345,-5.4691,-5.5537,-5.6004,-5.6542,-5.6822,-5.6822,-5.6822,-5.6822,-5.6799,-5.6822,-5.6565,-5.5957,-5.4976,-5.4204,-5.376,-5.3293,-5.2778,-5.2194,-5.2171,-5.168,-5.0745,-5.0184,-4.9415,-4.8443,-4.8466,-4.8025,-4.7041,-4.6594,-4.5949,-4.5066,-4.4642,-4.4216,-4.4095,-4.4095,-4.4286,-4.4668,-4.4711,-4.517,-4.6427,-4.9358,-5.2346,-5.5494,-5.7423,-5.8439,-5.8439,-5.9598,-6.0233,-6.0233,-6.0233,-6.0233,-6.0233,-6.0233,-6.0233,-6.0233,-6.0907,-6.117,-6.1288,-6.1716,-6.2143,-6.2284,-6.2258,-6.254,-6.3073,-6.385,-6.4534,-6.5372,-6.5906,-6.6829,-6.7664,-6.842,-6.8986,-6.8986,-6.8986,-6.8986,-6.8986,-6.8986,-6.8986,-6.8986,-6.8986,-6.8986,-6.8986,-6.8986,-6.8888,-6.8732,-6.8704,-6.8576,-6.842,-6.8321,-6.8321,-6.8321,-6.8321,-6.8293,-6.8321,-6.8222,-6.8222,-3.2787,-3.3067,-3.3971,-3.4216,-3.436,-3.7139,-3.9079,-4.0073,-4.1041,-4.1857,-4.2559,-4.2976,-4.3937,-4.5324,-4.5603,-4.7199,-4.9495,-5.1084,-5.2868,-5.4782,-5.644,-5.771,-5.8692,-5.8856,-5.8902,-5.8926,-5.8902,-5.8926,-5.8902,-5.8902,-5.8739,-5.8388,-5.7617,-5.6565,-5.5443,-5.4531,-5.4111,-5.4111,-5.3971,-5.3012,-5.1212,-5.1025,-5.0323,-4.9113,-4.9044,-4.8441,-4.7182,-4.7019,-4.6196,-4.4384,-4.4201,-4.3879,-4.3394,-4.3394,-4.3649,-4.4265,-4.435,-4.4774,-4.5645,-4.7299,-5.0281,-5.5132,-5.7475,-5.8439,-5.8465,-5.9445,-6.0055,-6.0233,-6.0233,-6.0233,-6.0233,-6.0233,-6.0233,-6.0379,-6.1288,-6.2337,-6.2663,-6.3393,-6.4144,-6.4941,-6.4916,-6.5107,-6.6056,-6.6612,-6.7196,-6.8065,-6.7564,-6.7118,-6.7406,-6.8136,-6.8859,-6.8986,-6.8986,-6.8986,-6.8986,-6.8986,-6.8986,-6.8986,-6.8986,-6.8986,-6.8986,-6.8986,-6.8986,-6.9015,-6.8986,-6.9015,-6.8986,-6.8986,-6.8859,-6.8859,-6.8859,-6.8888,-6.8859,-6.8859,-6.8859,-3.2789,-3.4005,-3.376,-3.5206,-3.7568,-3.7637,-3.8567,-4.0243,-4.1648,0.0,0.0,-4.4807,-4.575,-4.6253,-4.8237,-5.0288,-5.2101,-5.2576,-5.4019,-5.6484,-5.7666,-5.8762,-5.9767,-6.0609,-6.1006,-6.1006,-6.1006,-6.1006,-6.1006,-6.0983,-6.0141,-5.8622,-5.8318,-5.7266,-5.5537,-5.5256,-5.5163,-5.5116,-5.4321,-5.3713,-5.3339,-5.2498,-5.1275,-4.9991,-4.9968,-4.927,-4.807,-4.7323,-4.6789,-4.6047,-4.5457,-4.4565,-4.3437,-4.319,-4.2894,-4.2524,-4.3043,-4.345,-4.3798,-4.5204,-4.7658,-5.1452,-5.5866,-5.8439,-5.8439,-5.8759,-5.9242,-6.0157,-6.0233,-6.0233,-6.0233,-6.0233,-6.0233,-6.0233,-6.0499,-6.1557,-6.3547,-6.315,-6.3994,-6.6893,-6.6661,-6.5843,-6.6562,-6.7655,-6.8016,-6.7402,-6.8036,-6.8576,-6.8576,-6.8859,-6.9015,-6.9102,-6.9044,-6.8986,-6.8986,-6.8986,-6.8986,-6.8986,-6.8986,-6.8986,-6.8986,-6.8986,-6.8986,-6.8986,-6.8986,-6.8986,-6.8986,-6.8986,-6.8986,-6.8986,-6.8986,-6.8986,-6.8986,-6.8986,-6.9015,-3.476,-3.6549,-3.6748,-3.7791,0.0,-3.9864,-4.0486,-4.1364,-4.2616,-4.3867,-4.5235,-4.6449,-4.7916,-4.9711,-5.0985,-5.2481,-5.415,-5.4676,-5.5933,-5.7757,-5.8786,-5.9814,-6.0796,-6.131,-6.1544,-6.1544,-6.1544,-6.1263,-6.0796,-6.0749,-6.0001,-5.8482,-5.7967,-5.7196,-5.6191,-5.5677,-5.542,-5.542,-5.4929,-5.4391,-5.39,-5.3167,-5.2103,-5.1054,-5.1008,0.0,0.0,0.0,0.0,0.0,0.0,0.0,0.0,-4.3444,0.0,-4.2694,-4.2606,-4.2542,-4.2884,-4.3705,-4.5415,-4.8156,-5.2082,-5.4734,-5.5744,-5.6944,-5.82,-5.9267,-5.9394,-5.9623,-6.0157,-6.0233,-6.0233,-6.0379,-6.16,-6.3131,-6.5047,-6.597,-6.7556,-7.003,-6.9838,-6.9335,-6.9576,-6.9876,-6.9455,-6.9041,-6.901,-6.8986,-6.8986,-6.8986,-6.9306,-6.9887,-6.9509,-6.9015,-6.8986,-6.8986,-6.8986,-6.8986,-6.8986,-6.8986,-6.8986,-6.8986,-6.8986,-6.8986,-6.8986,-6.8986,-6.8986,-6.8986,-6.8986,-6.8986,-6.8986,-6.8986,-6.8986,-6.8986,-6.8986,-3.7086,-3.8843,-3.9726,-4.0217,-4.0719,-4.2264,-4.3015,-4.3053,-4.3698,-4.5179,-4.7121,-4.7767,-4.9905,-5.2843,-5.316,-5.4128,-5.5443,-5.6285,-5.7219,-5.8201,-5.9066,-6.0094,-6.124,-6.124,-6.138,-6.1544,-6.1333,-6.0819,-6.0001,-5.9814,-5.9206,-5.8201,-5.736,-5.6869,-5.6612,0.0,0.0,0.0,-5.542,-5.5022,-5.4204,-5.3913,-5.31,-5.2071,-5.2025,0.0,-5.1134,-5.0563,-4.9585,-4.8364,-4.7581,0.0,0.0,0.0,0.0,0.0,0.0,0.0,0.0,0.0,0.0,0.0,-4.819,-5.0303,-5.2468,-5.4876,-5.6755,-5.8009,-5.8455,-5.8861,-5.9547,-5.9598,-5.9674,-6.0048,-6.1942,-6.4229,-6.6192,-6.841,-7.085,-7.2664,-7.3031,-7.2973,-7.2818,-7.2272,-7.1545,-7.1007,-7.012,-6.9422,-6.952,-6.9451,-6.9684,-7.0394,-6.9626,-6.9015,-6.8986,-6.8986,-6.8986,-6.8986,-6.8986,-6.8986,-6.8986,-6.8986,-6.8986,-6.8986,-6.8986,-6.8986,-6.8986,-6.8986,-6.8986,-6.8986,-6.8986,-6.8986,-6.8986,-6.8986,-6.8986,-3.8353,-3.9878,-3.9992,-4.0832,-4.2436,-4.3874,-4.4667,-4.4667,-4.478,-4.4875,-4.546,-4.8573,-5.1018,-5.3002,-5.444,-5.5241,-5.542,-5.556,-5.6168,-5.7126,-5.729,-5.8365,-6.0188,-6.0211,-6.0702,-6.1474,-6.0655,-6.0165,-6.0001,-5.9113,-5.8178,-5.7173,-5.7009,-5.6495,-5.5653,-5.549,-5.542,-5.542,-5.542,-5.535,-5.5233,-5.5209,-5.4389,-5.3135,-5.3065,-5.2476,-5.118,-5.0986,-5.0473,-4.9337,-4.9036,-4.7755,-4.4796,-4.3861,-4.263,0.0,-4.004,0.0,0.0,0.0,0.0,0.0,0.0,0.0,0.0,-5.2469,-5.461,-5.6894,-5.7997,-5.8251,-5.7388,-5.7337,-5.7718,-5.8658,-5.9044,-6.108,-6.5262,-6.63,-6.8504,-7.3497,-7.404,-7.4186,-7.4346,-7.4279,-7.3359,-7.1891,-7.1037,-7.0714,-7.103,-7.0814,-7.0277,-6.9568,-6.9325,-6.9015,-6.8986,-6.8986,-6.8986,-6.8986,-6.8986,-6.8986,-6.8986,-6.8986,-6.8986,-6.8986,-6.8986,-6.8986,-6.8986,-6.8986,-6.8986,-6.8986,-6.8986,-6.8986,-6.8986,-6.8986,-6.8986,-4.1181,-4.2713,-4.2665,-4.3186,-4.3945,-4.4686,-4.4989,-4.4951,-4.4496,-4.4287,-4.4435,-4.6354,-4.9115,-5.2129,-5.3767,-5.4882,-5.5443,-5.6004,-5.6518,-5.6986,-5.7547,-5.8295,-5.9136,-5.916,-5.9393,-5.9837,-5.937,-5.8856,-5.8318,-5.7851,-5.7103,-5.6144,-5.6098,-5.5583,-5.4625,-5.4578,-5.4859,-5.542,-5.542,-5.542,-5.542,-5.542,-5.5032,-5.4436,-5.4436,-5.4203,-5.3587,-5.3131,-5.2365,-5.1394,-5.0267,-4.8475,-4.5581,-4.4159,-4.2545,0.0,0.0,0.0,0.0,0.0,0.0,0.0,0.0,0.0,0.0,0.0,-5.2837,-5.4657,-5.7071,-5.8124,-5.7006,-5.6905,-5.6854,-5.6702,-5.7605,-5.9333,-6.2433,-6.5815,-6.8861,-7.1598,-7.3355,-7.4546,-7.4578,-7.3988,-7.3494,-7.3359,-7.2303,-7.1932,-7.2836,-7.156,-7.0523,-7.0737,-7.0053,-6.9459,-6.9179,-6.9112,-6.8986,-6.8986,-6.8986,-6.8986,-6.8986,-6.8986,-6.8986,-6.8986,-6.8986,-6.8986,-6.8986,-6.8986,-6.8986,-6.8986,-6.8986,-6.8986,-6.8986,-6.8986,-6.8986,-4.3567,-4.4781,-4.4572,-4.4403,-4.4309,-4.4365,-4.4401,-4.4344,-4.3736,-4.3471,-4.3578,-4.4653,-4.6899,-5.0223,-5.2103,-5.3494,-5.4412,-5.5591,-5.6057,-5.6285,-5.7266,-5.7897,-5.8131,-5.8131,-5.8248,-5.8458,-5.8225,-5.771,-5.6962,-5.6705,-5.6074,-5.5092,-5.5069,-5.4555,-5.3573,-5.376,-5.4251,-5.5046,-5.5303,-5.542,-5.542,-5.542,-5.542,-5.542,-5.542,-5.542,-5.542,-5.4799,-5.3994,-5.298,-5.1259,-4.9126,-4.6197,-4.4392,0.0,0.0,0.0,0.0,0.0,0.0,0.0,0.0,0.0,-4.4658,-4.6316,0.0,-5.0932,0.0,-5.6249,-5.7845,-5.6981,-5.6422,0.0,0.0,-5.6058,-5.7431,-5.9551,-6.4266,-6.7837,-6.883,-7.1664,-7.3591,-7.3755,-7.3337,-7.3441,-7.4258,-7.3252,-7.268,-7.2956,-7.1203,-7.0103,-7.0375,-6.9484,-6.886,-6.8498,-6.8632,-6.8858,-6.9054,-6.9112,-6.9112,-6.8986,-6.8986,-6.8986,-6.8986,-6.8986,-6.8986,-6.8986,-6.8986,-6.8986,-6.8986,-6.8986,-6.8986,-6.8986,-6.8986,-6.8986,-4.48,-4.4856,-4.3357,-4.2737,-4.2809,-4.2733,-4.273,-4.273,-4.2673,-4.2635,-4.2796,-4.4395,-4.5476,-4.6338,-4.9126,0.0,-5.1557,-5.2868,-5.3831,-5.4181,-5.5186,-5.6168,-5.7056,-5.7079,-5.757,-5.8435,-5.7523,-5.7032,-5.6892,-5.6004,-5.5022,-5.4041,-5.4017,-5.348,-5.2591,-5.3433,-5.3924,-5.4017,-5.4952,-5.542,-5.542,-5.542,-5.542,-5.542,-5.542,-5.542,-5.542,-5.5265,-5.462,-5.2957,-5.1951,-4.9783,-4.6218,0.0,0.0,0.0,0.0,0.0,0.0,0.0,0.0,0.0,0.0,0.0,0.0,0.0,0.0,-5.3651,-5.5971,0.0,-5.6905,-5.5,0.0,0.0,0.0,-5.4119,-5.7745,-6.0373,-6.2947,-6.5584,0.0,0.0,-7.1225,-7.2755,-7.3912,-7.3677,-7.3602,-7.2405,-6.9376,-6.9459,-6.9071,-6.7418,-6.6679,-6.6297,-6.6681,-6.7448,-6.8389,-6.9173,-6.9371,-6.9305,-6.9141,-6.8986,-6.8986,-6.8986,-6.8986,-6.8986,-6.8986,-6.8986,-6.8986,-6.8986,-6.8986,-6.8986,-6.8986,-6.8986,-6.8986,-4.3578,-4.2542,-4.1463,-4.0956,-4.1092,-4.1604,-4.1781,-4.1781,-4.1781,-4.1477,-4.112,-4.1195,-4.1549,-4.2244,-4.4089,0.0,0.0,0.0,-5.1626,-5.3576,-5.3994,-5.4869,-5.5981,-5.6027,-5.6261,-5.6612,-5.6214,-5.6027,-5.6004,-5.563,-5.4251,-5.2054,0.0,-5.1773,-5.1399,-5.2428,-5.3269,-5.39,-5.4905,-5.542,-5.542,-5.542,-5.542,-5.542,-5.542,-5.542,-5.542,-5.542,-5.4498,-5.2485,-5.0629,-4.8253,0.0,0.0,0.0,0.0,0.0,0.0,0.0,0.0,0.0,0.0,0.0,-4.0791,-4.2705,0.0,0.0,0.0,-5.2107,-5.3716,-5.4822,-5.4165,0.0,0.0,0.0,0.0,0.0,0.0,0.0,-6.1995,-6.6544,-7.0073,-7.1334,-7.2552,-7.3134,-7.2897,-7.1482,-7.0032,-6.8932,0.0,-6.8129,-6.7948,-6.7348,-6.708,-6.7593,-6.765,-6.7948,-6.8842,-6.9488,-6.9649,-6.9305,-6.9112,-6.8986,-6.8986,-6.8986,-6.8986,-6.8986,-6.8986,-6.8986,-6.8986,-6.8986,-6.8986,-6.8986,-6.8986,-6.8986,-4.1618,0.0,0.0,0.0,0.0,-3.9883,-4.0187,-4.0187,-4.0187,-3.9845,-3.9218,-3.863,0.0,0.0,0.0,0.0,0.0,0.0,-4.966,-5.1534,-5.3158,-5.425,-5.4822,-5.4999,-5.4976,-5.4952,-5.4695,-5.4531,-5.4508,-5.3947,-5.2358,-4.988,0.0,0.0,0.0,0.0,-5.2305,-5.3447,-5.4635,-5.542,-5.542,-5.542,-5.542,-5.542,-5.542,-5.542,-5.542,-5.4962,-5.3897,-5.1647,-4.9389,0.0,0.0,0.0,0.0,0.0,0.0,0.0,0.0,0.0,0.0,0.0,0.0,0.0,0.0,0.0,0.0,0.0,0.0,0.0,-5.2985,-5.363,-5.3121,0.0,0.0,0.0,0.0,0.0,0.0,0.0,0.0,0.0,-7.0605,-7.1696,-7.2212,0.0,0.0,-6.8752,-6.8088,-6.7573,-6.7273,-6.7597,-6.7009,0.0,-6.7612,-6.7392,-6.7483,-6.8439,-6.932,-6.9581,-6.9091,-6.8457,-6.8005,-6.7976,-6.82,-6.8317,-6.8026,-6.7881,-6.7881,-6.791,-6.7881,-6.791,-6.7881,-6.791,-6.7881,0.0,0.0,0.0,0.0,-3.7632,0.0,0.0,0.0,-3.7643,-3.7662,0.0,-3.7548,0.0,0.0,0.0,0.0,-4.1974,-4.6091,0.0,0.0,-5.2811,-5.4682,-5.3296,-5.3703,-5.39,-5.3877,-5.2919,-5.2428,-5.2288,-5.0394,0.0,0.0,0.0,0.0,0.0,0.0,-5.1349,-5.2372,-5.4426,-5.542,-5.542,-5.542,-5.542,-5.542,-5.542,-5.542,-5.5373,-5.3958,-5.251,-5.0712,-4.8068,0.0,0.0,0.0,0.0,0.0,0.0,0.0,0.0,0.0,0.0,0.0,0.0,0.0,0.0,0.0,0.0,0.0,0.0,0.0,0.0,-5.3136,0.0,0.0,0.0,0.0,0.0,0.0,0.0,0.0,0.0,-6.579,-6.813,-6.9916,-7.0994,-7.1024,0.0,0.0,0.0,0.0,-6.6788,-6.4961,-6.4548,-6.4755,-6.5331,-6.6141,-6.7052,-6.8118,0.0,0.0,-6.8158,-6.6768,-6.5738,-6.568,-6.6523,-6.6688,-6.5496,-6.5379,-6.535,-6.535,-6.5408,-6.5263,-6.5292,-6.5525,-6.5438,0.0,0.0,0.0,0.0,0.0,0.0,0.0,0.0,0.0,-3.6464,-3.5998,-3.598,0.0,0.0,0.0,0.0,0.0,0.0,0.0,0.0,-4.7608,-4.9111,-4.9718,-4.9982,-5.0269,-5.0554,-5.0205,-4.9229,0.0,0.0,0.0,0.0,0.0,0.0,0.0,0.0,-5.1592,-5.3373,-5.4718,-5.5729,-5.6449,-5.5883,-5.542,-5.542,-5.542,-5.4962,-5.3958,-5.1844,-4.9907,0.0,0.0,0.0,0.0,0.0,0.0,0.0,0.0,0.0,0.0,0.0,0.0,0.0,0.0,0.0,0.0,0.0,0.0,0.0,0.0,0.0,0.0,0.0,-5.3031,0.0,0.0,0.0,0.0,0.0,0.0,0.0,0.0,0.0,-6.535,-6.7448,-6.9349,-7.0784,-6.9974,-6.9121,-6.9003,0.0,0.0,0.0,0.0,0.0,0.0,0.0,-6.8084,-6.8004,-6.7757,-6.7635,-6.7608,-6.6444,-6.5533,-6.5533,0.0,0.0,-6.41,-6.4536,-6.5118,-6.5118,-6.5118,-6.5118,-6.5118,-6.5118,-6.5208,0.0,0.0,0.0,0.0,0.0,0.0,0.0,0.0,0.0,-3.4353,-3.3668,0.0,0.0,0.0,0.0,0.0,0.0,0.0,0.0,0.0,0.0,0.0,-4.6785,-4.7063,0.0,0.0,0.0,0.0,0.0,0.0,0.0,0.0,0.0,0.0,0.0,0.0,-5.1263,-5.3424,-5.4751,-5.5705,-5.6449,-5.5859,-5.542,-5.542,-5.542,-5.4775,-5.3273,0.0,0.0,0.0,0.0,0.0,0.0,0.0,0.0,0.0,0.0,0.0,0.0,0.0,0.0,0.0,0.0,0.0,0.0,0.0,0.0,0.0,0.0,0.0,0.0,0.0,-5.0854,0.0,0.0,0.0,0.0,0.0,0.0,0.0,0.0,0.0,0.0,-6.4848,-6.7031,-7.0066,-7.0137,-7.0184,-7.0898,-7.0597,-7.0668,0.0,0.0,0.0,0.0,0.0,0.0,0.0,0.0,0.0,0.0,0.0,0.0,0.0,0.0,-6.3431,-6.2589,-6.314,-6.3721,-6.3838,0.0,0.0,0.0,0.0,0.0,0.0,0.0,0.0,0.0,0.0,0.0,0.0,0.0,0.0,0.0,-3.0611,0.0,0.0,-2.9813,0.0,0.0,0.0,0.0,0.0,0.0,0.0,0.0,0.0,0.0,0.0,0.0,0.0,0.0,0.0,0.0,0.0,0.0,0.0,0.0,0.0,0.0,-5.0207,-5.2279,-5.4309,-5.542,-5.542,-5.542,-5.542,-5.542,-5.5396,-5.4729,-5.3227,0.0,0.0,0.0,0.0,0.0,0.0,0.0,0.0,0.0,0.0,0.0,0.0,0.0,0.0,0.0,0.0,0.0,0.0,0.0,0.0,0.0,0.0,0.0,0.0,0.0,0.0,-4.9662,-5.2093,-5.2892,0.0,0.0,0.0,0.0,0.0,0.0,0.0,0.0,0.0,-6.8679,-7.1627,-7.2804,-7.1716,-7.2424,-7.2716,-7.2113,-7.1888,-7.2054,-7.2641,-7.2414,-7.176,0.0,0.0,0.0,0.0,0.0,0.0,0.0,0.0,0.0,0.0,0.0,0.0,0.0,0.0,0.0,0.0,0.0,0.0,0.0,0.0,0.0,0.0,0.0,0.0,0.0,0.0,0.0,0.0,0.0,0.0,0.0,0.0,0.0,0.0,0.0,0.0,0.0,0.0,0.0,0.0,0.0,0.0,0.0,0.0,0.0,0.0,0.0,0.0,0.0,0.0,0.0,0.0,0.0,0.0,-5.03,-5.3065,-5.46,-5.5883,-5.6601,-5.5859,-5.542,-5.5396,-5.4718,-5.3552,0.0,0.0,0.0,0.0,0.0,0.0,0.0,0.0,0.0,0.0,0.0,0.0,0.0,0.0,0.0,0.0,0.0,0.0,0.0,0.0,0.0,0.0,0.0,0.0,0.0,0.0,0.0,0.0,-5.137,-5.3388,-5.2315,0.0,0.0,0.0,0.0,0.0,0.0,0.0,0.0,0.0,0.0,-7.2433,-7.2837,-7.4125,-7.5166,-7.5597,-7.5826,-7.5857,-7.6056,-7.5077,-7.3678,-7.1488,0.0,0.0,0.0,0.0,0.0,0.0,0.0,0.0,0.0,0.0,0.0,0.0,0.0,0.0,0.0,0.0,0.0,0.0,0.0,0.0,0.0,0.0,0.0,0.0,0.0,0.0,0.0,0.0,0.0,0.0,0.0,0.0,0.0,0.0,0.0,0.0,0.0,0.0,0.0,0.0,0.0,0.0,0.0,0.0,0.0,0.0,0.0,0.0,0.0,0.0,0.0,0.0,0.0,-4.995,-5.2677,-5.4496,-5.5729,-5.6449,-5.5705,-5.542,-5.542,-5.4415,-5.2752,0.0,0.0,0.0,0.0,0.0,0.0,0.0,0.0,0.0,0.0,0.0,0.0,0.0,0.0,0.0,0.0,0.0,0.0,0.0,0.0,0.0,0.0,0.0,0.0,0.0,0.0,0.0,0.0,-4.8609,-5.1179,-5.1547,0.0,0.0,0.0,0.0,0.0,0.0,0.0,0.0,0.0,0.0,-7.2179,-7.3329,-7.4239,0.0,0.0,-7.602,-7.608,-7.648,-7.612,-7.468,-7.1849,-7.0061,0.0,0.0,0.0,0.0,0.0,0.0,0.0,0.0,0.0,0.0,0.0,0.0,0.0,0.0,0.0,0.0,0.0,0.0,0.0,0.0,0.0,0.0,0.0,0.0,0.0,0.0,0.0,0.0,0.0,0.0,0.0,0.0,0.0,0.0,0.0,0.0,0.0,0.0,0.0,0.0,0.0,0.0,0.0,0.0,0.0,0.0,0.0,0.0,0.0,0.0,0.0,0.0,-4.9243,-5.1577,-5.4064,-5.542,-5.542,-5.542,-5.542,-5.5396,-5.4368,-5.253,0.0,0.0,0.0,0.0,0.0,0.0,0.0,0.0,0.0,0.0,0.0,0.0,0.0,0.0,0.0,0.0,0.0,0.0,0.0,0.0,0.0,0.0,0.0,0.0,0.0,0.0,0.0,0.0,0.0,0.0,0.0,0.0,0.0,0.0,0.0,0.0,0.0,0.0,0.0,0.0,0.0,-7.1744,-7.2835,-7.317,-7.3345,0.0,-7.3491,-7.3639,-7.4879,-7.5614,-7.4974,-7.187,0.0,0.0,0.0,0.0,0.0,0.0,0.0,0.0,0.0,0.0,0.0,0.0,0.0,0.0,0.0,0.0,0.0,0.0,0.0,0.0,0.0,0.0,0.0,0.0,0.0,0.0,0.0,0.0,0.0,0.0,0.0,0.0,0.0,0.0,0.0,0.0,0.0,0.0,0.0,0.0,0.0,0.0,0.0,0.0,0.0,0.0,0.0,0.0,0.0,0.0,0.0,0.0,0.0,0.0,-5.0986,-5.3911,-5.542,-5.542,-5.542,-5.542,-5.5396,-5.3667,0.0,0.0,0.0,0.0,0.0,0.0,0.0,0.0,0.0,0.0,0.0,0.0,0.0,0.0,0.0,0.0,0.0,0.0,0.0,0.0,0.0,0.0,0.0,0.0,0.0,0.0,0.0,-3.7027,0.0,0.0,0.0,0.0,0.0,0.0,0.0,0.0,0.0,0.0,0.0,0.0,0.0,0.0,-7.0674,-6.8948,-7.0986,-7.2552,0.0,0.0,-7.3121,-7.456,-7.4221,-7.3311,0.0,0.0,0.0,0.0,0.0,0.0,0.0,0.0,0.0,0.0,0.0,0.0,0.0,0.0,0.0,0.0,0.0,0.0,0.0,0.0,0.0,0.0,0.0,0.0,0.0,0.0,0.0,0.0,0.0,0.0,0.0,0.0,0.0,0.0,0.0,0.0,0.0,0.0,0.0,0.0,0.0,0.0,0.0,0.0,0.0,0.0,0.0,0.0,0.0,0.0,0.0,0.0,0.0,0.0,-4.7189,-4.9885,-5.2937,-5.4799,-5.5396,-5.542,-5.542,-5.542,-5.3433,-5.1223,0.0,0.0,0.0,0.0,0.0,0.0,0.0,0.0,0.0,0.0,0.0,0.0,0.0,0.0,0.0,0.0,0.0,0.0,0.0,0.0,0.0,0.0,0.0,0.0,0.0,0.0,0.0,0.0,0.0,0.0,0.0,0.0,0.0,0.0,0.0,0.0,0.0,0.0,0.0,0.0,0.0,0.0,-6.6837,-6.8355,0.0,0.0,0.0,-7.0969,-7.2259,0.0,0.0,0.0,0.0,0.0,0.0,0.0,0.0,0.0,0.0,0.0,0.0,0.0,0.0,0.0,0.0,0.0,0.0,0.0,0.0,0.0,0.0,0.0,0.0,0.0,0.0,0.0,0.0,0.0,0.0,0.0,0.0,0.0,0.0,0.0,0.0,0.0,0.0,0.0,0.0,0.0,0.0,0.0,0.0,0.0,0.0,0.0,0.0,0.0,0.0,0.0,0.0,0.0,0.0,0.0,0.0,0.0,-4.8593,-5.1591,-5.3911,-5.535,-5.542,-5.542,-5.5396,-5.355,-5.106,0.0,0.0,0.0,0.0,0.0,0.0,0.0,0.0,0.0,0.0,0.0,0.0,0.0,0.0,0.0,0.0,0.0,0.0,0.0,0.0,0.0,0.0,0.0,0.0,0.0,0.0,0.0,0.0,0.0,0.0,0.0,0.0,0.0,0.0,0.0,0.0,0.0,0.0,0.0,0.0,0.0,-6.5063,-6.576,-6.5778,-6.5402,0.0,0.0,-6.7837,-6.908,-6.9758,0.0,0.0,0.0,0.0,0.0,0.0,0.0,0.0,0.0,0.0,0.0,0.0,0.0,0.0,0.0,0.0,0.0,0.0,0.0,0.0,0.0,0.0,0.0,0.0,0.0,0.0,0.0,0.0,0.0,0.0,0.0,0.0,0.0,0.0,0.0,0.0,0.0,0.0,0.0,0.0,0.0,0.0,0.0,0.0,0.0,0.0,0.0,0.0,0.0,0.0,0.0,0.0,0.0,0.0,0.0,0.0,-4.7841,-5.1142,-5.3583,-5.5373,-5.542,-5.542,-5.5396,-5.4228,-5.1925,0.0,0.0,0.0,0.0,0.0,0.0,0.0,0.0,0.0,0.0,0.0,0.0,0.0,0.0,0.0,0.0,0.0,0.0,0.0,0.0,0.0,0.0,0.0,0.0,0.0,0.0,0.0,0.0,0.0,0.0,0.0,0.0,0.0,0.0,0.0,0.0,0.0,0.0,0.0,0.0,0.0,-6.5327,-6.3341,-6.4004,0.0,0.0,0.0,0.0,-6.7401,-6.6686,0.0,0.0,0.0,0.0,0.0,0.0,0.0,0.0,0.0,0.0,0.0,0.0,0.0,0.0,0.0,0.0,0.0,0.0,0.0,0.0,0.0,0.0,0.0,0.0,0.0,0.0,0.0,0.0,0.0,0.0,0.0,0.0,0.0,0.0,0.0,0.0,0.0,0.0,0.0,0.0,0.0,0.0,0.0,0.0,0.0,0.0,0.0,0.0,0.0,0.0,0.0,0.0,0.0,0.0,0.0,0.0,-4.6304,-4.9331,-5.2084,-5.4472,-5.5163,-5.5186,-5.4695,-5.4158,-5.2111,0.0,0.0,0.0,0.0,0.0,0.0,0.0,0.0,0.0,0.0,0.0,0.0,0.0,0.0,0.0,0.0,0.0,0.0,0.0,0.0,0.0,0.0,0.0,0.0,0.0,0.0,0.0,0.0,0.0,0.0,0.0,0.0,0.0,0.0,0.0,0.0,0.0,0.0,0.0,0.0,-5.9713,-6.2358,-6.2406,0.0,0.0,0.0,0.0,0.0,0.0,-6.5283,-6.4897,0.0,0.0,0.0,0.0,0.0,0.0,0.0,0.0,0.0,0.0,0.0,0.0,0.0,0.0,0.0,0.0,0.0,0.0,0.0,0.0,0.0,0.0,0.0,0.0,0.0,0.0,0.0,0.0,0.0,0.0,0.0,0.0,0.0,0.0,0.0,0.0,0.0,0.0,0.0,0.0,0.0,0.0,0.0,0.0,0.0,0.0,0.0,0.0,0.0,0.0,0.0,0.0,0.0,0.0,0.0,-4.445,-4.7246,-5.0315,-5.3529,-5.4729,-5.5022,-5.4158,-5.3971,-5.2135,-4.8558,0.0,0.0,0.0,0.0,0.0,0.0,0.0,0.0,0.0,0.0,0.0,0.0,0.0,0.0,0.0,0.0,0.0,0.0,0.0,0.0,0.0,0.0,0.0,0.0,0.0,0.0,0.0,0.0,0.0,0.0,0.0,0.0,0.0,0.0,0.0,0.0,0.0,0.0,0.0,-5.6108,-5.8403,0.0,0.0,0.0,0.0,0.0,0.0,0.0,0.0,-6.3429,0.0,0.0,0.0,0.0,0.0,0.0,0.0,0.0,0.0,0.0,0.0,0.0,0.0,0.0,0.0,0.0,0.0,0.0,0.0,0.0,0.0,0.0,0.0,0.0,0.0,0.0,0.0,0.0,0.0,0.0,0.0,0.0,0.0,0.0,0.0,0.0,0.0,0.0,0.0,0.0,0.0,0.0,0.0,0.0,0.0,0.0,0.0,0.0,0.0,0.0,0.0,0.0,0.0,0.0,0.0,0.0,-4.5884,-4.9407,-5.2703,-5.4575,-5.535,-5.5163,-5.4344,-5.2281,-4.8789,0.0,0.0,0.0,0.0,0.0,0.0,0.0,0.0,0.0,0.0,0.0,0.0,0.0,0.0,0.0,0.0,0.0,0.0,0.0,0.0,0.0,0.0,0.0,0.0,0.0,0.0,0.0,0.0,0.0,0.0,0.0,0.0,0.0,0.0,0.0,0.0,0.0,0.0,-4.9195,-5.3243,0.0,0.0,0.0,0.0,0.0,0.0,0.0,0.0,-6.1198,0.0,0.0,0.0,0.0,0.0,0.0,0.0,0.0,0.0,0.0,0.0,0.0,0.0,0.0,0.0,0.0,0.0,0.0,0.0,0.0,0.0,0.0,0.0,0.0,0.0,0.0,0.0,0.0,0.0,0.0,0.0,0.0,0.0,0.0,0.0,0.0,0.0,0.0,0.0,0.0,0.0,0.0,0.0,0.0,0.0,0.0,0.0,0.0,0.0,0.0,0.0,0.0,0.0,0.0,0.0,0.0,0.0,0.0,-4.8045,-5.0997,-5.46,-5.5753,-5.4555,-5.2375,-5.0205,0.0,0.0,0.0,0.0,0.0,0.0,0.0,0.0,0.0,0.0,0.0,0.0,0.0,0.0,0.0,0.0,0.0,0.0,0.0,0.0,0.0,0.0,0.0,0.0,0.0,0.0,0.0,0.0,0.0,0.0,0.0,0.0,0.0,0.0,0.0,0.0,0.0,0.0,0.0,0.0,0.0,0.0,0.0,0.0,0.0,0.0,0.0,0.0,0.0,0.0,0.0,0.0,0.0,0.0,0.0,0.0,0.0,0.0,0.0,0.0,0.0,0.0,0.0,0.0,0.0,0.0,0.0,0.0,0.0,0.0,0.0,0.0,0.0,0.0,0.0,0.0,0.0,0.0,0.0,0.0,0.0,0.0,0.0,0.0,0.0,0.0,0.0,0.0,0.0,0.0,0.0,0.0,0.0,0.0,0.0,0.0,0.0,0.0,0.0,0.0,0.0,0.0,0.0,0.0,0.0,0.0,0.0,0.0,-4.6288,-4.9437,-5.3549,-5.5108,-5.3877,-5.0651,-4.8137,0.0,0.0,0.0,0.0,0.0,0.0,0.0,0.0,0.0,0.0,0.0,0.0,0.0,0.0,0.0,0.0,0.0,0.0,0.0,0.0,0.0,0.0,0.0,0.0,0.0,0.0,0.0,0.0,0.0,0.0,0.0,0.0,0.0,0.0,0.0,0.0,0.0,0.0,0.0,0.0,0.0,0.0,0.0,0.0,0.0,0.0,0.0,0.0,-5.4564,0.0,0.0,0.0,0.0,0.0,0.0,0.0,0.0,0.0,0.0,0.0,0.0,0.0,0.0,0.0,0.0,0.0,0.0,0.0,0.0,0.0,0.0,0.0,0.0,0.0,0.0,0.0,0.0,0.0,0.0,0.0,0.0,0.0,0.0,0.0,0.0,0.0,0.0,0.0,0.0,0.0,0.0,0.0,0.0,0.0,0.0,0.0,0.0,0.0,0.0,0.0,0.0,0.0,0.0,0.0,0.0,0.0,0.0,0.0,-4.4115,-4.8235,-5.0333,-5.2199,-5.3667,-5.0621,-4.7836,0.0,0.0,0.0,0.0,0.0,0.0,0.0,0.0,0.0,0.0,0.0,0.0,0.0,0.0,0.0,0.0,0.0,0.0,0.0,0.0,0.0,0.0,0.0,0.0,0.0,0.0,0.0,0.0,0.0,0.0,0.0,0.0,0.0,0.0,0.0,0.0,0.0,0.0,0.0,0.0,0.0,0.0,0.0,0.0,0.0,0.0,0.0,0.0,0.0,0.0,0.0,0.0,0.0,0.0,0.0,0.0,0.0,0.0,0.0,0.0,0.0,0.0,0.0,0.0,0.0,0.0,0.0,0.0,0.0,0.0,0.0,0.0,0.0,0.0,0.0,0.0,0.0,0.0,0.0,0.0,0.0,0.0,0.0,0.0,0.0,0.0,0.0,0.0,0.0,0.0,0.0,0.0,0.0,0.0,0.0,0.0,0.0,0.0,0.0,0.0,0.0,0.0,0.0,0.0,0.0,0.0,0.0,0.0,-4.2832,-4.6426,-4.981,-5.098,-4.9714,-4.6448,-4.4053,0.0,0.0,0.0,0.0,0.0,0.0,0.0,0.0,0.0,0.0,0.0,0.0,0.0,0.0,0.0,0.0,0.0,0.0,0.0,0.0,0.0,0.0,0.0,0.0,0.0,0.0,0.0,0.0,0.0,0.0,0.0,0.0,0.0,0.0,0.0,0.0,0.0,0.0,0.0,0.0,0.0,0.0,0.0,0.0,0.0,0.0,0.0,0.0,0.0,0.0,0.0,0.0,0.0,0.0,0.0,0.0,0.0,0.0,0.0,0.0,0.0,0.0,0.0,0.0,0.0,0.0,0.0,0.0,0.0,0.0,0.0,0.0,0.0,0.0,0.0,0.0,0.0,0.0,0.0,0.0,0.0,0.0,0.0,0.0,0.0,0.0,0.0,0.0,0.0,0.0,0.0,0.0,0.0,0.0,0.0,0.0,0.0,0.0,0.0,0.0,0.0,0.0,0.0,0.0,0.0,0.0,0.0,0.0,0.0,-4.4002,-4.7241,-4.7589,-4.4926,-4.2535,-4.0659,0.0,0.0,0.0,0.0,0.0,0.0,0.0,0.0,0.0,0.0,0.0,0.0,0.0,0.0,0.0,0.0,0.0,0.0,0.0,0.0,0.0,0.0,0.0,0.0,0.0,0.0,0.0,0.0,0.0,0.0,0.0,0.0,0.0,0.0,0.0,0.0,0.0,0.0,0.0,0.0,0.0,0.0,0.0,0.0,0.0,0.0,0.0,0.0,0.0,0.0,0.0,0.0,0.0,0.0,0.0,0.0,0.0,0.0,0.0,0.0,0.0,0.0,0.0,0.0,0.0,0.0,0.0,0.0,0.0,0.0,0.0,0.0,0.0,0.0,0.0,0.0,0.0,0.0,0.0,0.0,0.0,0.0,0.0,0.0,0.0,0.0,0.0,0.0,0.0,0.0,0.0,0.0,0.0,0.0,0.0,0.0,0.0,0.0,0.0,0.0,0.0,0.0,0.0,0.0,0.0,0.0,0.0,0.0,0.0,-4.0942,-4.0544,-4.0266,-4.0274,-3.9878,-3.8727,0.0,0.0,0.0,0.0,0.0,0.0,0.0,0.0,0.0,0.0,0.0,0.0,0.0,0.0,0.0,0.0,0.0,0.0,0.0,0.0,0.0,0.0,0.0,0.0,0.0,0.0,0.0,0.0,0.0,0.0,0.0,0.0,0.0,0.0,0.0,0.0,0.0,0.0,0.0,0.0,0.0,0.0,0.0,0.0,0.0,0.0,0.0,0.0,0.0,0.0,0.0,0.0,0.0,0.0,0.0,0.0,0.0,0.0,0.0,0.0,0.0,0.0,0.0,0.0,0.0,0.0,0.0,0.0,0.0,0.0,0.0,0.0,0.0,0.0,0.0,0.0,0.0,0.0,0.0,0.0,0.0,0.0,0.0,0.0,0.0,0.0,0.0,0.0,0.0,0.0,0.0,0.0,0.0,0.0,0.0,0.0,0.0,0.0,0.0,0.0,0.0,0.0,0.0,0.0,0.0,0.0,0.0,0.0,0.0,-3.4784,-3.5672,-3.6569,-3.7406,-3.6729,-3.5773,-3.4258,0.0,0.0,0.0,0.0,0.0,0.0,0.0,0.0,0.0,0.0,0.0,0.0,0.0,0.0,0.0,0.0,0.0,0.0,0.0,0.0,0.0,0.0,0.0,0.0,0.0,0.0,0.0,0.0,0.0,0.0,0.0,0.0,0.0,0.0,0.0,0.0,0.0,0.0,0.0,0.0,0.0,0.0,0.0,0.0,0.0,0.0,0.0,0.0,0.0,0.0,0.0,0.0,0.0,0.0,0.0,0.0,0.0,0.0,0.0,0.0,0.0,0.0,0.0,0.0,0.0,0.0,0.0,0.0,0.0,0.0,0.0,0.0,0.0,0.0,0.0,0.0,0.0,0.0,0.0,0.0,0.0,0.0,0.0,0.0,0.0,0.0,0.0,0.0,0.0,0.0,0.0,0.0,0.0,0.0,0.0,0.0,0.0,0.0,0.0,0.0,0.0,0.0,0.0,0.0,0.0,0.0,0.0,0.0,-3.0071,-3.2021,-3.3466,-3.4333,-3.3777,-3.2994,0.0,0.0,0.0,0.0,0.0,0.0,0.0,0.0,0.0,0.0,0.0,0.0,0.0,0.0,0.0,0.0,0.0,0.0,0.0,0.0,0.0,0.0,0.0,0.0,0.0,0.0,0.0,0.0,0.0,0.0,0.0,0.0,0.0,0.0,0.0,0.0,0.0,0.0,0.0,0.0,0.0,0.0,0.0,0.0,0.0,0.0,0.0,0.0,0.0,0.0,0.0,0.0,0.0,0.0,0.0,0.0,0.0,0.0,0.0,0.0,0.0,0.0,0.0,0.0,0.0,0.0,0.0,0.0,0.0,0.0,0.0,0.0,0.0,0.0,0.0,0.0,0.0,0.0,0.0,0.0,0.0,0.0,0.0,0.0,0.0,0.0,0.0,0.0,0.0,0.0,0.0,0.0,0.0,0.0,0.0,0.0,0.0,0.0,0.0,0.0,0.0,0.0,0.0,0.0,0.0,0.0,0.0,0.0,-2.3514,-2.7396,-2.9464,-3.0558,-3.1007,-3.1027,-3.067,0.0,0.0,0.0,0.0,0.0,0.0,0.0,0.0,0.0,0.0,0.0,0.0,0.0,0.0,0.0,0.0,0.0,0.0,0.0,0.0,0.0,0.0,0.0,0.0,0.0,0.0,0.0,0.0,0.0,0.0,0.0,0.0,0.0,0.0,0.0,0.0,0.0,0.0,0.0,0.0,0.0,0.0,0.0,0.0,0.0,0.0,0.0,0.0,0.0,0.0,0.0,0.0,0.0,0.0,0.0,0.0,0.0,0.0,0.0,0.0,0.0,0.0,0.0,0.0,0.0,0.0,0.0,0.0,0.0,0.0,0.0,0.0,0.0,0.0,0.0,0.0,0.0,0.0,0.0,0.0,0.0,0.0,0.0,0.0,0.0,0.0,0.0,0.0,0.0,0.0,0.0,0.0,0.0,0.0,0.0,0.0,0.0,0.0,0.0,0.0,0.0,0.0,0.0,0.0,0.0,0.0,0.0,0.0,0.0,-2.4037,0.0,-2.8435,-2.9026,-2.9273,-2.9159,0.0,0.0,0.0,0.0,0.0,0.0,0.0,0.0,0.0,0.0,0.0,0.0,0.0,0.0,0.0,0.0,0.0,0.0,0.0,0.0,0.0,0.0,0.0,0.0,0.0,0.0,0.0,0.0,0.0,0.0,0.0,0.0,0.0,0.0,0.0,0.0,0.0,0.0,0.0,0.0,0.0,0.0,0.0,0.0,0.0,0.0,0.0,0.0,0.0,0.0,0.0,0.0,0.0,0.0,0.0,0.0,0.0,0.0,0.0,0.0,0.0,0.0,0.0,0.0,0.0,0.0,0.0,0.0,0.0,0.0,0.0,0.0,0.0,0.0,0.0,0.0,0.0,0.0,0.0,0.0,0.0,0.0,0.0,0.0,0.0,0.0,0.0,0.0,0.0,0.0,0.0,0.0,0.0,0.0,0.0,0.0,0.0,0.0,0.0,0.0,0.0,0.0,0.0,0.0,0.0,0.0,0.0,0.0,0.0,-2.128,-2.3917,-2.5844,-2.6948,-2.7298,-2.7298,0.0,0.0,0.0,0.0,0.0,0.0,0.0,0.0,0.0,0.0,0.0,0.0,0.0,0.0,0.0,0.0,0.0,0.0,0.0,0.0,0.0,0.0,0.0,0.0,0.0,0.0,0.0,0.0,0.0,0.0,0.0,0.0,0.0,0.0,0.0,0.0,0.0,0.0,0.0,0.0,0.0,0.0,0.0,0.0,0.0,0.0,0.0,0.0,0.0,0.0,0.0,0.0,0.0,0.0,0.0,0.0,0.0,0.0,0.0,0.0,0.0,0.0,0.0,0.0,0.0,0.0,0.0,0.0,0.0,0.0,0.0,0.0,0.0,0.0,0.0,0.0,0.0,0.0,0.0,0.0,0.0,0.0,0.0,0.0,0.0,0.0,0.0,0.0,0.0,0.0,0.0,0.0,0.0,0.0,0.0,0.0,0.0,0.0,0.0,0.0,0.0,0.0,0.0,0.0,0.0,0.0,0.0,0.0,0.0,-1.9209,-2.1063,-2.2748,-2.4559,-2.5034,-2.5168,0.0,0.0,0.0,0.0,0.0,0.0,0.0,0.0,0.0,0.0,0.0,0.0,0.0,0.0,0.0,0.0,0.0,0.0,0.0,0.0,0.0,0.0,0.0,0.0,0.0,0.0,0.0,0.0,0.0,0.0,0.0,0.0,0.0,0.0,0.0,0.0,0.0,0.0,0.0,0.0,0.0,0.0,0.0,0.0,0.0,0.0,0.0,0.0,0.0,0.0,0.0,0.0,0.0,0.0,0.0,0.0,0.0,0.0,0.0,0.0,0.0,0.0,0.0,0.0,0.0,0.0,0.0,0.0,0.0,0.0,0.0,0.0,0.0,0.0,0.0,0.0,0.0,0.0,0.0,0.0,0.0,0.0,0.0,0.0,0.0,0.0,0.0,0.0,0.0,0.0,0.0,0.0,0.0,0.0,0.0,0.0,0.0,0.0,0.0,0.0,0.0,0.0,0.0,0.0,0.0,0.0,0.0,0.0,0.0,0.0,-1.9172,-2.0683,-2.2023,-2.2748,-2.3109,-2.3229,0.0,0.0,0.0,0.0,0.0,0.0,0.0,0.0,0.0,0.0,0.0,0.0,0.0,0.0,0.0,0.0,0.0,0.0,0.0,0.0,0.0,0.0,0.0,0.0,0.0,0.0,0.0,0.0,0.0,0.0,0.0,0.0,0.0,0.0,0.0,0.0,0.0,0.0,0.0,0.0,0.0,0.0,0.0,0.0,0.0,0.0,0.0,0.0,0.0,0.0,0.0,0.0,0.0,0.0,0.0,0.0,0.0,0.0,0.0,0.0,0.0,0.0,0.0,0.0,0.0,0.0,0.0,0.0,0.0,0.0,0.0,0.0,0.0,0.0,0.0,0.0,0.0,0.0,0.0,0.0,0.0,0.0,0.0,0.0,0.0,0.0,0.0,0.0,0.0,0.0,0.0,0.0,0.0,0.0,0.0,0.0,0.0,0.0,0.0,0.0,0.0,0.0,0.0,0.0,0.0,0.0,0.0,0.0,0.0,0.0,-1.8478,-1.9603,-2.0587,-2.1321,0.0,0.0,0.0,0.0,0.0,0.0,0.0,0.0,0.0,0.0,0.0,0.0,0.0,0.0,0.0,0.0,0.0,0.0,0.0,0.0,0.0,0.0,0.0,0.0,0.0,0.0,0.0,0.0,0.0,0.0,0.0,0.0,0.0,0.0,0.0,0.0,0.0,0.0,0.0,0.0,0.0,0.0,0.0,0.0,0.0,0.0,0.0,0.0,0.0,0.0,0.0,0.0,0.0,0.0,0.0,0.0,0.0,0.0,0.0,0.0,0.0,0.0,0.0,0.0,0.0,0.0,0.0,0.0,0.0,0.0,0.0,0.0,0.0,0.0,0.0,0.0,0.0,0.0,0.0,0.0,0.0,0.0,0.0,0.0,0.0,0.0,0.0,0.0,0.0,0.0,0.0,0.0,0.0,0.0,0.0,0.0,0.0,0.0,0.0,0.0,0.0,0.0,0.0,0.0,0.0,0.0,0.0,0.0,0.0,0.0,0.0,-1.6252,-1.7266,-1.8525,0.0,-2.0121,0.0,0.0,0.0,0.0,0.0,0.0,0.0,0.0,0.0,0.0,0.0,0.0,0.0,0.0,0.0,0.0,0.0,0.0,0.0,0.0,0.0,0.0,0.0,0.0,0.0,0.0,0.0,0.0,0.0,0.0,0.0,0.0,0.0,0.0,0.0,0.0,0.0,0.0,0.0,0.0,0.0,0.0,0.0,0.0,0.0,0.0,0.0,0.0,0.0,0.0,0.0,0.0,0.0,0.0,0.0,0.0,0.0,0.0,0.0,0.0,0.0,0.0,0.0,0.0,0.0,0.0,0.0,0.0,0.0,0.0,0.0,0.0,0.0,0.0,0.0,0.0,0.0,0.0,0.0,0.0,0.0,0.0,0.0,0.0,0.0,0.0,0.0,0.0,0.0,0.0,0.0,0.0,0.0,0.0,0.0,0.0,0.0,0.0,0.0,0.0,0.0,0.0,0.0,0.0,0.0,0.0,0.0,0.0,0.0,0.0,0.0,0.0,-1.6377,-1.7015,-1.7402,0.0,0.0,0.0,0.0,0.0,0.0,0.0,0.0,0.0,0.0,0.0,0.0,0.0,0.0,0.0,0.0,0.0,0.0,0.0,0.0,0.0,0.0,0.0,0.0,0.0,0.0,0.0,0.0,0.0,0.0,0.0,0.0,0.0,0.0,0.0,0.0,0.0,0.0,0.0,0.0,0.0,0.0,0.0,0.0,0.0,0.0,0.0,0.0,0.0,0.0,0.0,0.0,0.0,0.0,0.0,0.0,0.0,0.0,0.0,0.0,0.0,0.0,0.0,0.0,0.0,0.0,0.0,0.0,0.0,0.0,0.0,0.0,0.0,0.0,0.0,0.0,0.0,0.0,0.0,0.0,0.0,0.0,0.0,0.0,0.0,0.0,0.0,0.0,0.0,0.0,0.0,0.0,0.0,0.0,0.0,0.0,0.0,0.0,0.0,0.0,0.0,0.0,0.0,0.0,0.0,0.0,0.0,0.0,0.0,0.0,-1.244,-1.3587,-1.4358,-1.5,-1.5379,0.0,0.0,0.0,0.0,0.0,0.0,0.0,0.0,0.0,0.0,0.0,0.0,0.0,0.0,0.0,0.0,0.0,0.0,0.0,0.0,0.0,0.0,0.0,0.0,0.0,0.0,0.0,0.0,0.0,0.0,0.0,0.0,0.0,0.0,0.0,0.0,0.0,0.0,0.0,0.0,0.0,0.0,0.0,0.0,0.0,0.0,0.0,0.0,0.0,0.0,0.0,0.0,0.0,0.0,0.0,0.0,0.0,0.0,0.0,0.0,0.0,0.0,0.0,0.0,0.0,0.0,0.0,0.0,0.0,0.0,0.0,0.0,0.0,0.0,0.0,0.0,0.0,0.0,0.0,0.0,0.0,0.0,0.0,0.0,0.0,0.0,0.0,0.0,0.0,0.0,0.0,0.0,0.0,0.0,0.0,0.0,0.0,0.0,0.0,0.0,0.0,0.0,0.0,0.0,0.0,0.0,0.0,0.0,0.0,0.0,0.0,0.0,0.0,0.0,-1.3477,0.0,0.0,0.0,0.0,0.0,0.0,0.0,0.0,0.0,0.0,0.0,0.0,0.0,0.0,0.0,0.0,0.0,0.0,0.0,0.0,0.0,0.0,0.0,0.0,0.0,0.0,0.0,0.0,0.0,0.0,0.0,0.0,0.0,0.0,0.0,0.0,0.0,0.0,0.0,0.0,0.0,0.0,0.0,0.0,0.0,0.0,0.0,0.0,0.0,0.0,0.0,0.0,0.0,0.0,0.0,0.0,0.0,0.0,0.0,0.0,0.0,0.0,0.0,0.0,0.0,0.0,0.0,0.0,0.0,0.0,0.0,0.0,0.0,0.0,0.0,0.0,0.0,0.0,0.0,0.0,0.0,0.0,0.0,0.0,0.0,0.0,0.0,0.0,0.0,0.0,0.0,0.0,0.0,0.0,0.0,0.0,0.0,0.0,0.0,0.0,0.0,0.0,0.0,0.0,0.0,0.0,0.0,0.0,0.0,0.0,0.0,0.0,0.0,0.0,0.0,0.0,0.0,0.0,0.0,0.0,0.0,0.0,0.0,0.0,0.0,0.0,0.0,0.0,0.0,0.0,0.0,0.0,0.0,0.0,0.0,0.0,0.0,0.0,0.0,0.0,0.0,0.0,0.0,0.0,0.0,0.0,0.0,0.0,0.0,0.0,0.0,0.0,0.0,0.0,0.0,0.0,0.0,0.0,0.0,0.0,0.0,0.0,0.0,0.0,0.0,0.0,0.0,0.0,0.0,0.0,0.0,0.0,0.0,0.0,0.0,0.0,0.0,0.0,0.0,0.0,0.0,0.0,0.0,0.0,0.0,0.0,0.0,0.0,0.0,0.0,0.0,0.0,0.0,0.0,0.0,0.0,0.0,0.0,0.0,0.0,0.0,0.0,0.0,0.0,0.0,0.0,0.0,0.0,0.0,0.0,0.0,0.0,0.0,0.0,0.0,0.0,0.0,0.0,0.0,0.0,0.0,0.0,0.0,0.0,0.0,0.0,0.0,0.0,0.0,0.0,0.0,0.0,0.0,0.0,0.0,0.0,0.0,0.0,0.0,0.0,0.0,0.0,0.0,0.0,0.0,0.0,0.0,0.0,0.0,0.0,0.0,0.0,0.0,0.0,0.0,0.0,0.0,0.0,0.0,0.0,0.0,0.0,0.0,0.0,0.0,0.0,0.0,0.0,0.0,0.0,0.0,0.0,0.0,0.0,0.0,0.0,0.0,0.0,0.0,0.0,0.0,0.0,0.0,0.0,0.0,0.0,0.0,0.0,0.0,0.0,0.0,0.0,0.0,0.0,0.0,0.0,0.0,0.0,0.0,0.0,0.0,0.0,0.0,0.0,0.0,0.0,0.0,0.0,0.0,0.0,0.0,0.0,0.0,0.0,0.0,0.0,0.0,0.0,0.0,0.0,0.0,0.0,0.0,0.0,0.0,0.0,0.0,0.0,0.0,0.0,0.0,0.0,0.0,0.0,0.0,0.0,0.0,0.0,0.0,0.0,0.0,0.0,0.0,0.0,0.0,0.0,0.0,0.0,0.0,0.0,0.0,0.0,0.0,0.0,0.0,0.0,0.0,0.0,0.0,0.0,0.0,0.0,0.0,0.0,0.0,0.0,0.0,0.0,0.0,0.0,0.0,0.0,0.0,0.0,0.0,0.0,0.0,0.0,0.0,0.0,0.0,0.0,0.0,0.0,0.0,0.0,0.0,0.0,0.0,0.0,0.0,0.0,0.0,0.0,0.0,0.0,0.0,0.0,0.0,0.0,0.0,0.0,0.0,0.0,0.0,0.0,0.0,0.0,0.0,0.0,0.0,0.0,0.0,0.0,0.0,0.0,0.0,0.0,0.0,0.0,0.0,0.0,0.0,0.0,0.0,0.0,0.0,0.0,0.0,0.0,0.0,0.0,0.0,0.0,0.0,0.0,0.0,0.0,0.0,0.0,0.0,0.0,0.0,0.0,0.0,0.0,0.0,0.0,0.0,0.0,0.0,0.0,0.0,0.0,0.0,0.0,0.0,0.0,0.0,0.0,0.0,0.0,0.0,0.0,0.0,0.0,0.0,0.0,0.0,0.0,0.0,0.0,0.0,0.0,0.0,0.0,0.0,0.0,0.0,0.0,0.0,0.0,0.0,0.0,0.0,0.0,0.0,0.0,0.0,0.0,0.0,0.0,0.0,0.0,0.0,0.0,0.0,0.0,0.0,0.0,0.0,0.0,0.0,0.0,0.0,0.0,0.0,0.0,0.0,0.0,0.0,0.0,0.0,0.0,0.0,0.0,0.0,0.0,0.0,0.0,0.0,0.0,0.0,0.0,0.0,0.0,0.0,0.0,0.0,0.0,0.0,0.0,0.0,0.0,0.0,0.0,0.0,0.0,0.0,0.0,0.0,0.0,0.0,0.0,0.0,0.0,0.0,0.0,0.0,0.0,0.0,0.0,0.0,0.0,0.0,0.0,0.0,0.0,0.0,0.0,0.0,0.0,0.0,0.0,0.0,0.0,0.0,0.0,0.0,0.0,0.0,0.0,0.0,0.0,0.0,0.0,0.0,0.0,0.0,0.0,0.0,0.0,0.0,0.0,0.0,0.0,0.0,0.0,0.0,0.0,0.0,0.0,0.0,0.0,0.0,0.0,0.0,0.0,0.0,0.0,0.0,0.0,0.0,0.0,0.0,0.0,0.0,0.0,0.0,0.0,0.0,0.0,0.0,0.0,0.0,0.0,0.0,0.0,0.0,0.0,0.0,0.0,0.0,0.0,0.0,0.0,0.0,0.0,0.0,0.0,0.0,0.0,0.0,0.0,0.0,0.0,0.0,0.0,0.0,0.0,0.0,0.0,0.0,0.0,0.0,0.0,0.0,0.0,0.0,0.0,0.0,0.0,0.0,0.0,0.0,0.0,0.0,0.0,0.0,0.0,0.0,0.0,0.0,0.0,0.0,0.0,0.0,0.0,0.0,0.0,0.0,0.0,0.0,0.0,0.0,0.0,0.0,0.0,0.0,0.0,0.0,0.0,0.0,0.0,0.0,0.0,0.0,0.0,0.0,0.0,0.0,0.0,0.0,0.0,0.0,0.0,0.0,0.0,0.0,0.0,0.0,0.0,0.0,0.0,0.0,0.0,0.0,0.0,0.0,0.0,0.0,0.0,0.0,0.0,0.0,0.0,0.0,0.0,0.0,0.0,0.0,0.0,0.0,0.0,0.0,0.0,0.0,0.0,0.0,0.0,0.0,0.0,0.0,0.0,0.0,0.0,0.0,0.0,0.0,0.0,0.0,0.0,0.0,0.0,0.0,0.0,0.0,0.0,0.0,0.0,0.0,0.0,0.0,0.0,0.0,0.0,0.0,0.0,0.0,0.0,0.0,0.0,0.0,0.0,0.0,0.0,0.0,0.0,0.0,0.0,0.0,0.0,0.0,0.0,0.0,0.0,0.0,0.0,0.0,0.0,0.0,0.0,0.0,0.0,0.0,0.0,0.0,0.0,0.0,0.0,0.0,0.0,0.0,0.0,0.0,0.0,0.0,0.0,0.0,0.0,0.0,0.0,0.0,0.0,0.0,0.0,0.0,0.0,0.0,0.0,0.0,0.0,0.0,0.0,0.0,0.0,0.0,0.0,0.0,0.0,0.0,0.0,0.0,0.0,0.0,0.0,0.0,0.0,0.0,0.0,0.0,0.0,0.0,0.0,0.0,0.0,0.0,0.0,0.0,0.0,0.0,0.0,0.0,0.0,0.0,0.0,0.0,0.0,0.0,0.0,0.0,0.0,0.0,0.0,0.0,0.0,0.0,0.0,0.0,0.0,0.0,0.0,0.0,0.0,0.0,0.0,0.0,0.0,0.0,0.0,0.0,0.0,0.0,0.0,0.0,0.0,0.0,0.0,0.0,0.0,0.0,0.0,0.0,0.0,0.0,0.0,0.0,0.0,0.0,0.0,0.0,0.0,0.0,0.0,0.0,0.0,0.0,0.0,0.0,0.0,0.0,0.0,0.0,0.0,0.0,0.0,0.0,0.0,0.0,0.0,0.0,0.0,0.0,0.0,0.0,0.0,0.0,0.0,0.0,0.0,0.0,0.0,0.0,0.0,0.0,0.0,0.0,0.0,0.0,0.0,0.0,0.0,0.0,0.0,0.0,0.0,0.0,0.0,0.0,0.0,0.0,0.0,0.0,0.0,0.0,0.0,0.0,0.0,0.0,0.0,0.0,0.0,0.0,0.0,0.0,0.0,0.0,0.0,0.0,0.0,0.0,0.0,0.0,0.0,0.0,0.0,0.0,0.0,0.0,0.0,0.0,0.0,0.0,0.0,0.0,0.0,0.0,0.0,0.0,0.0,0.0,0.0,0.0,0.0,0.0,0.0,0.0,0.0]}],[{"header":{"parameterUnit":"kt","parameterCategory":2,"dx":1,"dy":1,"la1":29.587661999999998,"la2":31.0,"lo1":-88.76705300000003,"lo2":-86.6583820000003,"nx":115,"ny":88,"refTime":"2022-09-22T06:00:00:Z","depth":0,"parameterNumber":2,"parameterNumberName":"V-component_of_WINDS"},"data":[1.6645,1.2973,0.6907,0.3057,0.0279,-0.7968,-1.4758,-1.9819,-2.5129,-2.6197,-2.5399,-2.8762,-3.3112,-3.6203,-3.8684,-3.842,-3.6813,-3.8185,-3.7223,-3.6042,-3.6537,-3.4967,-3.4582,-3.6132,-3.3528,-3.2659,-3.2725,-3.2505,-2.9487,-2.9323,-2.8122,-2.3407,-2.3339,-1.8892,-0.9537,-0.918,-0.886,-0.6686,-0.3575,-0.0341,-0.2753,-0.5351,-0.8136,-0.5195,0.244,0.5452,0.8982,1.0988,1.2802,1.5697,2.1383,2.5102,2.7881,3.0553,3.1853,3.3142,3.2421,3.173,3.2742,3.2803,3.4228,3.4629,3.6518,3.5818,3.635,3.6804,2.95,2.7199,2.0831,1.1756,0.8986,0.2357,0.0283,-0.087,-0.1478,-0.015,0.0453,-0.1062,-0.2129,-0.1825,-0.1672,-0.0899,0.0441,-0.0147,-0.1035,-0.117,-0.0284,-0.0851,0.1248,0.1272,0.1709,0.6058,1.0536,0.3748,-0.1327,-0.1174,-0.0294,-0.0601,0.1803,0.7753,0.9082,0.3947,0.563,1.168,1.1478,1.0848,1.1642,1.3181,1.4911,1.5761,1.7575,1.9116,1.9485,2.0044,2.0649,-0.5716,-1.5521,-1.6405,-2.0327,-2.6491,-2.7038,-2.9392,-3.408,-3.8693,-3.7991,-3.5643,-4.2928,-4.6382,-4.7314,-4.7685,-4.6994,-4.6865,-4.7757,-4.8241,-4.7766,-4.8061,-4.6315,-4.6625,-4.8011,-4.6824,-4.5786,-4.4347,-4.2592,-4.0704,-3.7598,-3.5169,-3.2801,-3.166,-3.1118,-3.1764,-3.0821,-2.7696,-2.4433,-2.2069,-2.0128,-2.2097,-2.477,-2.7776,-2.936,-2.7406,-2.211,-1.4069,-0.7034,0.141,0.5796,1.0848,1.2778,1.4846,1.5684,1.7559,1.7946,1.7184,1.7646,1.8967,1.8878,2.1112,2.417,2.8488,2.988,3.0419,2.5551,1.4903,0.9128,0.3583,-0.1252,-0.1261,-0.3426,-0.3465,-0.3963,-0.4025,-0.3632,-0.3788,-0.44,-0.4559,-0.4559,-0.486,-0.5163,-0.4823,-0.5129,-0.5891,-0.6494,-0.7077,-0.8029,-0.7564,-0.4328,-0.3411,-0.1143,0.1656,-0.0142,-0.4037,-0.3911,-0.2401,-0.2592,-0.2136,0.0305,0.2288,0.3352,0.5017,0.7425,0.8641,0.943,1.0219,1.1302,1.0817,1.1255,1.3545,1.5732,1.6395,1.7377,1.7717,-1.6361,-2.1432,-2.4908,-2.8372,-3.2165,-3.7845,-4.1254,-4.3757,-4.761,-4.9533,-5.0954,-5.4067,-5.6303,-5.6261,-5.6212,-5.5975,-5.6163,-5.6575,-5.6024,-5.5783,-5.5451,-5.549,-5.4798,-5.4067,-5.4886,-5.4407,-5.2414,-5.1134,-4.9044,-4.5517,-4.2186,-4.0108,-3.9818,-3.861,-3.5894,-3.6298,-3.5494,-3.6916,-3.5001,-3.4891,-3.6668,-3.7177,-3.9861,-3.6511,-3.4762,-3.2642,-2.7466,-2.6597,-2.1773,-1.7971,-1.3163,-1.0166,-0.445,-0.1801,-0.0657,0.0333,0.0891,-0.0231,-0.069,-0.0701,0.0119,0.1324,0.4853,0.883,1.0859,1.0414,-0.0243,-0.0125,-0.5711,-0.6631,-0.6679,-0.5645,-0.5572,-0.5777,-0.601,-0.592,-0.6081,-0.643,-0.6637,-0.6498,-0.6512,-0.681,-0.6817,-0.6968,-0.7429,-0.7878,-0.6512,-0.6512,-0.698,-0.5427,-0.7242,-0.7287,-0.6027,-0.7042,-0.774,-0.653,-0.5017,-0.4414,-0.4113,-0.198,0.0,0.213,0.3954,0.4852,0.5756,0.7282,0.8952,1.032,1.0117,0.964,1.1105,1.2585,1.3717,1.4867,1.4184,-2.9229,-3.271,-3.7595,-3.9304,-4.0369,-4.8786,-5.2346,-5.2223,-5.5636,-5.923,-6.2477,-6.2346,-6.2057,-6.1719,-6.1649,-6.1451,-6.1867,-6.1247,-6.2111,-6.123,-6.124,-6.0595,-5.9674,-5.977,-5.9402,-5.8944,-5.8741,-5.8253,-5.6501,-5.4343,-5.1515,-4.8048,-4.7713,-4.7469,-4.5052,-4.488,-4.4767,-4.509,-4.4809,-4.5987,-4.7527,-4.7819,-4.7182,-4.3752,-4.1313,-4.1167,-4.0717,-4.0829,-4.0833,-4.114,-4.1379,-3.7205,-3.0492,-2.5855,-2.258,-2.0597,-1.8472,-1.7932,-1.7474,-1.6015,-1.4025,-1.3849,-1.2162,-1.2362,-1.228,-1.2118,-1.1289,-0.9852,-0.9615,-0.9651,-0.932,-0.7963,-0.6969,-0.7328,-0.7693,-0.7582,-0.7613,-0.7903,-0.8356,-0.8099,-0.7831,-0.7693,-0.7551,-0.7706,-0.8171,-0.8166,-0.7706,-0.756,-0.8792,-0.939,-1.1342,-1.1361,-1.1054,-1.0598,-1.0303,-0.94,-0.7589,-0.6688,-0.5627,-0.426,-0.274,-0.1064,0.0608,0.1669,0.2881,0.4405,0.6075,0.8033,0.9299,0.943,1.0296,1.0438,1.1421,1.1601,1.0657,-5.2785,-6.3242,-6.4963,-6.2125,-6.2511,-6.2395,-6.2524,-6.2238,-6.4051,-6.6161,-6.6151,-6.5066,-6.4575,-6.4826,-6.4721,-6.4431,-6.4505,-6.5056,-6.5095,-6.4434,-6.4983,-6.5192,-6.4714,-6.5356,-6.4998,-6.5405,-6.5033,-6.3489,-6.3006,-5.9437,-5.6021,-5.5871,-5.5144,-5.4654,-5.4259,-5.448,-5.3427,-5.2636,-5.2987,-5.3249,-5.4991,-5.5295,-5.4748,-5.3246,-5.2104,-5.1292,-5.0459,-4.8685,-4.6122,-4.4433,-4.2899,-4.0659,-3.7444,-3.4929,-3.1971,-3.0005,-2.7958,-2.7387,-2.6277,-2.4489,-2.2708,-2.0413,-1.7944,-1.5439,-1.5037,-1.5311,-1.5447,-1.4549,-1.2816,-1.2606,-1.2531,-1.1368,-1.1179,-1.1543,-1.1862,-1.1996,-1.2124,-1.2798,-1.3191,-1.3369,-1.2986,-1.2498,-1.2058,-1.0863,-1.148,-1.4203,-1.4359,-1.3479,-1.3935,-1.3748,-1.421,-1.4092,-1.3614,-1.3293,-1.271,-1.1217,-0.9706,-0.85,-0.7143,-0.5924,-0.6062,-0.4703,-0.2889,-0.1672,-0.0303,0.1368,0.3196,0.426,0.5645,0.6929,0.8093,0.8243,0.8222,0.8243,0.7758,-6.3463,-6.7917,-6.7854,-6.7229,-6.6523,-6.6824,-6.7048,-6.7047,-6.7748,-6.8206,-6.8183,-6.7301,-6.7199,-6.7318,-6.7147,-6.7039,-6.6897,-6.7435,-6.7511,-6.7146,-6.7771,-6.797,-6.8697,-6.9156,-6.9596,-6.9564,-6.8762,-6.682,-6.4474,-6.0898,-5.8124,-5.7967,-5.8534,-5.8997,-5.9405,-5.9522,-5.8977,-5.83,-5.7719,-5.7479,-5.6601,-5.567,-5.574,-5.4913,-5.3843,-5.2993,-5.2172,-5.141,-4.9969,-4.8871,-4.735,-4.5443,-4.4727,-4.0288,-3.6329,-3.2512,-3.1447,-3.0411,-2.9428,-2.727,-2.5474,-2.3377,-2.1371,-1.9379,-1.927,-1.8974,-1.8949,-1.8443,-1.6836,-1.5612,-1.5428,-1.5232,-1.5683,-1.587,-1.6187,-1.6494,-1.7092,-1.7721,-1.8048,-1.8345,-1.798,-1.7249,-1.6595,-1.54,-1.5409,-1.6308,-1.6474,-1.6186,-1.6308,-1.6725,-1.7048,-1.6613,-1.6142,-1.5828,-1.3912,-1.2424,-1.1817,-1.1211,-0.9852,-0.939,-0.9524,-0.8463,-0.6655,-0.5152,-0.3646,-0.1367,0.0911,0.1674,0.2589,0.4576,0.5998,0.5427,0.4947,0.4905,0.5378,-6.8391,-6.8784,-6.8278,-6.8012,-6.7987,-6.8345,-6.8872,-6.9325,-6.9136,-6.9164,-6.9207,-6.8931,-6.8741,-6.9278,-6.9051,-6.9097,-6.9122,-6.9221,-6.9119,-6.9057,-6.89,-6.9647,-7.0264,-7.0785,-7.1441,-7.0952,-6.9528,-6.7295,-6.4914,-6.2235,-5.991,-5.9095,-5.9043,-5.9062,-5.9103,-5.9053,-5.83,-5.7624,-5.7024,-5.6768,-5.6268,-5.5259,-5.5603,-5.5462,-5.4644,-5.4091,-5.3423,-5.2821,-5.1817,-5.1548,-5.0603,-5.014,-5.0023,-4.5556,-4.1239,-3.6355,-3.3512,-3.162,-3.0654,-2.9784,-2.8731,-2.728,-2.6113,-2.5313,-2.4624,-2.3914,-2.2767,-2.1469,-2.0032,-1.9774,-1.9578,-1.885,-1.8513,-1.847,-1.837,-1.8634,-1.8936,-1.9243,-1.9092,-1.9309,-1.9465,-1.8931,-1.8921,-1.8051,-1.76,-1.7167,-1.702,-1.7305,-1.7737,-1.937,-1.984,-1.8931,-1.8471,-1.8491,-1.6725,-1.4955,-1.4665,-1.4226,-1.3165,-1.2553,-1.2071,-1.1156,-1.0097,-0.8613,-0.653,-0.4253,-0.1972,-0.0455,0.0304,0.2129,0.3039,0.2276,0.182,0.1823,0.2131,-6.833,-6.9779,-6.9618,-6.9445,-6.9457,-6.9249,-6.9293,-6.9404,-6.9211,-6.9359,-6.9659,-6.925,-6.9212,-6.947,-6.9398,-6.9323,-6.9328,-6.9332,-6.9237,-6.9243,-6.9308,-6.9594,-7.0136,-7.1028,-7.1451,-7.0349,-6.902,-6.7693,-6.4768,-6.2742,-6.0947,-5.978,-5.9319,-5.8833,-5.8623,-5.8435,-5.8004,-5.7224,-5.6589,-5.6141,-5.5751,-5.4714,-5.5048,-5.5101,-5.4702,-5.4261,-5.3881,-5.3409,-5.2372,-5.2109,-5.2203,-5.2361,-5.2118,-5.1548,-5.0035,-4.7071,-4.2623,-3.9209,-3.675,-3.5386,-3.3938,-3.2545,-3.1727,-3.087,-2.9728,-2.8098,-2.6313,-2.4671,-2.305,-2.3305,-2.3214,-2.2222,-2.1104,-2.1036,-2.0749,-2.0964,-2.1083,-2.1243,-2.0934,-2.1162,-2.1389,-2.1555,-2.1734,-2.0983,-2.0536,-2.0525,-2.0793,-2.0926,-2.1781,-2.315,-2.2837,-2.1793,-2.1106,-2.114,-2.0122,-1.8335,-1.7757,-1.7029,-1.6142,-1.5828,-1.4015,-1.2938,-1.2938,-1.2363,-0.9857,-0.7752,-0.6062,-0.4393,-0.2729,-0.1516,-0.0757,-0.1513,-0.3326,-0.2723,-0.1062,-6.7552,-6.8273,-6.912,-6.944,-6.9449,-6.9233,-6.9204,-6.9239,-6.9105,-6.9105,-6.9126,-6.9102,-6.9172,-6.9164,-6.9184,-6.9134,-6.9156,-6.9156,-6.9106,-6.9109,-6.9241,-6.9764,-7.0593,-7.1571,-7.1493,-7.2148,-7.0777,-6.8772,-6.6814,-6.4694,-6.2499,-6.0717,-5.9732,-5.8783,-5.8193,-5.7972,-5.7685,-5.6963,-5.6437,-5.5857,-5.5259,-5.4834,-5.4675,-5.4872,-5.4403,-5.3658,-5.3213,-5.254,-5.188,-5.203,-5.2229,-5.2427,-5.2454,-5.1782,-5.0364,-4.9107,-4.6204,-4.327,-4.0381,-3.8819,-3.8614,-3.7988,-3.7282,-3.5628,-3.3452,-3.1765,-2.9728,-2.7673,-2.5762,-2.5426,-2.5105,-2.3948,-2.332,-2.332,-2.3259,-2.3409,-2.3676,-2.4536,-2.4583,-2.5253,-2.5643,-2.5781,-2.5802,-2.4696,-2.358,-2.4139,-2.4709,-2.5405,-2.6239,-2.6394,-2.6239,-2.4797,-2.3827,-2.2981,-2.1817,-2.1239,-2.0816,-1.983,-1.9684,-1.9684,-1.8002,-1.6045,-1.6375,-1.6255,-1.4218,-1.2294,-1.0453,-0.8778,-0.7258,-0.6045,-0.5286,-0.6196,-0.7869,-0.6515,-0.4251,-6.6818,-6.8078,-6.8959,-6.9218,-6.9052,-6.8945,-6.8881,-6.887,-6.8861,-6.886,-6.8833,-6.8833,-6.8917,-6.887,-6.8786,-6.8731,-6.8873,-6.8891,-6.878,-6.8779,-6.8885,-6.9785,-7.0372,-7.077,-7.1275,-7.1132,-7.0514,-6.8688,-6.7615,-6.4345,-6.2426,-6.1368,-5.9687,-5.861,-5.8025,-5.7588,-5.748,-5.6797,-5.6345,-5.5993,-5.5477,-5.5181,-5.5285,-5.5937,-5.4982,-5.4685,-5.4953,-5.3848,-5.3289,-5.3249,-5.3874,-5.3917,-5.376,-5.4221,-5.2445,-5.0803,-4.9962,-4.6947,-4.4146,-4.2494,-4.2119,-4.1808,-4.108,-3.8848,-3.6621,-3.4965,-3.274,-3.0544,-2.9395,-2.8713,-2.7975,-2.703,-2.6648,-2.6531,-2.5874,-2.6126,-2.6194,-2.7013,-2.7549,-2.7982,-2.7773,-2.7508,-2.7565,-2.6394,-2.6394,-2.697,-2.683,-2.7531,-2.781,-2.8089,-2.8228,-2.6815,-2.5816,-2.4655,-2.4229,-2.4669,-2.4385,-2.2694,-2.2286,-2.231,-2.1407,-1.9743,-1.9463,-1.89,-1.7815,-1.6703,-1.4665,-1.2654,-1.161,-1.1168,-1.0707,-1.1318,-1.1674,-1.018,-0.822,-6.6247,-6.9185,-6.9156,-6.8911,-6.8536,-6.8714,-6.8619,-6.8417,-6.8514,-6.8659,-6.8592,-6.8575,-6.864,-6.8622,-6.8085,-6.816,-6.8424,-6.8335,-6.8308,-6.8367,-6.8424,-6.8229,-6.886,-6.9365,-6.9654,-6.7234,-6.7501,-6.7278,-6.473,-6.3423,-6.2254,-6.1108,-6.0058,-5.8783,-5.7981,-5.7516,-5.7257,-5.7145,-5.633,-5.6019,-5.5786,-5.569,-5.6286,-5.6707,-5.6185,-5.6111,-5.6228,-5.537,-5.4583,-5.4493,-5.5182,-5.5251,-5.5117,-5.5677,-5.5032,-5.3354,-5.2932,-5.1507,-4.918,-4.8575,-4.6832,-4.5081,-4.3665,-4.1465,-3.9518,-3.8165,-3.6702,-3.3859,-3.311,-3.2633,-3.2118,-3.1461,-3.1169,-3.0678,-2.9334,-2.8878,-2.856,-2.885,-2.8821,-2.8996,-2.8448,-2.8063,-2.838,-2.866,-2.9214,-2.9353,-2.8938,-2.8799,-2.8799,-2.8938,-2.8953,-2.8089,-2.7949,-2.6801,-2.652,-2.7531,-2.7251,-2.5405,-2.4139,-2.3567,-2.2681,-2.2644,-2.2069,-2.1083,-2.0559,-2.0469,-1.8648,-1.667,-1.6955,-1.7083,-1.6532,-1.5392,-1.4903,-1.4207,-1.3503,-6.6325,-6.7415,-6.8399,-6.8693,-6.8567,-6.8345,-6.8335,-6.8473,-6.8377,-6.8171,-6.7818,-6.7854,-6.7782,-6.7596,-6.7364,-6.7483,-6.7671,-6.7745,-6.7745,-6.7854,-6.796,-6.796,-6.8108,-6.8291,-6.8362,-6.7915,-6.7875,-6.7775,-6.6041,-6.4641,-6.3312,-6.2148,-6.1133,-6.0469,-6.0015,-5.939,-5.7916,-5.6668,-5.5846,-5.5647,-5.5045,-5.5352,-5.6176,-5.6391,-5.6517,-5.6717,-5.6763,-5.6527,-5.5688,-5.5769,-5.5837,-5.5793,-5.5778,-5.5578,-5.5328,-5.467,-5.4067,-5.3484,-5.2636,-5.2022,-5.0776,-4.8134,-4.6229,-4.3823,-4.1692,-4.0005,-3.9231,-3.6982,-3.6068,-3.5383,-3.5004,-3.3705,-3.322,-3.3176,-3.1971,-3.1497,-3.1147,-3.1185,-3.0886,-3.0463,-3.0892,-3.1135,-3.1306,-3.1017,-3.1578,-3.1697,-3.1544,-3.1544,-3.1,-3.059,-3.0332,-2.992,-2.9523,-2.8953,-2.8521,-2.8382,-2.8089,-2.6534,-2.5971,-2.5122,-2.525,-2.5674,-2.5533,-2.454,-2.4152,-2.4062,-2.315,-2.177,-2.1938,-2.2562,-2.1262,-1.9505,-1.8907,-1.7598,-1.7409,-6.6524,-6.7316,-6.7953,-6.8214,-6.8113,-6.8002,-6.7999,-6.8036,-6.7892,-6.7665,-6.7426,-6.7234,-6.7114,-6.7066,-6.6987,-6.6987,-6.7202,-6.7202,-6.728,-6.7437,-6.7476,-6.7364,-6.7247,-6.732,-6.7403,-6.7051,-6.7202,-6.7234,-6.6853,-6.4905,-6.3886,-6.2877,-6.1377,-6.1205,-6.0334,-5.8917,-5.7453,-5.594,-5.5118,-5.4903,-5.4469,-5.5059,-5.5877,-5.6332,-5.6677,-5.696,-5.7467,-5.7081,-5.7057,-5.7232,-5.72,-5.7285,-5.7405,-5.6793,-5.6351,-5.5969,-5.5027,-5.437,-5.3865,-5.4331,-5.3868,-5.1439,-4.8779,-4.6092,-4.3788,-4.2806,-4.1415,-4.0261,-3.9274,-3.8453,-3.7882,-3.6261,-3.4984,-3.4683,-3.4403,-3.4001,-3.3911,-3.4225,-3.4037,-3.367,-3.3892,-3.3771,-3.3503,-3.3369,-3.3619,-3.4019,-3.4304,-3.4152,-3.3333,-3.2778,-3.2104,-3.1714,-3.0623,-2.9936,-3.076,-2.992,-2.8799,-2.8382,-2.7949,-2.7949,-2.8213,-2.8521,-2.8119,-2.815,-2.7746,-2.6621,-2.59,-2.5985,-2.5419,-2.458,-2.3736,-2.3175,-2.1921,-2.0515,-2.0454,-6.6916,-6.8434,-6.7818,-6.7434,-6.7307,-6.7591,-6.7513,-6.7389,-6.7266,-6.7218,-6.7096,-6.6776,-6.6732,-6.6776,-6.6578,-6.6669,-6.7114,-6.6784,-6.6732,-6.6929,-6.7053,-6.676,-6.6587,-6.6587,-6.6587,-6.609,-6.6495,-6.6495,-6.5803,-6.5166,-6.4669,-6.3944,-6.3232,-6.0861,-6.0259,-6.0738,-5.9103,-5.8015,-5.6912,-5.6296,-5.6416,-5.6918,-5.7687,-5.8526,-5.8774,-5.922,-6.0452,-6.0158,-5.9903,-5.969,-5.9849,-5.9997,-5.9187,-5.8446,-5.7842,-5.7336,-5.6447,-5.5635,-5.539,-5.5942,-5.6111,-5.4548,-5.1979,-4.8715,-4.6503,-4.598,-4.4866,-4.3257,-4.214,-4.137,-4.049,-3.9709,-3.8713,-3.8118,-3.7337,-3.6759,-3.6312,-3.6723,-3.6613,-3.654,-3.6109,-3.5324,-3.4928,-3.457,-3.4795,-3.5455,-3.5756,-3.5532,-3.4985,-3.4645,-3.3849,-3.3199,-3.2003,-3.2003,-3.2814,-3.185,-3.0436,-2.9734,-2.8783,-2.9214,-3.0195,-2.9936,-2.9385,-2.9571,-3.0002,-2.8738,-2.7746,-2.7715,-2.7266,-2.6451,-2.5886,-2.5305,-2.4297,-2.3439,-2.3432,-6.7524,-6.7536,-6.7009,-6.69,-6.7114,-6.6893,-6.6973,-6.7139,-6.6877,-6.6696,-6.6567,-6.6259,-6.5965,-6.5901,-6.5987,-6.6037,-6.6114,-6.61,-6.61,-6.6198,-6.6379,-6.6343,-6.6247,-6.6379,-6.6474,-6.6295,-6.6511,-6.6583,-6.6617,-6.6797,-6.7045,-6.7486,-6.6068,-6.5962,-6.5777,-6.4586,-6.3372,-6.2486,-6.1704,-6.1403,-6.1614,-6.2412,-6.2671,-6.306,-6.3603,-6.3987,-6.3786,-6.3396,-6.2805,-6.247,-6.2288,-6.1682,-6.0985,-5.9983,-5.9338,-5.8885,-5.8188,-5.7357,-5.7448,-5.7432,-5.7416,-5.64,-5.4383,-5.1807,-4.968,-4.8489,-4.7426,-4.6294,-4.5001,-4.3718,-4.2848,-4.1861,-4.1391,-4.0825,-4.0034,-3.9227,-3.8471,-3.82,-3.8031,-3.777,-3.7277,-3.663,-3.6789,-3.6282,-3.6341,-3.6889,-3.684,-3.6769,-3.6449,-3.635,-3.5829,-3.5173,-3.4362,-3.4229,-3.4096,-3.2993,-3.1916,-3.0813,-2.9459,-2.9353,-3.0486,-3.0777,-3.0777,-3.1511,-3.2261,-3.1135,-2.9571,-2.9416,-2.9124,-2.8413,-2.7715,-2.728,-2.6733,-2.6537,-2.6225,-6.743,-6.6905,-6.6604,-6.6531,-6.6541,-6.6438,-6.6521,-6.6604,-6.6234,-6.6087,-6.6037,-6.5767,-6.545,-6.545,-6.5557,-6.561,-6.5663,-6.5835,-6.5886,-6.5987,-6.6185,-6.6221,-6.6244,-6.6367,-6.6575,-6.6657,-6.68,-6.7047,-6.7944,-6.8537,-6.8758,-6.8812,-6.8624,-6.8663,-6.6932,-6.6959,-6.6443,-6.5649,-6.4916,-6.4202,-6.374,-6.36,-6.3671,-6.3866,-6.4194,-6.4494,-6.446,-6.4541,-6.3921,-6.3469,-6.3005,-6.2483,-6.169,-6.0871,-6.0199,-5.9984,-5.9705,-5.9605,-5.9528,-5.9401,-5.9109,-5.8176,-5.6682,-5.472,-5.304,-5.1385,-4.9881,-4.8867,-4.7057,-4.5897,-4.5157,-4.4201,-4.3534,-4.2651,-4.1796,-4.0983,-4.0513,-4.0003,-3.9567,-3.8937,-3.8429,-3.9147,-3.9585,-3.9041,-3.8873,-3.9232,-3.9,-3.8789,-3.8619,-3.8174,-3.7514,-3.7018,-3.661,-3.633,-3.5228,-3.4173,-3.3109,-3.2321,-3.0966,-3.1,-3.1732,-3.2003,-3.2679,-3.3271,-3.3038,-3.2361,-3.1818,-3.1084,-3.0503,-2.9936,-2.9539,-2.8537,-2.77,-2.7761,-2.765,-6.6966,-6.651,-6.6427,-6.6247,-6.6037,-6.6087,-6.6037,-6.5921,-6.561,-6.5504,-6.561,-6.5233,-6.5137,-6.5158,-6.5342,-6.545,-6.5664,-6.6053,-6.6407,-6.655,-6.6832,-6.6907,-6.6481,-6.6589,-6.7104,-6.7456,-6.7597,-6.8552,-6.9733,-6.9906,-6.9855,-6.983,-6.9637,-6.8705,-6.8593,-6.845,-6.628,-6.5186,-6.5245,-6.4857,-6.3908,-6.3205,-6.3527,-6.3931,-6.4355,-6.4869,-6.569,-6.5228,-6.4633,-6.4104,-6.3262,-6.2551,-6.2006,-6.1241,-6.0668,-6.0594,-6.0854,-6.125,-6.1017,-6.0842,-6.0464,-5.9599,-5.8472,-5.7549,-5.6317,-5.4607,-5.2931,-5.1147,-4.9718,-4.8699,-4.783,-4.6783,-4.5774,-4.5038,-4.463,-4.4027,-4.307,-4.2935,-4.2192,-4.1509,-4.0317,-4.1016,-4.1285,-4.1352,-4.1273,-4.1273,-4.115,-4.1026,-4.0632,-3.984,-3.9063,-3.8281,-3.7878,-3.7514,-3.67,-3.5659,-3.474,-3.4115,-3.3448,-3.3199,-3.2831,-3.2427,-3.3503,-3.3619,-3.2796,-3.2138,-3.3485,-3.3467,-3.1986,-3.1578,-3.1697,-3.059,-2.9076,-2.8815,-2.9108,-6.6966,-6.6474,-6.6283,-6.6234,-6.6247,-6.5732,-6.5575,-6.561,-6.5268,-6.5081,-6.5046,-6.5025,-6.5025,-6.5137,-6.5249,-6.5394,-6.5646,-6.7071,-6.7445,-6.7586,-6.8257,-6.8797,-6.8634,-6.8491,-6.8275,-6.8483,-6.8845,-6.996,-7.1343,-7.1795,-7.2142,-7.1829,-7.2072,-7.1933,-7.1482,-7.103,-7.1793,-7.1411,-7.1514,-7.117,-7.0252,-6.9407,-6.8833,-6.847,-6.842,-6.7967,-6.7595,-6.7154,-6.6976,-6.6712,-6.6197,-6.556,-6.5201,-6.3754,-6.2266,-6.1263,-6.1104,-6.125,-6.1166,-6.1166,-6.1133,-6.0697,-5.9663,-5.961,-5.9133,-5.8118,-5.6936,-5.5863,-5.3521,-5.1052,-5.0408,-4.9777,-4.9025,-4.8588,-4.8246,-4.7929,-4.6344,-4.5112,-4.4222,-4.3768,-4.2595,-4.2041,-4.1675,-4.1497,-4.1273,-4.1273,-4.1273,-4.1273,-4.115,-4.0486,-4.0112,-3.9442,-3.8937,-3.8684,-3.7662,-3.635,-3.5959,-3.5324,-3.506,-3.4683,-3.3904,-3.3235,-3.3253,-3.3637,-3.3065,-3.4096,-3.607,-3.6869,-3.489,-3.3697,-3.3849,-3.3163,-3.1815,-3.1289,-3.088,-6.666,-6.6283,-6.6172,-6.5987,-6.5732,-6.5378,-6.5213,-6.5193,-6.4968,-6.4889,-6.4911,-6.4968,-6.5081,-6.5314,-6.5829,-6.6749,-6.7269,-6.8033,-6.8089,-6.8195,-6.8678,-6.9036,-6.8833,-6.8707,-6.9032,-6.9602,-7.0097,-7.0981,-7.2139,-7.2464,-7.2327,-7.2572,-7.2684,-7.2757,-7.2863,-7.3043,-7.3045,-7.3115,-7.315,-7.2835,-7.2042,-7.1783,-7.0744,-7.0116,-6.9614,-6.9351,-6.8658,-6.8238,-6.7806,-6.7463,-6.6579,-6.567,-6.4634,-6.3629,-6.2839,-6.2188,-6.1585,-6.1166,-6.1166,-6.1166,-6.1166,-6.1079,-6.0644,-6.0697,-6.076,-6.0138,-5.886,-5.7749,-5.5206,-5.2706,-5.2226,-5.0741,-5.0224,-5.0,-4.896,-4.8296,-4.7684,-4.6245,-4.6072,-4.6162,-4.4871,-4.3686,-4.2843,-4.207,-4.1464,-4.1273,-4.1273,-4.1273,-4.1273,-4.1026,-4.088,-4.0237,-3.9442,-3.881,-3.7405,-3.6869,-3.661,-3.637,-3.624,-3.5848,-3.5324,-3.5324,-3.506,-3.4796,-3.5324,-3.609,-3.7534,-3.8047,-3.7127,-3.5959,-3.5567,-3.5041,-3.4133,-3.3351,-3.2679,-6.6283,-6.5987,-6.6087,-6.5962,-6.5678,-6.5768,-6.5906,-6.565,-6.599,-6.572,-6.5884,-6.5871,-6.6105,-6.6246,-6.7385,-6.8114,-6.8588,-6.8763,-6.8742,-6.8809,-6.9195,-6.9403,-6.9404,-6.9371,-6.9472,-7.0248,-7.0833,-7.1293,-7.171,-7.1864,-7.2016,-7.205,-7.2276,-7.239,-7.2499,-7.2611,-7.2684,-7.2866,-7.258,-7.2219,-7.1659,-7.1351,-7.0673,-6.9458,-6.9232,-6.8915,-6.8387,-6.7653,-6.7025,-6.6643,-6.5701,-6.4797,-6.4212,-6.3869,-6.3479,-6.2868,-6.2137,-6.1473,-6.1279,-6.1166,-6.1166,-6.1166,-6.1162,-6.1137,-6.1025,-6.0371,-5.9828,-5.8911,-5.7041,-5.4713,-5.3301,-5.2387,-5.1375,-5.0971,-5.0325,-4.9116,-4.9091,-4.788,-4.6605,-4.7951,-4.7002,-4.5782,-4.4929,-4.4123,-4.3945,-4.389,-4.3102,-4.2466,-4.2173,-4.1981,-4.1531,-4.0654,-4.0112,-3.881,-3.7703,-3.7852,-3.777,-3.7791,-3.7534,-3.7148,-3.676,-3.7018,-3.7534,-3.7642,-3.8047,-3.8302,-3.8174,-3.8174,-3.7662,-3.674,-3.674,-3.661,-3.5173,-3.3886,-3.3485,-6.6087,-6.5504,-6.6136,-6.694,-6.7727,-6.8076,-6.8551,-6.9315,-6.9528,-6.881,-6.8914,-6.8924,-6.8491,-6.8757,-6.8456,-6.841,-6.891,-6.9438,-7.0131,-7.0304,-7.0712,-7.0874,-7.0716,-7.0374,-7.0215,-7.053,-7.1048,-7.1309,-7.1433,-7.1744,-7.171,-7.1864,-7.1974,-7.1974,-7.1864,-7.1753,-7.1879,-7.2184,-7.1701,-7.1049,-7.0609,-7.0131,-6.9713,-6.8827,-6.856,-6.8323,-6.799,-6.7838,-6.7621,-6.7621,-6.6674,-6.609,-6.5795,-6.5664,-6.5132,-6.319,-6.2976,-6.2436,-6.1777,-6.1473,-6.1391,-6.1166,-6.1279,-6.1279,-6.1279,-6.0941,-6.0685,-6.0457,-5.9885,-5.8651,-5.8059,-5.5556,-5.4971,-5.5041,-5.3753,-5.2837,-5.2588,-5.0869,-4.9487,-5.0015,-4.9044,-4.7485,-4.6596,-4.5661,-4.6118,-4.6339,-4.4816,-4.3837,-4.3295,-4.2909,-4.1858,-4.1036,-4.0801,-3.9861,-3.9804,-3.9995,-3.961,-3.9316,-3.881,-3.8174,-3.7405,-3.7919,-3.8557,-3.9337,-3.9965,-4.0237,-4.0237,-3.9714,-3.8684,-3.7534,-3.7277,-3.7256,-3.622,-3.4664,-3.3886,-6.7725,-6.74,-6.8689,-6.9299,-6.9411,-6.9588,-6.975,-6.9918,-6.9966,-6.986,-6.9654,-6.9654,-6.9654,-6.9689,-7.0172,-7.0269,-7.0459,-7.1477,-7.1968,-7.1757,-7.1991,-7.2104,-7.1651,-7.0934,-7.0515,-7.0563,-7.0874,-7.0955,-7.0921,-7.1048,-7.1241,-7.1207,-7.1511,-7.1589,-7.1511,-7.1898,-7.1667,-7.1475,-7.1571,-7.1735,-7.1335,-7.0925,-7.0298,-6.9933,-6.9058,-6.8232,-6.7898,-6.7838,-6.7838,-6.7746,-6.7372,-6.7056,-6.7088,-6.6577,-6.5862,-6.4726,-6.4315,-6.3418,-6.3206,-6.2916,-6.2731,-6.2217,-6.2137,-6.1807,-6.1391,-6.1166,-6.1166,-6.1054,-6.0543,-5.9711,-5.8365,-5.6457,-5.5713,-5.5731,-5.406,-5.3095,-5.3372,-5.3261,-5.2878,-5.1944,-5.0716,-4.9135,-4.761,-4.629,-4.6303,-4.6491,-4.5138,-4.4144,-4.3698,-4.3171,-4.214,-4.1768,-4.1509,-4.1363,-4.1609,-4.144,-4.0778,-4.0361,-3.984,-3.9211,-3.9042,-3.942,-3.9589,-4.009,-4.0734,-4.1273,-4.1273,-4.1128,-4.0339,-3.9316,-3.8557,-3.8154,-3.7514,-3.674,-3.5848,-6.9771,-6.9556,-7.1041,-7.1435,-7.1058,-7.1039,-7.0953,-7.0895,-7.0895,-7.1046,-7.0746,-7.0773,-7.0843,-7.0914,-7.181,-7.214,-7.1653,-7.2281,-7.2833,-7.2292,-7.2219,-7.192,-7.1617,-7.1094,-7.0678,-7.0563,-7.053,-7.053,-7.053,-7.0611,-7.053,-7.0645,-7.1036,-7.1149,-7.1195,-7.1477,-7.142,-7.0949,-7.1653,-7.2104,-7.1961,-7.1506,-7.1106,-7.0706,-6.9713,-6.8738,-6.8082,-6.7838,-6.7838,-6.7746,-6.7746,-6.7746,-6.7621,-6.7056,-6.6449,-6.5961,-6.5302,-6.4736,-6.4532,-6.4327,-6.4017,-6.3053,-6.2761,-6.2436,-6.1391,-6.1166,-6.1166,-6.1025,-6.0315,-5.9682,-5.872,-5.7136,-5.692,-5.6663,-5.505,-5.3623,-5.3863,-5.4426,-5.4212,-5.3442,-5.2002,-5.0403,-4.8851,-4.8297,-4.7646,-4.644,-4.5623,-4.4454,-4.3858,-4.341,-4.3065,-4.2812,-4.2506,-4.1933,-4.1992,-4.1576,-4.1172,-4.0756,-4.0756,-4.0508,-4.1184,-4.1675,-4.1397,-4.1442,-4.152,-4.1251,-4.1251,-4.1128,-4.1083,-4.0982,-4.0486,-3.919,-3.8302,-3.8705,-3.8047,-7.1354,-7.0603,-7.1294,-7.2114,-7.2907,-7.3141,-7.3386,-7.4194,-7.4074,-7.3901,-7.3594,-7.3641,-7.3318,-7.3746,-7.2863,-7.2416,-7.1721,-7.1632,-7.0947,-7.074,-7.0659,-7.0867,-7.1307,-7.1218,-7.1014,-7.0611,-7.053,-7.053,-7.053,-7.053,-7.053,-7.053,-7.0611,-7.0645,-7.0726,-7.0481,-7.041,-7.0429,-7.0551,-7.0686,-7.097,-7.0686,-7.0182,-6.9713,-6.9145,-6.856,-6.799,-6.7838,-6.7714,-6.756,-6.7746,-6.7838,-6.7838,-6.7746,-6.7246,-6.6449,-6.6255,-6.5602,-6.4837,-6.4634,-6.4151,-6.3267,-6.2976,-6.2436,-6.1473,-6.1166,-6.1166,-6.1166,-6.1166,-6.0799,-6.0286,-5.9566,-5.9245,-5.9189,-5.8016,-5.6338,-5.5311,-5.4248,-5.3605,-5.3452,-5.3401,-5.3168,-5.2829,-5.2655,-5.2297,-4.9183,-4.8454,-4.7361,-4.6497,-4.5081,-4.423,-4.4019,-4.3372,-4.2636,-4.2392,-4.2024,-4.1833,-4.162,-4.1865,-4.2087,-4.2744,-4.2791,-4.2711,-4.2734,-4.2353,-4.2064,-4.172,-4.1329,-4.1184,-4.1061,-4.0982,-3.9714,-3.8429,-3.9337,-3.961,-7.3309,-7.3216,-7.4199,-7.4633,-7.4672,-7.4487,-7.4456,-7.4574,-7.4618,-7.4427,-7.4304,-7.4239,-7.3993,-7.351,-7.3046,-7.2517,-7.1841,-7.1522,-7.1307,-7.1106,-7.1185,-7.106,-7.0774,-7.0854,-7.0807,-7.053,-7.053,-7.053,-7.053,-7.053,-7.053,-7.053,-7.053,-7.053,-7.0563,-7.02,-6.9999,-6.9782,-6.9816,-7.0066,-7.0499,-6.9747,-6.9112,-6.8729,-6.8167,-6.7866,-6.7527,-6.756,-6.7527,-6.734,-6.7372,-6.7434,-6.7621,-6.7621,-6.7466,-6.7246,-6.7151,-6.6642,-6.58,-6.5502,-6.4726,-6.3373,-6.2976,-6.2356,-6.1502,-6.1166,-6.1166,-6.1166,-6.1166,-6.1166,-6.1166,-6.0828,-6.0343,-6.02,-5.9826,-5.945,-5.8837,-5.7406,-5.6893,-5.643,-5.5588,-5.435,-5.3657,-5.293,-5.2299,-5.1597,-5.0647,-4.984,-4.8875,-4.6894,-4.5515,-4.5246,-4.4834,-4.4287,-4.3878,-4.3429,-4.3121,-4.3055,-4.3128,-4.3105,-4.3344,-4.3128,-4.3008,-4.2818,-4.2961,-4.2865,-4.2405,-4.2041,-4.1652,-4.1307,-4.1229,-4.0734,-4.0237,-4.061,-4.0508,-7.5218,-7.5419,-7.619,-7.6214,-7.5588,-7.5027,-7.4582,-7.4304,-7.4239,-7.4304,-7.4138,-7.3971,-7.3522,-7.2933,-7.2696,-7.2193,-7.1618,-7.1446,-7.1617,-7.1582,-7.1506,-7.0901,-7.0383,-7.0216,-7.03,-7.0399,-7.0432,-7.0515,-7.0481,-7.0563,-7.053,-7.053,-7.053,-7.053,-7.053,-7.0399,-6.9966,-6.965,-6.9999,-7.045,-7.045,-6.959,-6.8905,-6.8462,-6.7802,-6.7402,-6.7056,-6.7246,-6.7246,-6.6929,-6.7025,-6.7151,-6.734,-6.734,-6.7372,-6.7434,-6.756,-6.734,-6.677,-6.6674,-6.5633,-6.3764,-6.3479,-6.2761,-6.1391,-6.1166,-6.1166,-6.1166,-6.1166,-6.1166,-6.1166,-6.1166,-6.0799,-6.0085,-6.0572,-6.0799,-6.02,-5.9334,-5.8246,-5.8007,-5.6086,-5.4579,-5.3761,-5.3039,-5.2312,-5.1656,-5.0933,-5.0329,-5.0057,-4.8619,-4.8056,-4.7539,-4.6584,-4.6003,-4.5497,-4.4919,-4.4512,-4.4487,-4.463,-4.4845,-4.4869,-4.4511,-4.3986,-4.3416,-4.401,-4.3677,-4.3271,-4.3102,-4.2307,-4.182,-4.162,-4.1273,-4.1128,-4.1229,-4.1128,-7.6874,-7.6603,-7.609,-7.5533,-7.5122,-7.4555,-7.4269,-7.4239,-7.4239,-7.4239,-7.4072,-7.353,-7.308,-7.2729,-7.2297,-7.1617,-7.082,-7.0774,-7.053,-7.0066,-6.9813,-6.9813,-6.9794,-7.0048,-7.0133,-7.0066,-7.03,-7.0416,-7.0383,-7.0432,-7.053,-7.0563,-7.0563,-7.053,-7.053,-7.0563,-7.0332,-7.0182,-7.0726,-7.0481,-6.9982,-7.0133,-6.968,-6.8283,-6.8135,-6.771,-6.7151,-6.7056,-6.6961,-6.6738,-6.6866,-6.6961,-6.7056,-6.7056,-6.7183,-6.7151,-6.7372,-6.734,-6.7434,-6.7246,-6.6386,-6.4357,-6.3943,-6.3524,-6.1585,-6.1166,-6.1166,-6.1166,-6.1166,-6.1166,-6.1166,-6.1166,-6.1166,-6.1054,-6.1054,-6.0685,-5.945,-5.7527,-5.7042,-5.621,-5.4732,-5.3605,-5.4069,-5.3786,-5.3374,-5.314,-5.2934,-5.2228,-5.1647,-5.0967,-5.089,-4.9964,-4.8747,-4.8104,-4.7244,-4.6706,-4.6343,-4.6341,-4.6675,-4.7082,-4.7462,-4.6944,-4.6311,-4.5729,-4.5495,-4.4654,-4.42,-4.4225,-4.3794,-4.3004,-4.2208,-4.1397,-4.1374,-4.1598,-4.172,-7.6737,-7.6652,-7.5735,-7.5204,-7.5003,-7.4491,-7.4239,-7.4239,-7.4239,-7.4239,-7.4239,-7.3869,-7.349,-7.287,-7.2589,-7.1735,-7.0605,-7.0578,-7.0183,-6.9623,-6.945,-6.959,-6.9846,-7.0133,-7.0216,-7.0216,-7.0133,-7.0099,-7.0133,-7.0183,-7.0266,-7.0349,-7.0266,-7.0233,-7.0448,-7.0033,-6.9557,-6.9178,-6.9036,-6.8503,-6.7894,-6.7861,-6.7677,-6.715,-6.7087,-6.6898,-6.6674,-6.6577,-6.6577,-6.6481,-6.6481,-6.6674,-6.677,-6.6961,-6.7151,-6.7246,-6.734,-6.7151,-6.6546,-6.6577,-6.5465,-6.3795,-6.3343,-6.2623,-6.1585,-6.1166,-6.1166,-6.1166,-6.1166,-6.1166,-6.1166,-6.1166,-6.1166,-6.1166,-6.1166,-6.1054,-6.0572,-5.9595,-5.8983,-5.8511,-5.7647,-5.7285,-5.6663,-5.6039,-5.4739,-5.4527,-5.4017,-5.3221,-5.2967,-5.2307,-5.1849,-5.1242,-5.0389,-4.9713,-4.9085,-4.8592,-4.8224,-4.8492,-4.8684,-4.9019,-4.9157,-4.8674,-4.7932,-4.7206,-4.6864,-4.6157,-4.5833,-4.5689,-4.5424,-4.4463,-4.363,-4.3098,-4.272,-4.2728,-4.2251,-7.6302,-7.6146,-7.5378,-7.4978,-7.4769,-7.4363,-7.4239,-7.4239,-7.4239,-7.4239,-7.4174,-7.3668,-7.308,-7.2594,-7.1939,-7.1161,-7.0198,-7.0414,-7.015,-6.9504,-6.9417,-6.9504,-6.9761,-6.9964,-6.9879,-6.9471,-6.9058,-6.8882,-6.8882,-6.8937,-6.9178,-6.9438,-6.9351,-6.9491,-6.978,-6.9298,-6.8859,-6.838,-6.7958,-6.7402,-6.677,-6.6674,-6.6577,-6.6286,-6.6286,-6.6286,-6.6286,-6.6286,-6.6286,-6.6286,-6.6286,-6.6384,-6.6577,-6.6674,-6.6866,-6.7056,-6.7151,-6.6866,-6.6286,-6.6189,-6.5565,-6.4242,-6.3825,-6.319,-6.2027,-6.1807,-6.1696,-6.1279,-6.1166,-6.1166,-6.1166,-6.1166,-6.1137,-6.0996,-6.1054,-6.1054,-6.0828,-6.0828,-6.0941,-6.0458,-5.9128,-5.8154,-5.7565,-5.6039,-5.4468,-5.4324,-5.3785,-5.3292,-5.332,-5.2737,-5.2383,-5.2332,-5.1824,-5.1217,-5.0662,-5.0261,-5.0265,-5.0841,-5.0587,-5.0579,-5.0224,-4.9766,-4.8994,-4.8307,-4.8168,-4.7805,-4.7632,-4.7367,-4.6831,-4.615,-4.5254,-4.4747,-4.453,-4.389,-4.3252,-7.588,-7.5181,-7.5003,-7.4769,-7.4334,-7.4304,-7.4239,-7.4239,-7.4239,-7.4239,-7.3904,-7.258,-7.207,-7.154,-7.0511,-6.9471,-6.9471,-7.0116,-6.9982,-6.9331,-6.9244,-6.9244,-6.9244,-6.9331,-6.8948,-6.8076,-6.7054,-6.677,-6.7022,-6.7335,-6.7645,-6.7797,-6.8012,-6.8225,-6.847,-6.856,-6.847,-6.838,-6.8323,-6.7926,-6.7527,-6.7246,-6.6866,-6.6384,-6.6286,-6.6286,-6.6286,-6.6286,-6.6286,-6.6286,-6.6286,-6.6286,-6.6286,-6.6384,-6.6352,-6.6512,-6.6577,-6.677,-6.6961,-6.7056,-6.6546,-6.5664,-6.5862,-6.4491,-6.2731,-6.2544,-6.2108,-6.1391,-6.1166,-6.1195,-6.1195,-6.1166,-6.1025,-6.0599,-6.077,-6.0828,-6.0629,-6.0714,-6.0343,-5.9274,-5.7675,-5.5739,-5.5364,-5.4755,-5.4145,-5.3863,-5.3447,-5.3237,-5.3136,-5.314,-5.3295,-5.3219,-5.2839,-5.2307,-5.2104,-5.19,-5.2535,-5.2788,-5.2104,-5.157,-5.1138,-5.1189,-5.0435,-4.9474,-4.9334,-4.9843,-4.9539,-4.9143,-4.8574,-4.781,-4.6884,-4.6213,-4.5983,-4.5774,-4.4836,-7.6041,-7.5062,-7.4645,-7.4399,-7.4239,-7.4239,-7.4239,-7.4239,-7.4239,-7.3904,-7.3324,-7.2762,-7.2253,-7.1651,-7.1218,-7.0332,-6.9331,-6.9504,-6.9471,-6.9244,-6.9276,-6.9276,-6.9244,-6.9331,-6.9156,-6.8649,-6.8649,-6.856,-6.8527,-6.8232,-6.829,-6.856,-6.8017,-6.8017,-6.829,-6.8355,-6.8082,-6.7806,-6.7774,-6.7434,-6.6738,-6.6674,-6.6577,-6.6286,-6.6286,-6.6286,-6.6286,-6.6286,-6.6286,-6.6286,-6.6286,-6.6286,-6.6286,-6.6481,-6.6577,-6.6577,-6.6674,-6.677,-6.6674,-6.5996,-6.5171,-6.4388,-6.3629,-6.2701,-6.1444,-6.1279,-6.1166,-6.0856,-6.0629,-6.0687,-6.0715,-6.0914,-6.0912,-6.0799,-6.0799,-6.0828,-6.097,-6.0856,-6.0658,-6.0228,-5.9325,-5.8887,-5.8657,-5.6906,-5.5829,-5.5739,-5.4249,-5.3367,-5.3111,-5.3216,-5.3241,-5.3165,-5.3266,-5.3039,-5.3168,-5.2808,-5.3,-5.3312,-5.2808,-5.2383,-5.1952,-5.2434,-5.2002,-5.096,-5.0732,-5.1291,-5.1369,-5.0967,-5.0389,-4.9514,-4.8963,-4.8878,-4.8432,-4.7975,-4.7737,-7.5605,-7.5003,-7.4527,-7.4239,-7.4239,-7.4239,-7.4072,-7.3837,-7.3837,-7.3254,-7.2546,-7.2179,-7.1803,-7.1297,-7.0981,-7.0249,-6.9244,-6.9276,-6.8948,-6.8649,-6.8649,-6.847,-6.8167,-6.8258,-6.8076,-6.7677,-6.7645,-6.7553,-6.7148,-6.6866,-6.6898,-6.7056,-6.6929,-6.6929,-6.7276,-6.7495,-6.734,-6.7056,-6.7056,-6.6738,-6.6352,-6.6286,-6.6286,-6.6286,-6.6286,-6.6286,-6.6286,-6.6286,-6.6286,-6.6286,-6.6286,-6.6286,-6.6286,-6.6481,-6.6577,-6.6577,-6.6577,-6.6352,-6.5996,-6.514,-6.4296,-6.3524,-6.2719,-6.2099,-6.122,-6.1025,-6.0828,-6.0486,-6.0515,-6.0886,-6.1256,-6.157,-6.1747,-6.1747,-6.1747,-6.195,-6.1864,-6.1864,-6.1836,-6.1836,-6.1719,-6.113,-5.9902,-5.8021,-5.6361,-5.5636,-5.4091,-5.3232,-5.3312,-5.3186,-5.3393,-5.365,-5.3468,-5.3388,-5.3968,-5.3761,-5.3626,-5.387,-5.3903,-5.3584,-5.3609,-5.4012,-5.4012,-5.3031,-5.3223,-5.3683,-5.3634,-5.3351,-5.3747,-5.2854,-5.2312,-5.2109,-5.1921,-5.0638,-5.0384,-7.468,-7.5024,-7.4463,-7.4239,-7.4239,-7.4174,-7.37,-7.2975,-7.2904,-7.2366,-7.1651,-7.0901,-7.053,-7.0481,-6.9728,-6.9244,-6.9123,-6.9068,-6.856,-6.7585,-6.7585,-6.7024,-6.616,-6.6063,-6.5638,-6.5209,-6.5209,-6.4634,-6.3659,-6.3373,-6.3433,-6.4126,-6.4747,-6.5023,-6.5596,-6.6059,-6.6189,-6.6189,-6.6189,-6.6157,-6.6189,-6.6189,-6.6189,-6.6189,-6.6189,-6.6189,-6.6286,-6.6286,-6.6286,-6.6286,-6.6286,-6.6286,-6.6286,-6.6286,-6.6286,-6.6286,-6.6286,-6.5831,-6.514,-6.4705,-6.4162,-6.3538,-6.313,-6.2946,-6.1842,-6.1906,-6.1602,-6.0802,-6.1003,-6.169,-6.2673,-6.2843,-6.2984,-6.3041,-6.3372,-6.3343,-6.3182,-6.3267,-6.3457,-6.3438,-6.3295,-6.2416,-6.0407,-5.7706,-5.621,-5.4783,-5.3193,-5.287,-5.4145,-5.3685,-5.3974,-5.4542,-5.4359,-5.3778,-5.5146,-5.4918,-5.5042,-5.5106,-5.4858,-5.5345,-5.5479,-5.5628,-5.5504,-5.5459,-5.5348,-5.5406,-5.5685,-5.5797,-5.591,-5.587,-5.5158,-5.4909,-5.4481,-5.3314,-5.2981,-7.5346,-7.5876,-7.4792,-7.4239,-7.4239,-7.3565,-7.315,-7.2833,-7.2292,-7.1574,-7.0854,-7.0645,-7.0233,-6.959,-6.9298,-6.8771,-6.8167,-6.8076,-6.7492,-6.6643,-6.6547,-6.6354,-6.616,-6.6063,-6.5965,-6.5737,-6.5602,-6.5502,-6.5271,-6.493,-6.4961,-6.5132,-6.489,-6.4849,-6.4921,-6.5023,-6.5124,-6.5256,-6.5124,-6.5326,-6.5596,-6.5295,-6.5326,-6.5695,-6.5695,-6.5894,-6.6286,-6.6286,-6.6286,-6.6286,-6.6286,-6.6286,-6.6286,-6.6286,-6.6286,-6.6157,-6.5533,-6.4837,-6.4634,-6.3176,-6.2129,-6.1888,-6.195,-6.1721,-6.1687,-6.2283,-6.2705,-6.2427,-6.2641,-6.2933,-6.3171,-6.3295,-6.339,-6.339,-6.3514,-6.3637,-6.3845,-6.3637,-6.357,-6.3485,-6.3645,-6.2922,-6.2239,-6.0874,-5.9126,-5.7805,-5.6717,-5.6177,-5.5156,-5.4819,-5.4722,-5.5043,-5.4934,-5.4868,-5.5174,-5.5354,-5.5041,-5.5206,-5.5496,-5.552,-5.5554,-5.5569,-5.564,-5.6299,-5.6212,-5.6225,-5.6423,-5.6552,-5.6665,-5.6879,-5.6665,-5.6339,-5.6463,-5.62,-5.5822,-7.6829,-7.7337,-7.6457,-7.5583,-7.4542,-7.3393,-7.2546,-7.192,-7.1453,-7.074,-7.0066,-6.9982,-6.9761,-6.9244,-6.9276,-6.9219,-6.9166,-6.8704,-6.8299,-6.786,-6.7357,-6.6876,-6.6566,-6.6461,-6.6461,-6.6461,-6.6461,-6.6461,-6.6461,-6.6208,-6.6208,-6.6147,-6.6102,-6.6058,-6.5997,-6.5717,-6.5545,-6.5545,-6.5023,-6.4716,-6.4819,-6.4541,-6.4644,-6.5124,-6.5225,-6.5396,-6.5894,-6.5992,-6.609,-6.6286,-6.6286,-6.6286,-6.6286,-6.6286,-6.6286,-6.6286,-6.5602,-6.5084,-6.4673,-6.3983,-6.3105,-6.2125,-6.2009,-6.2071,-6.2099,-6.2748,-6.3707,-6.4469,-6.4822,-6.4822,-6.4751,-6.4822,-6.492,-6.492,-6.492,-6.4976,-6.52,-6.5103,-6.492,-6.492,-6.4822,-6.4468,-6.3742,-6.2645,-6.1208,-5.9386,-5.7531,-5.6704,-5.6955,-5.586,-5.5562,-5.6033,-5.6306,-5.6369,-5.6347,-5.6128,-5.6177,-5.6322,-5.6298,-5.6273,-5.6541,-5.6589,-5.6658,-5.6979,-5.7044,-5.7113,-5.7299,-5.7424,-5.7567,-5.7668,-5.7735,-5.7827,-5.7827,-5.7968,-5.8135,-7.8711,-7.8921,-7.8498,-7.7236,-7.5127,-7.3347,-7.1879,-7.0693,-7.0481,-6.9982,-6.9364,-6.9408,-6.9474,-6.9441,-6.9671,-7.0249,-7.1123,-7.0315,-6.9823,-6.9742,-6.9127,-6.8151,-6.7303,-6.7429,-6.7374,-6.7488,-6.7488,-6.7573,-6.7573,-6.7488,-6.7399,-6.7309,-6.7582,-6.7655,-6.7676,-6.6942,-6.6654,-6.6501,-6.5337,-6.4517,-6.4023,-6.3902,-6.4126,-6.4613,-6.4644,-6.4921,-6.5427,-6.5527,-6.5695,-6.6189,-6.6286,-6.6286,-6.6286,-6.6286,-6.6286,-6.6286,-6.6286,-6.583,-6.4969,-6.5795,-6.527,-6.3277,-6.3115,-6.3369,-6.3397,-6.3538,-6.4554,-6.619,-6.6811,-6.6698,-6.6895,-6.6754,-6.6641,-6.6557,-6.6641,-6.6895,-6.6726,-6.6895,-6.6895,-6.6895,-6.6585,-6.6283,-6.4883,-6.3607,-6.1792,-6.0091,-5.7806,-5.6782,-5.8019,-5.6982,-5.6237,-5.7124,-5.7721,-5.7865,-5.7691,-5.7886,-5.7617,-5.7691,-5.7813,-5.7642,-5.7669,-5.7691,-5.7837,-5.7721,-5.7943,-5.7968,-5.8016,-5.8336,-5.8462,-5.8436,-5.8658,-5.9054,-5.9129,-5.9299,-5.9541,-7.9379,-8.0294,-7.8041,-7.6326,-7.4982,-7.2298,-7.0901,-7.0481,-6.9813,-6.9417,-6.9408,-7.0493,-7.0986,-7.1118,-7.2203,-7.1923,-7.0786,-7.0416,-6.9333,-6.806,-6.8578,-6.886,-6.8747,-6.9588,-7.0036,-7.0036,-7.0036,-7.0036,-7.0066,-7.0066,-6.9528,-6.8627,-6.7723,-6.7243,-6.7213,-6.7025,-6.6445,-6.5341,-6.509,-6.486,-6.4721,-6.373,-6.3433,-6.4051,-6.4156,-6.4364,-6.4921,-6.5326,-6.5627,-6.5726,-6.609,-6.6286,-6.6286,-6.6286,-6.6286,-6.6286,-6.6286,-6.5758,-6.4713,-6.4089,-6.3168,-6.1853,-6.351,-6.4638,-6.4723,-6.5485,-6.6359,-6.6782,-6.6895,-6.6895,-6.6895,-6.6895,-6.6895,-6.6895,-6.6895,-6.6764,-6.6895,-6.6895,-6.6895,-6.6895,-6.6895,-6.6736,-6.6178,-6.5023,-6.3605,-6.2535,-6.0614,-5.8696,-5.8239,-5.7795,-5.7376,-5.7818,-5.7865,-5.7886,-5.7886,-5.7886,-5.7886,-5.7886,-5.7886,-5.7886,-5.7886,-5.7886,-5.8061,-5.8336,-5.8362,-5.8362,-5.871,-5.8883,-5.8883,-5.8883,-5.8883,-5.9031,-5.9031,-5.9352,-5.9672,-8.0329,-8.0715,-7.8148,-7.6358,-7.5086,-7.2687,-7.1034,-6.9964,-7.011,-7.0657,-7.1315,-7.2104,-7.219,-7.1851,-7.2473,-7.2247,-7.1186,-7.0624,-7.0467,-7.047,-7.0635,-7.1084,-7.1682,-7.237,-7.2729,-7.2729,-7.2729,-7.2729,-7.2699,-7.2729,-7.24,-7.1622,-7.0366,-6.9378,-6.881,-6.8211,-6.7553,-6.6805,-6.6775,-6.6147,-6.4951,-6.4232,-6.382,-6.3705,-6.3735,-6.4021,-6.4747,-6.5023,-6.5016,-6.4661,-6.4955,-6.5246,-6.5373,-6.5373,-6.5657,-6.6223,-6.6286,-6.6342,-6.6304,-6.5203,-6.4354,-6.3839,-6.462,-6.5189,-6.5189,-6.619,-6.6895,-6.6895,-6.6895,-6.6895,-6.6895,-6.6895,-6.6895,-6.6895,-6.6178,-6.5884,-6.5723,-6.532,-6.4915,-6.4779,-6.4752,-6.448,-6.3904,-6.302,-6.232,-6.1496,-6.0923,-5.9909,-5.9079,-5.8436,-5.7886,-5.7886,-5.7886,-5.7886,-5.7886,-5.7886,-5.7886,-5.7886,-5.7886,-5.7886,-5.7886,-5.7886,-5.8061,-5.8186,-5.8162,-5.8312,-5.8436,-5.861,-5.861,-5.861,-5.861,-5.8586,-5.861,-5.8784,-5.8784,-8.0645,-8.0325,-7.8129,-7.6402,-7.4962,-7.3284,-7.1231,-6.9408,-7.1085,-7.2499,-7.3715,-7.3693,-7.3124,-7.2183,-7.2276,-7.2335,-7.2353,-7.1287,-7.2103,-7.4372,-7.3553,-7.3866,-7.5122,-7.5332,-7.5392,-7.5422,-7.5392,-7.5422,-7.5392,-7.5392,-7.5182,-7.4733,-7.3746,-7.24,-7.0964,-6.9797,-6.9259,-6.9259,-6.9079,-6.7852,-6.5549,-6.531,-6.4701,-6.3718,-6.3627,-6.3992,-6.4644,-6.4716,-6.4467,-6.398,-6.4014,-6.4143,-6.4335,-6.4335,-6.4712,-6.5625,-6.5751,-6.6381,-6.7671,-6.6618,-6.6123,-6.6289,-6.5537,-6.5189,-6.5217,-6.6021,-6.6698,-6.6895,-6.6895,-6.6895,-6.6895,-6.6895,-6.6895,-6.6764,-6.5723,-6.4834,-6.4889,-6.4229,-6.3587,-6.3263,-6.2963,-6.2874,-6.1598,-6.0772,-6.0239,-5.8908,-5.9252,-5.9642,-5.9374,-5.871,-5.8036,-5.7886,-5.7886,-5.7886,-5.7886,-5.7886,-5.7886,-5.7886,-5.7886,-5.7886,-5.7886,-5.7886,-5.7886,-5.791,-5.7886,-5.791,-5.7886,-5.7886,-5.8036,-5.8036,-5.8036,-5.8061,-5.8036,-5.8036,-5.8036,-7.8674,-7.7741,-7.6273,-7.5072,-7.4131,-7.1917,-7.0299,-6.9353,-7.2137,0.0,0.0,-7.384,-7.3931,-7.3662,-7.3924,-7.3513,-7.2707,-7.2364,-7.267,-7.328,-7.4141,-7.5212,-7.6499,-7.7576,-7.8084,-7.8084,-7.8084,-7.8084,-7.8084,-7.8054,-7.6977,-7.5033,-7.4644,-7.3297,-7.1084,-7.0725,-7.0605,-7.0545,-6.9528,-6.875,-6.8271,-6.7194,-6.6222,-6.515,-6.512,-6.4793,-6.4082,-6.4541,-6.4696,-6.4854,-6.5222,-6.5146,-6.4398,-6.4335,-6.3893,-6.3044,-6.2921,-6.3517,-6.4933,-6.3962,-6.3821,-6.4974,-6.5123,-6.5189,-6.5189,-6.5259,-6.5795,-6.6811,-6.6895,-6.6895,-6.6895,-6.6895,-6.6895,-6.6895,-6.6604,-6.6302,-6.6093,-6.6838,-6.6558,-6.5449,-6.5794,-6.6131,-6.3441,-6.1994,-6.0974,-5.9895,-5.8883,-5.8312,-5.8312,-5.8036,-5.791,-5.7984,-5.7935,-5.7886,-5.7886,-5.7886,-5.7886,-5.7886,-5.7886,-5.7886,-5.7886,-5.7886,-5.7886,-5.7886,-5.7886,-5.7886,-5.7886,-5.7886,-5.7886,-5.7886,-5.7886,-5.7886,-5.7886,-5.7886,-5.791,-7.8072,-7.6199,-7.5344,-7.4571,0.0,-7.2662,-7.1925,-7.1644,-7.3814,-7.4843,-7.4913,-7.5061,-7.4494,-7.3354,-7.3494,-7.2901,-7.186,-7.2557,-7.3224,-7.3926,-7.5242,-7.6558,-7.7815,-7.8473,-7.8772,-7.8772,-7.8772,-7.8413,-7.7815,-7.7755,-7.6798,-7.4853,-7.4195,-7.3208,-7.1921,-7.1263,-7.0934,-7.0934,-7.0306,-6.9618,-6.8989,-6.8358,-6.7597,-6.6535,-6.6475,0.0,0.0,0.0,0.0,0.0,0.0,0.0,0.0,-6.4713,0.0,-6.3296,-6.2576,-6.2482,-6.2984,-6.2417,-6.1939,-6.1914,-6.2901,-6.3242,-6.2456,-6.3521,-6.4638,-6.5823,-6.5964,-6.6218,-6.6811,-6.6895,-6.6895,-6.6764,-6.5482,-6.4805,-6.5047,-6.4546,-6.3828,-6.3333,-6.3995,-6.4093,-6.2646,-6.128,-6.0376,-5.9753,-5.868,-5.7886,-5.7886,-5.7886,-5.8154,-5.8642,-5.8325,-5.791,-5.7886,-5.7886,-5.7886,-5.7886,-5.7886,-5.7886,-5.7886,-5.7886,-5.7886,-5.7886,-5.7886,-5.7886,-5.7886,-5.7886,-5.7886,-5.7886,-5.7886,-5.7886,-5.7886,-5.7886,-5.7886,-7.7752,-7.5825,-7.5108,-7.4458,-7.3838,-7.4322,-7.4504,-7.457,-7.5688,-7.6318,-7.652,-7.6073,-7.4688,-7.2733,-7.2501,-7.183,-7.0964,-7.2041,-7.3238,-7.4494,-7.5601,-7.6917,-7.8383,-7.8383,-7.8563,-7.8772,-7.8503,-7.7845,-7.6798,-7.6558,-7.5781,-7.4494,-7.3417,-7.2789,-7.246,0.0,0.0,0.0,-7.0934,-7.0425,-6.9378,-6.9317,-6.889,-6.7861,-6.78,0.0,-6.7858,-6.8332,-6.8248,-6.7491,-6.7953,0.0,0.0,0.0,0.0,0.0,0.0,0.0,0.0,0.0,0.0,0.0,-6.0583,-6.1022,-5.9828,-6.1754,-6.3589,-6.4708,-6.492,-6.5372,-6.6134,-6.619,-6.6275,-6.6398,-6.4423,-6.3393,-6.4482,-6.2687,-6.1318,-6.2061,-6.2099,-6.205,-6.1645,-6.0644,-6.0033,-5.9847,-5.8838,-5.8252,-5.8076,-5.8276,-5.8472,-5.8806,-5.8423,-5.791,-5.7886,-5.7886,-5.7886,-5.7886,-5.7886,-5.7886,-5.7886,-5.7886,-5.7886,-5.7886,-5.7886,-5.7886,-5.7886,-5.7886,-5.7886,-5.7886,-5.7886,-5.7886,-5.7886,-5.7886,-5.7886,-7.6923,-7.7427,-7.5612,-7.4426,-7.3874,-7.6376,-7.7365,-7.7365,-7.7562,-7.7726,-7.7562,-7.5516,-7.3886,-7.2617,-7.1593,-7.1025,-7.0934,-7.1113,-7.1891,-7.3118,-7.3327,-7.4704,-7.7037,-7.7067,-7.7695,-7.8683,-7.7635,-7.7007,-7.6798,-7.5661,-7.4464,-7.3178,-7.2968,-7.231,-7.1233,-7.1024,-7.0934,-7.0934,-7.0934,-7.0844,-7.0695,-7.0665,-7.0245,-6.9246,-6.9156,-6.8698,-6.7918,-6.7969,-6.821,-6.8849,-6.9064,-6.8201,-6.6412,-6.5027,-6.3202,0.0,-5.9362,0.0,0.0,0.0,0.0,0.0,0.0,0.0,0.0,-6.1434,-6.3099,-6.3465,-6.4412,-6.4695,-6.3735,-6.3679,-6.4102,-6.5146,-6.5002,-6.5501,-6.7287,-6.7174,-6.6733,-6.6177,-6.6084,-6.5059,-6.2661,-6.2327,-6.1829,-6.086,-5.9871,-5.9074,-5.8813,-5.8895,-5.8709,-5.7603,-5.7657,-5.791,-5.7886,-5.7886,-5.7886,-5.7886,-5.7886,-5.7886,-5.7886,-5.7886,-5.7886,-5.7886,-5.7886,-5.7886,-5.7886,-5.7886,-5.7886,-5.7886,-5.7886,-5.7886,-5.7886,-5.7886,-5.7886,-7.786,-7.7855,-7.697,-7.6331,-7.6115,-7.7398,-7.7924,-7.7858,-7.7069,-7.6707,-7.6578,-7.4181,-7.2474,-7.1421,-7.0388,-7.0246,-7.0964,-7.1682,-7.234,-7.2938,-7.3656,-7.4614,-7.5691,-7.5721,-7.602,-7.6588,-7.599,-7.5332,-7.4644,-7.4045,-7.3088,-7.1861,-7.1802,-7.1143,-6.9917,-6.9857,-7.0216,-7.0934,-7.0934,-7.0934,-7.0934,-7.0934,-7.0755,-7.0305,-7.0305,-7.0004,-6.9521,-6.987,-7.0446,-7.1064,-7.0797,-6.9551,-6.7577,-6.5468,-6.3076,0.0,0.0,0.0,0.0,0.0,0.0,0.0,0.0,0.0,0.0,0.0,-6.0515,-6.1238,-6.3662,-6.4554,-6.3312,-6.3199,-6.3143,-6.2974,-6.2045,-6.1981,-6.3256,-6.3835,-6.3934,-6.3345,-6.4048,-6.395,-6.2856,-6.2083,-6.1668,-6.1829,-6.0133,-5.9033,-5.9245,-5.8467,-5.7877,-5.7795,-5.7491,-5.7258,-5.7536,-5.7735,-5.7886,-5.7886,-5.7886,-5.7886,-5.7886,-5.7886,-5.7886,-5.7886,-5.7886,-5.7886,-5.7886,-5.7886,-5.7886,-5.7886,-5.7886,-5.7886,-5.7886,-5.7886,-5.7886,-7.8597,-7.7956,-7.72,-7.7297,-7.7919,-7.7232,-7.6904,-7.6806,-7.5754,-7.5293,-7.51,-7.2867,-7.1533,-7.0735,-6.9457,-6.9401,-7.0275,-7.1474,-7.2074,-7.2041,-7.3297,-7.4105,-7.4404,-7.4404,-7.4554,-7.4823,-7.4524,-7.3866,-7.2909,-7.2579,-7.1772,-7.0515,-7.0485,-6.9827,-6.857,-6.881,-6.9438,-7.0455,-7.0784,-7.0934,-7.0934,-7.0934,-7.0934,-7.0934,-7.0934,-7.0934,-7.0934,-7.1415,-7.1978,-7.2587,-7.1862,-7.0486,-6.8489,-6.5814,0.0,0.0,0.0,0.0,0.0,0.0,0.0,0.0,0.0,-5.6649,-5.6436,0.0,-5.885,0.0,-6.3022,-6.4243,-6.3284,-6.2663,0.0,0.0,-5.9332,-5.8697,-6.0073,-6.0455,-6.0547,-6.0629,-6.1478,-6.2024,-6.1888,-6.1265,-6.108,-6.176,-6.0117,-5.8593,-5.8553,-5.7402,-5.6769,-5.6735,-5.6267,-5.6011,-5.6215,-5.6828,-5.7269,-5.7687,-5.7735,-5.7735,-5.7886,-5.7886,-5.7886,-5.7886,-5.7886,-5.7886,-5.7886,-5.7886,-5.7886,-5.7886,-5.7886,-5.7886,-5.7886,-5.7886,-5.7886,-7.7989,-7.7694,-7.5096,-7.5538,-7.7628,-7.5147,-7.4011,-7.4011,-7.3912,-7.3847,-7.3753,-7.2446,-7.1728,-7.1355,-6.9512,0.0,-6.8109,-6.9211,-6.9524,-6.9348,-7.0635,-7.1891,-7.3028,-7.3058,-7.3686,-7.4793,-7.3627,-7.2998,-7.2819,-7.1682,-7.0425,-6.9169,-6.9139,-6.8451,-6.7314,-6.8391,-6.9019,-6.9139,-7.0336,-7.0934,-7.0934,-7.0934,-7.0934,-7.0934,-7.0934,-7.0934,-7.0934,-7.1055,-7.1504,-7.2556,-7.1504,-7.0116,-6.8521,0.0,0.0,0.0,0.0,0.0,0.0,0.0,0.0,0.0,0.0,0.0,0.0,0.0,0.0,-6.1719,-6.2711,0.0,-6.3199,-6.1083,0.0,0.0,0.0,-5.8546,-6.1654,-6.011,-5.9474,-6.1158,0.0,0.0,-5.9765,-6.0242,-6.0389,-6.0197,-5.9868,-5.8632,-5.5432,-5.5996,-5.5932,-5.3868,-5.3516,-5.3687,-5.3997,-5.4618,-5.5628,-5.6769,-5.7185,-5.7385,-5.776,-5.7886,-5.7886,-5.7886,-5.7886,-5.7886,-5.7886,-5.7886,-5.7886,-5.7886,-5.7886,-5.7886,-5.7886,-5.7886,-5.7886,-7.51,-7.2583,-7.1455,-7.1659,-7.263,-7.2425,-7.2367,-7.2367,-7.2367,-7.1841,-7.0864,-6.9587,-6.8135,-6.663,-6.6611,0.0,0.0,0.0,-6.82,-6.9194,-6.9734,-7.0545,-7.1652,-7.1712,-7.2011,-7.246,-7.1951,-7.1712,-7.1682,-7.1203,-6.9438,-6.6626,0.0,-6.6267,-6.5788,-6.7105,-6.8182,-6.8989,-7.0276,-7.0934,-7.0934,-7.0934,-7.0934,-7.0934,-7.0934,-7.0934,-7.0934,-7.0934,-7.1023,-7.1254,-6.9367,-6.7337,0.0,0.0,0.0,0.0,0.0,0.0,0.0,0.0,0.0,0.0,0.0,-5.5631,-5.5906,0.0,0.0,0.0,-5.9942,-6.0449,-6.0886,-5.9893,0.0,0.0,0.0,0.0,0.0,0.0,0.0,-5.6312,-5.7591,-5.8538,-5.8803,-5.8752,-5.8696,-5.8506,-5.7114,-5.5706,-5.4342,0.0,-5.395,-5.3566,-5.2855,-5.2644,-5.3526,-5.3331,-5.3566,-5.5005,-5.602,-5.6906,-5.7385,-5.7735,-5.7886,-5.7886,-5.7886,-5.7886,-5.7886,-5.7886,-5.7886,-5.7886,-5.7886,-5.7886,-5.7886,-5.7886,-5.7886,-7.1364,0.0,0.0,0.0,0.0,-6.9079,-6.9605,-6.9605,-6.9605,-6.9013,-6.7928,-6.6909,0.0,0.0,0.0,0.0,0.0,0.0,-6.7111,-6.8079,-6.9276,-7.0064,-7.0485,-7.0395,-7.0366,-7.0336,-7.0007,-6.9797,-6.9767,-6.9049,-6.7015,-6.3844,0.0,0.0,0.0,0.0,-6.7249,-6.8717,-7.0246,-7.0934,-7.0934,-7.0934,-7.0934,-7.0934,-7.0934,-7.0934,-7.0934,-7.0665,-7.024,-6.9797,-6.7358,0.0,0.0,0.0,0.0,0.0,0.0,0.0,0.0,0.0,0.0,0.0,0.0,0.0,0.0,0.0,0.0,0.0,0.0,0.0,-5.9626,-5.9302,-5.8482,0.0,0.0,0.0,0.0,0.0,0.0,0.0,0.0,0.0,-5.7175,-5.7029,-5.6927,0.0,0.0,-5.3957,-5.2957,-5.232,-5.2088,-5.2103,-5.1186,0.0,-5.1647,-5.1246,-5.1315,-5.2752,-5.4402,-5.5844,-5.6449,-5.6683,-5.681,-5.6786,-5.7227,-5.7325,-5.7081,-5.6959,-5.6959,-5.6983,-5.6959,-5.6983,-5.6959,-5.6983,-5.6959,0.0,0.0,0.0,0.0,-6.3887,0.0,0.0,0.0,-6.5199,-6.5232,0.0,-6.5035,0.0,0.0,0.0,0.0,-6.2819,-6.552,0.0,0.0,-6.8825,-7.0306,-6.9457,-6.9047,-6.8989,-6.8959,-6.7733,-6.7105,-6.6925,-6.4502,0.0,0.0,0.0,0.0,0.0,0.0,-6.602,-6.8252,-6.9976,-7.0934,-7.0934,-7.0934,-7.0934,-7.0934,-7.0934,-7.0934,-7.0874,-7.0002,-6.9054,-6.8221,-6.616,0.0,0.0,0.0,0.0,0.0,0.0,0.0,0.0,0.0,0.0,0.0,0.0,0.0,0.0,0.0,0.0,0.0,0.0,0.0,0.0,-5.9796,0.0,0.0,0.0,0.0,0.0,0.0,0.0,0.0,0.0,-5.496,-5.468,-5.5118,-5.5466,-5.549,0.0,0.0,0.0,0.0,-5.0787,-4.8288,-4.7763,-4.7481,-4.6816,-4.7834,-4.9164,-5.0405,0.0,0.0,-5.4948,-5.4552,-5.4191,-5.4142,-5.5327,-5.5958,-5.4957,-5.486,-5.4835,-5.4835,-5.4884,-5.4762,-5.4787,-5.4982,-5.4909,0.0,0.0,0.0,0.0,0.0,0.0,0.0,0.0,0.0,-6.4779,-6.3952,-6.3919,0.0,0.0,0.0,0.0,0.0,0.0,0.0,0.0,-6.5227,-6.5768,-6.5978,-6.573,-6.5511,-6.5291,-6.4841,-6.3868,0.0,0.0,0.0,0.0,0.0,0.0,0.0,0.0,-6.5444,-6.6501,-6.9409,-7.0691,-7.002,-7.057,-7.0934,-7.0934,-7.0934,-7.0665,-7.0002,-6.8178,-6.6833,0.0,0.0,0.0,0.0,0.0,0.0,0.0,0.0,0.0,0.0,0.0,0.0,0.0,0.0,0.0,0.0,0.0,0.0,0.0,0.0,0.0,0.0,0.0,-5.994,0.0,0.0,0.0,0.0,0.0,0.0,0.0,0.0,0.0,-5.2684,-5.3891,-5.4916,-5.5303,-5.418,-5.2799,-5.106,0.0,0.0,0.0,0.0,0.0,0.0,0.0,-4.6793,-4.7838,-4.9228,-5.0736,-5.2584,-5.3566,-5.4022,-5.4022,0.0,0.0,-5.3786,-5.4152,-5.464,-5.464,-5.464,-5.464,-5.464,-5.464,-5.4474,0.0,0.0,0.0,0.0,0.0,0.0,0.0,0.0,0.0,-6.3602,-6.2332,0.0,0.0,0.0,0.0,0.0,0.0,0.0,0.0,0.0,0.0,0.0,-6.3806,-6.3601,0.0,0.0,0.0,0.0,0.0,0.0,0.0,0.0,0.0,0.0,0.0,0.0,-6.4736,-6.5679,-6.9141,-7.0662,-7.002,-7.054,-7.0934,-7.0934,-7.0934,-7.0425,-6.9427,0.0,0.0,0.0,0.0,0.0,0.0,0.0,0.0,0.0,0.0,0.0,0.0,0.0,0.0,0.0,0.0,0.0,0.0,0.0,0.0,0.0,0.0,0.0,0.0,0.0,-5.9018,0.0,0.0,0.0,0.0,0.0,0.0,0.0,0.0,0.0,0.0,-5.2279,-5.3319,-5.4496,-5.3093,-5.1697,-5.1039,-4.9893,-4.8796,0.0,0.0,0.0,0.0,0.0,0.0,0.0,0.0,0.0,0.0,0.0,0.0,0.0,0.0,-5.3461,-5.2751,-5.3216,-5.3706,-5.3566,0.0,0.0,0.0,0.0,0.0,0.0,0.0,0.0,0.0,0.0,0.0,0.0,0.0,0.0,0.0,-6.0078,0.0,0.0,-5.7885,0.0,0.0,0.0,0.0,0.0,0.0,0.0,0.0,0.0,0.0,0.0,0.0,0.0,0.0,0.0,0.0,0.0,0.0,0.0,0.0,0.0,0.0,-6.3974,-6.5723,-6.92,-7.0934,-7.0934,-7.0934,-7.0934,-7.0934,-7.0904,-7.0365,-6.9367,0.0,0.0,0.0,0.0,0.0,0.0,0.0,0.0,0.0,0.0,0.0,0.0,0.0,0.0,0.0,0.0,0.0,0.0,0.0,0.0,0.0,0.0,0.0,0.0,0.0,0.0,-5.9185,-5.94,-5.8229,0.0,0.0,0.0,0.0,0.0,0.0,0.0,0.0,0.0,-5.2938,-5.204,-5.0978,-5.0216,-4.885,-4.7448,-4.572,-4.5578,-4.5243,-4.4514,-4.4593,-4.5496,0.0,0.0,0.0,0.0,0.0,0.0,0.0,0.0,0.0,0.0,0.0,0.0,0.0,0.0,0.0,0.0,0.0,0.0,0.0,0.0,0.0,0.0,0.0,0.0,0.0,0.0,0.0,0.0,0.0,0.0,0.0,0.0,0.0,0.0,0.0,0.0,0.0,0.0,0.0,0.0,0.0,0.0,0.0,0.0,0.0,0.0,0.0,0.0,0.0,0.0,0.0,0.0,0.0,0.0,-6.4093,-6.5823,-6.926,-7.057,-6.9897,-7.054,-7.0934,-7.0904,-7.0036,-6.9164,0.0,0.0,0.0,0.0,0.0,0.0,0.0,0.0,0.0,0.0,0.0,0.0,0.0,0.0,0.0,0.0,0.0,0.0,0.0,0.0,0.0,0.0,0.0,0.0,0.0,0.0,0.0,0.0,-6.122,-6.008,-5.6594,0.0,0.0,0.0,0.0,0.0,0.0,0.0,0.0,0.0,0.0,-4.9782,-4.8438,-4.8137,-4.7426,-4.5423,-4.5336,-4.558,-4.5248,-4.4888,-4.4929,-4.6203,0.0,0.0,0.0,0.0,0.0,0.0,0.0,0.0,0.0,0.0,0.0,0.0,0.0,0.0,0.0,0.0,0.0,0.0,0.0,0.0,0.0,0.0,0.0,0.0,0.0,0.0,0.0,0.0,0.0,0.0,0.0,0.0,0.0,0.0,0.0,0.0,0.0,0.0,0.0,0.0,0.0,0.0,0.0,0.0,0.0,0.0,0.0,0.0,0.0,0.0,0.0,0.0,0.0,-6.4511,-6.6522,-6.9439,-7.0691,-7.002,-7.0662,-7.0934,-7.0934,-6.9648,-6.8439,0.0,0.0,0.0,0.0,0.0,0.0,0.0,0.0,0.0,0.0,0.0,0.0,0.0,0.0,0.0,0.0,0.0,0.0,0.0,0.0,0.0,0.0,0.0,0.0,0.0,0.0,0.0,0.0,-6.0296,-6.0189,-5.8008,0.0,0.0,0.0,0.0,0.0,0.0,0.0,0.0,0.0,0.0,-4.9145,-4.762,-4.7752,0.0,0.0,-4.5678,-4.6166,-4.5501,-4.5512,-4.5764,-4.5993,-4.6373,0.0,0.0,0.0,0.0,0.0,0.0,0.0,0.0,0.0,0.0,0.0,0.0,0.0,0.0,0.0,0.0,0.0,0.0,0.0,0.0,0.0,0.0,0.0,0.0,0.0,0.0,0.0,0.0,0.0,0.0,0.0,0.0,0.0,0.0,0.0,0.0,0.0,0.0,0.0,0.0,0.0,0.0,0.0,0.0,0.0,0.0,0.0,0.0,0.0,0.0,0.0,0.0,-6.5052,-6.7522,-6.9824,-7.0934,-7.0934,-7.0934,-7.0934,-7.0904,-6.9588,-6.7843,0.0,0.0,0.0,0.0,0.0,0.0,0.0,0.0,0.0,0.0,0.0,0.0,0.0,0.0,0.0,0.0,0.0,0.0,0.0,0.0,0.0,0.0,0.0,0.0,0.0,0.0,0.0,0.0,0.0,0.0,0.0,0.0,0.0,0.0,0.0,0.0,0.0,0.0,0.0,0.0,0.0,-4.9309,-4.7753,-4.7517,-4.7177,0.0,-4.6594,-4.7139,-4.5438,-4.6564,-4.7305,-4.6451,0.0,0.0,0.0,0.0,0.0,0.0,0.0,0.0,0.0,0.0,0.0,0.0,0.0,0.0,0.0,0.0,0.0,0.0,0.0,0.0,0.0,0.0,0.0,0.0,0.0,0.0,0.0,0.0,0.0,0.0,0.0,0.0,0.0,0.0,0.0,0.0,0.0,0.0,0.0,0.0,0.0,0.0,0.0,0.0,0.0,0.0,0.0,0.0,0.0,0.0,0.0,0.0,0.0,0.0,-6.7969,-6.9942,-7.0934,-7.0934,-7.0934,-7.0934,-7.0904,-6.869,0.0,0.0,0.0,0.0,0.0,0.0,0.0,0.0,0.0,0.0,0.0,0.0,0.0,0.0,0.0,0.0,0.0,0.0,0.0,0.0,0.0,0.0,0.0,0.0,0.0,0.0,0.0,-5.3374,0.0,0.0,0.0,0.0,0.0,0.0,0.0,0.0,0.0,0.0,0.0,0.0,0.0,0.0,-4.9717,-4.8278,-4.8333,-4.8249,0.0,0.0,-4.8628,-4.8652,-4.8199,-4.8065,0.0,0.0,0.0,0.0,0.0,0.0,0.0,0.0,0.0,0.0,0.0,0.0,0.0,0.0,0.0,0.0,0.0,0.0,0.0,0.0,0.0,0.0,0.0,0.0,0.0,0.0,0.0,0.0,0.0,0.0,0.0,0.0,0.0,0.0,0.0,0.0,0.0,0.0,0.0,0.0,0.0,0.0,0.0,0.0,0.0,0.0,0.0,0.0,0.0,0.0,0.0,0.0,0.0,0.0,-6.5249,-6.7416,-6.9302,-7.0455,-7.0904,-7.0934,-7.0934,-7.0934,-6.8391,-6.6454,0.0,0.0,0.0,0.0,0.0,0.0,0.0,0.0,0.0,0.0,0.0,0.0,0.0,0.0,0.0,0.0,0.0,0.0,0.0,0.0,0.0,0.0,0.0,0.0,0.0,0.0,0.0,0.0,0.0,0.0,0.0,0.0,0.0,0.0,0.0,0.0,0.0,0.0,0.0,0.0,0.0,0.0,-4.9007,-4.8983,0.0,0.0,0.0,-4.9693,-4.9431,0.0,0.0,0.0,0.0,0.0,0.0,0.0,0.0,0.0,0.0,0.0,0.0,0.0,0.0,0.0,0.0,0.0,0.0,0.0,0.0,0.0,0.0,0.0,0.0,0.0,0.0,0.0,0.0,0.0,0.0,0.0,0.0,0.0,0.0,0.0,0.0,0.0,0.0,0.0,0.0,0.0,0.0,0.0,0.0,0.0,0.0,0.0,0.0,0.0,0.0,0.0,0.0,0.0,0.0,0.0,0.0,0.0,-6.6576,-6.8464,-6.9942,-7.0844,-7.0934,-7.0934,-7.0904,-6.8541,-6.6243,0.0,0.0,0.0,0.0,0.0,0.0,0.0,0.0,0.0,0.0,0.0,0.0,0.0,0.0,0.0,0.0,0.0,0.0,0.0,0.0,0.0,0.0,0.0,0.0,0.0,0.0,0.0,0.0,0.0,0.0,0.0,0.0,0.0,0.0,0.0,0.0,0.0,0.0,0.0,0.0,0.0,-5.1522,-5.0005,-4.9793,-4.9284,0.0,0.0,-5.0656,-4.9274,-5.0219,0.0,0.0,0.0,0.0,0.0,0.0,0.0,0.0,0.0,0.0,0.0,0.0,0.0,0.0,0.0,0.0,0.0,0.0,0.0,0.0,0.0,0.0,0.0,0.0,0.0,0.0,0.0,0.0,0.0,0.0,0.0,0.0,0.0,0.0,0.0,0.0,0.0,0.0,0.0,0.0,0.0,0.0,0.0,0.0,0.0,0.0,0.0,0.0,0.0,0.0,0.0,0.0,0.0,0.0,0.0,0.0,-6.7071,-6.88,-7.0146,-7.0874,-7.0934,-7.0934,-7.0904,-6.9408,-6.7063,0.0,0.0,0.0,0.0,0.0,0.0,0.0,0.0,0.0,0.0,0.0,0.0,0.0,0.0,0.0,0.0,0.0,0.0,0.0,0.0,0.0,0.0,0.0,0.0,0.0,0.0,0.0,0.0,0.0,0.0,0.0,0.0,0.0,0.0,0.0,0.0,0.0,0.0,0.0,0.0,0.0,-5.3375,-5.386,-5.2294,0.0,0.0,0.0,0.0,-5.1485,-5.117,0.0,0.0,0.0,0.0,0.0,0.0,0.0,0.0,0.0,0.0,0.0,0.0,0.0,0.0,0.0,0.0,0.0,0.0,0.0,0.0,0.0,0.0,0.0,0.0,0.0,0.0,0.0,0.0,0.0,0.0,0.0,0.0,0.0,0.0,0.0,0.0,0.0,0.0,0.0,0.0,0.0,0.0,0.0,0.0,0.0,0.0,0.0,0.0,0.0,0.0,0.0,0.0,0.0,0.0,0.0,0.0,-6.6437,-6.7588,-6.8805,-7.0036,-7.0605,-7.0635,-7.0007,-6.9318,-6.7303,0.0,0.0,0.0,0.0,0.0,0.0,0.0,0.0,0.0,0.0,0.0,0.0,0.0,0.0,0.0,0.0,0.0,0.0,0.0,0.0,0.0,0.0,0.0,0.0,0.0,0.0,0.0,0.0,0.0,0.0,0.0,0.0,0.0,0.0,0.0,0.0,0.0,0.0,0.0,0.0,-5.2829,-5.3024,-5.4249,0.0,0.0,0.0,0.0,0.0,0.0,-5.2161,-5.1853,0.0,0.0,0.0,0.0,0.0,0.0,0.0,0.0,0.0,0.0,0.0,0.0,0.0,0.0,0.0,0.0,0.0,0.0,0.0,0.0,0.0,0.0,0.0,0.0,0.0,0.0,0.0,0.0,0.0,0.0,0.0,0.0,0.0,0.0,0.0,0.0,0.0,0.0,0.0,0.0,0.0,0.0,0.0,0.0,0.0,0.0,0.0,0.0,0.0,0.0,0.0,0.0,0.0,0.0,0.0,-6.5591,-6.6237,-6.7381,-6.9134,-7.0365,-7.0425,-6.9318,-6.9079,-6.7333,-6.3856,0.0,0.0,0.0,0.0,0.0,0.0,0.0,0.0,0.0,0.0,0.0,0.0,0.0,0.0,0.0,0.0,0.0,0.0,0.0,0.0,0.0,0.0,0.0,0.0,0.0,0.0,0.0,0.0,0.0,0.0,0.0,0.0,0.0,0.0,0.0,0.0,0.0,0.0,0.0,-5.2781,-5.2586,0.0,0.0,0.0,0.0,0.0,0.0,0.0,0.0,-5.2753,0.0,0.0,0.0,0.0,0.0,0.0,0.0,0.0,0.0,0.0,0.0,0.0,0.0,0.0,0.0,0.0,0.0,0.0,0.0,0.0,0.0,0.0,0.0,0.0,0.0,0.0,0.0,0.0,0.0,0.0,0.0,0.0,0.0,0.0,0.0,0.0,0.0,0.0,0.0,0.0,0.0,0.0,0.0,0.0,0.0,0.0,0.0,0.0,0.0,0.0,0.0,0.0,0.0,0.0,0.0,0.0,-6.6451,-6.8003,-6.9623,-7.0485,-7.0844,-7.0605,-6.9558,-6.7219,-6.3584,0.0,0.0,0.0,0.0,0.0,0.0,0.0,0.0,0.0,0.0,0.0,0.0,0.0,0.0,0.0,0.0,0.0,0.0,0.0,0.0,0.0,0.0,0.0,0.0,0.0,0.0,0.0,0.0,0.0,0.0,0.0,0.0,0.0,0.0,0.0,0.0,0.0,0.0,-5.3687,-5.371,0.0,0.0,0.0,0.0,0.0,0.0,0.0,0.0,-5.367,0.0,0.0,0.0,0.0,0.0,0.0,0.0,0.0,0.0,0.0,0.0,0.0,0.0,0.0,0.0,0.0,0.0,0.0,0.0,0.0,0.0,0.0,0.0,0.0,0.0,0.0,0.0,0.0,0.0,0.0,0.0,0.0,0.0,0.0,0.0,0.0,0.0,0.0,0.0,0.0,0.0,0.0,0.0,0.0,0.0,0.0,0.0,0.0,0.0,0.0,0.0,0.0,0.0,0.0,0.0,0.0,0.0,0.0,-6.6739,-6.7676,-6.926,-7.0091,-6.9827,-6.7339,-6.4841,0.0,0.0,0.0,0.0,0.0,0.0,0.0,0.0,0.0,0.0,0.0,0.0,0.0,0.0,0.0,0.0,0.0,0.0,0.0,0.0,0.0,0.0,0.0,0.0,0.0,0.0,0.0,0.0,0.0,0.0,0.0,0.0,0.0,0.0,0.0,0.0,0.0,0.0,0.0,0.0,0.0,0.0,0.0,0.0,0.0,0.0,0.0,0.0,0.0,0.0,0.0,0.0,0.0,0.0,0.0,0.0,0.0,0.0,0.0,0.0,0.0,0.0,0.0,0.0,0.0,0.0,0.0,0.0,0.0,0.0,0.0,0.0,0.0,0.0,0.0,0.0,0.0,0.0,0.0,0.0,0.0,0.0,0.0,0.0,0.0,0.0,0.0,0.0,0.0,0.0,0.0,0.0,0.0,0.0,0.0,0.0,0.0,0.0,0.0,0.0,0.0,0.0,0.0,0.0,0.0,0.0,0.0,0.0,-6.5194,-6.5904,-6.7623,-6.8663,-6.8959,-6.4831,-6.2169,0.0,0.0,0.0,0.0,0.0,0.0,0.0,0.0,0.0,0.0,0.0,0.0,0.0,0.0,0.0,0.0,0.0,0.0,0.0,0.0,0.0,0.0,0.0,0.0,0.0,0.0,0.0,0.0,0.0,0.0,0.0,0.0,0.0,0.0,0.0,0.0,0.0,0.0,0.0,0.0,0.0,0.0,0.0,0.0,0.0,0.0,0.0,0.0,-5.362,0.0,0.0,0.0,0.0,0.0,0.0,0.0,0.0,0.0,0.0,0.0,0.0,0.0,0.0,0.0,0.0,0.0,0.0,0.0,0.0,0.0,0.0,0.0,0.0,0.0,0.0,0.0,0.0,0.0,0.0,0.0,0.0,0.0,0.0,0.0,0.0,0.0,0.0,0.0,0.0,0.0,0.0,0.0,0.0,0.0,0.0,0.0,0.0,0.0,0.0,0.0,0.0,0.0,0.0,0.0,0.0,0.0,0.0,0.0,-6.3889,-6.6695,-6.5892,-6.6512,-6.869,-6.3355,-6.0138,0.0,0.0,0.0,0.0,0.0,0.0,0.0,0.0,0.0,0.0,0.0,0.0,0.0,0.0,0.0,0.0,0.0,0.0,0.0,0.0,0.0,0.0,0.0,0.0,0.0,0.0,0.0,0.0,0.0,0.0,0.0,0.0,0.0,0.0,0.0,0.0,0.0,0.0,0.0,0.0,0.0,0.0,0.0,0.0,0.0,0.0,0.0,0.0,0.0,0.0,0.0,0.0,0.0,0.0,0.0,0.0,0.0,0.0,0.0,0.0,0.0,0.0,0.0,0.0,0.0,0.0,0.0,0.0,0.0,0.0,0.0,0.0,0.0,0.0,0.0,0.0,0.0,0.0,0.0,0.0,0.0,0.0,0.0,0.0,0.0,0.0,0.0,0.0,0.0,0.0,0.0,0.0,0.0,0.0,0.0,0.0,0.0,0.0,0.0,0.0,0.0,0.0,0.0,0.0,0.0,0.0,0.0,0.0,-6.3203,-6.4489,-6.4331,-6.4379,-6.4788,-6.026,-5.7933,0.0,0.0,0.0,0.0,0.0,0.0,0.0,0.0,0.0,0.0,0.0,0.0,0.0,0.0,0.0,0.0,0.0,0.0,0.0,0.0,0.0,0.0,0.0,0.0,0.0,0.0,0.0,0.0,0.0,0.0,0.0,0.0,0.0,0.0,0.0,0.0,0.0,0.0,0.0,0.0,0.0,0.0,0.0,0.0,0.0,0.0,0.0,0.0,0.0,0.0,0.0,0.0,0.0,0.0,0.0,0.0,0.0,0.0,0.0,0.0,0.0,0.0,0.0,0.0,0.0,0.0,0.0,0.0,0.0,0.0,0.0,0.0,0.0,0.0,0.0,0.0,0.0,0.0,0.0,0.0,0.0,0.0,0.0,0.0,0.0,0.0,0.0,0.0,0.0,0.0,0.0,0.0,0.0,0.0,0.0,0.0,0.0,0.0,0.0,0.0,0.0,0.0,0.0,0.0,0.0,0.0,0.0,0.0,0.0,-6.1975,-6.1566,-6.0912,-5.9891,-5.7222,-5.5962,0.0,0.0,0.0,0.0,0.0,0.0,0.0,0.0,0.0,0.0,0.0,0.0,0.0,0.0,0.0,0.0,0.0,0.0,0.0,0.0,0.0,0.0,0.0,0.0,0.0,0.0,0.0,0.0,0.0,0.0,0.0,0.0,0.0,0.0,0.0,0.0,0.0,0.0,0.0,0.0,0.0,0.0,0.0,0.0,0.0,0.0,0.0,0.0,0.0,0.0,0.0,0.0,0.0,0.0,0.0,0.0,0.0,0.0,0.0,0.0,0.0,0.0,0.0,0.0,0.0,0.0,0.0,0.0,0.0,0.0,0.0,0.0,0.0,0.0,0.0,0.0,0.0,0.0,0.0,0.0,0.0,0.0,0.0,0.0,0.0,0.0,0.0,0.0,0.0,0.0,0.0,0.0,0.0,0.0,0.0,0.0,0.0,0.0,0.0,0.0,0.0,0.0,0.0,0.0,0.0,0.0,0.0,0.0,0.0,-5.985,-5.6841,-5.5168,-5.4927,-5.4887,-5.4545,0.0,0.0,0.0,0.0,0.0,0.0,0.0,0.0,0.0,0.0,0.0,0.0,0.0,0.0,0.0,0.0,0.0,0.0,0.0,0.0,0.0,0.0,0.0,0.0,0.0,0.0,0.0,0.0,0.0,0.0,0.0,0.0,0.0,0.0,0.0,0.0,0.0,0.0,0.0,0.0,0.0,0.0,0.0,0.0,0.0,0.0,0.0,0.0,0.0,0.0,0.0,0.0,0.0,0.0,0.0,0.0,0.0,0.0,0.0,0.0,0.0,0.0,0.0,0.0,0.0,0.0,0.0,0.0,0.0,0.0,0.0,0.0,0.0,0.0,0.0,0.0,0.0,0.0,0.0,0.0,0.0,0.0,0.0,0.0,0.0,0.0,0.0,0.0,0.0,0.0,0.0,0.0,0.0,0.0,0.0,0.0,0.0,0.0,0.0,0.0,0.0,0.0,0.0,0.0,0.0,0.0,0.0,0.0,0.0,-5.5937,-5.4152,-5.3458,-5.4173,-5.3441,-5.3035,-5.326,0.0,0.0,0.0,0.0,0.0,0.0,0.0,0.0,0.0,0.0,0.0,0.0,0.0,0.0,0.0,0.0,0.0,0.0,0.0,0.0,0.0,0.0,0.0,0.0,0.0,0.0,0.0,0.0,0.0,0.0,0.0,0.0,0.0,0.0,0.0,0.0,0.0,0.0,0.0,0.0,0.0,0.0,0.0,0.0,0.0,0.0,0.0,0.0,0.0,0.0,0.0,0.0,0.0,0.0,0.0,0.0,0.0,0.0,0.0,0.0,0.0,0.0,0.0,0.0,0.0,0.0,0.0,0.0,0.0,0.0,0.0,0.0,0.0,0.0,0.0,0.0,0.0,0.0,0.0,0.0,0.0,0.0,0.0,0.0,0.0,0.0,0.0,0.0,0.0,0.0,0.0,0.0,0.0,0.0,0.0,0.0,0.0,0.0,0.0,0.0,0.0,0.0,0.0,0.0,0.0,0.0,0.0,0.0,-5.3695,-5.2511,-5.228,-5.3122,-5.2261,-5.204,0.0,0.0,0.0,0.0,0.0,0.0,0.0,0.0,0.0,0.0,0.0,0.0,0.0,0.0,0.0,0.0,0.0,0.0,0.0,0.0,0.0,0.0,0.0,0.0,0.0,0.0,0.0,0.0,0.0,0.0,0.0,0.0,0.0,0.0,0.0,0.0,0.0,0.0,0.0,0.0,0.0,0.0,0.0,0.0,0.0,0.0,0.0,0.0,0.0,0.0,0.0,0.0,0.0,0.0,0.0,0.0,0.0,0.0,0.0,0.0,0.0,0.0,0.0,0.0,0.0,0.0,0.0,0.0,0.0,0.0,0.0,0.0,0.0,0.0,0.0,0.0,0.0,0.0,0.0,0.0,0.0,0.0,0.0,0.0,0.0,0.0,0.0,0.0,0.0,0.0,0.0,0.0,0.0,0.0,0.0,0.0,0.0,0.0,0.0,0.0,0.0,0.0,0.0,0.0,0.0,0.0,0.0,0.0,-5.5061,-5.3193,-5.2077,-5.1619,-5.135,-5.1383,-5.1552,0.0,0.0,0.0,0.0,0.0,0.0,0.0,0.0,0.0,0.0,0.0,0.0,0.0,0.0,0.0,0.0,0.0,0.0,0.0,0.0,0.0,0.0,0.0,0.0,0.0,0.0,0.0,0.0,0.0,0.0,0.0,0.0,0.0,0.0,0.0,0.0,0.0,0.0,0.0,0.0,0.0,0.0,0.0,0.0,0.0,0.0,0.0,0.0,0.0,0.0,0.0,0.0,0.0,0.0,0.0,0.0,0.0,0.0,0.0,0.0,0.0,0.0,0.0,0.0,0.0,0.0,0.0,0.0,0.0,0.0,0.0,0.0,0.0,0.0,0.0,0.0,0.0,0.0,0.0,0.0,0.0,0.0,0.0,0.0,0.0,0.0,0.0,0.0,0.0,0.0,0.0,0.0,0.0,0.0,0.0,0.0,0.0,0.0,0.0,0.0,0.0,0.0,0.0,0.0,0.0,0.0,0.0,0.0,0.0,-5.4628,0.0,-5.2645,-5.2365,-5.2271,-5.2335,0.0,0.0,0.0,0.0,0.0,0.0,0.0,0.0,0.0,0.0,0.0,0.0,0.0,0.0,0.0,0.0,0.0,0.0,0.0,0.0,0.0,0.0,0.0,0.0,0.0,0.0,0.0,0.0,0.0,0.0,0.0,0.0,0.0,0.0,0.0,0.0,0.0,0.0,0.0,0.0,0.0,0.0,0.0,0.0,0.0,0.0,0.0,0.0,0.0,0.0,0.0,0.0,0.0,0.0,0.0,0.0,0.0,0.0,0.0,0.0,0.0,0.0,0.0,0.0,0.0,0.0,0.0,0.0,0.0,0.0,0.0,0.0,0.0,0.0,0.0,0.0,0.0,0.0,0.0,0.0,0.0,0.0,0.0,0.0,0.0,0.0,0.0,0.0,0.0,0.0,0.0,0.0,0.0,0.0,0.0,0.0,0.0,0.0,0.0,0.0,0.0,0.0,0.0,0.0,0.0,0.0,0.0,0.0,0.0,-5.58,-5.468,-5.388,-5.3464,-5.3287,-5.3287,0.0,0.0,0.0,0.0,0.0,0.0,0.0,0.0,0.0,0.0,0.0,0.0,0.0,0.0,0.0,0.0,0.0,0.0,0.0,0.0,0.0,0.0,0.0,0.0,0.0,0.0,0.0,0.0,0.0,0.0,0.0,0.0,0.0,0.0,0.0,0.0,0.0,0.0,0.0,0.0,0.0,0.0,0.0,0.0,0.0,0.0,0.0,0.0,0.0,0.0,0.0,0.0,0.0,0.0,0.0,0.0,0.0,0.0,0.0,0.0,0.0,0.0,0.0,0.0,0.0,0.0,0.0,0.0,0.0,0.0,0.0,0.0,0.0,0.0,0.0,0.0,0.0,0.0,0.0,0.0,0.0,0.0,0.0,0.0,0.0,0.0,0.0,0.0,0.0,0.0,0.0,0.0,0.0,0.0,0.0,0.0,0.0,0.0,0.0,0.0,0.0,0.0,0.0,0.0,0.0,0.0,0.0,0.0,0.0,-5.6587,-5.5963,-5.5259,-5.452,-5.4303,-5.4283,0.0,0.0,0.0,0.0,0.0,0.0,0.0,0.0,0.0,0.0,0.0,0.0,0.0,0.0,0.0,0.0,0.0,0.0,0.0,0.0,0.0,0.0,0.0,0.0,0.0,0.0,0.0,0.0,0.0,0.0,0.0,0.0,0.0,0.0,0.0,0.0,0.0,0.0,0.0,0.0,0.0,0.0,0.0,0.0,0.0,0.0,0.0,0.0,0.0,0.0,0.0,0.0,0.0,0.0,0.0,0.0,0.0,0.0,0.0,0.0,0.0,0.0,0.0,0.0,0.0,0.0,0.0,0.0,0.0,0.0,0.0,0.0,0.0,0.0,0.0,0.0,0.0,0.0,0.0,0.0,0.0,0.0,0.0,0.0,0.0,0.0,0.0,0.0,0.0,0.0,0.0,0.0,0.0,0.0,0.0,0.0,0.0,0.0,0.0,0.0,0.0,0.0,0.0,0.0,0.0,0.0,0.0,0.0,0.0,0.0,-5.6479,-5.6064,-5.5552,-5.5259,-5.5109,-5.5058,0.0,0.0,0.0,0.0,0.0,0.0,0.0,0.0,0.0,0.0,0.0,0.0,0.0,0.0,0.0,0.0,0.0,0.0,0.0,0.0,0.0,0.0,0.0,0.0,0.0,0.0,0.0,0.0,0.0,0.0,0.0,0.0,0.0,0.0,0.0,0.0,0.0,0.0,0.0,0.0,0.0,0.0,0.0,0.0,0.0,0.0,0.0,0.0,0.0,0.0,0.0,0.0,0.0,0.0,0.0,0.0,0.0,0.0,0.0,0.0,0.0,0.0,0.0,0.0,0.0,0.0,0.0,0.0,0.0,0.0,0.0,0.0,0.0,0.0,0.0,0.0,0.0,0.0,0.0,0.0,0.0,0.0,0.0,0.0,0.0,0.0,0.0,0.0,0.0,0.0,0.0,0.0,0.0,0.0,0.0,0.0,0.0,0.0,0.0,0.0,0.0,0.0,0.0,0.0,0.0,0.0,0.0,0.0,0.0,0.0,-5.6869,-5.6531,-5.6181,-5.5906,0.0,0.0,0.0,0.0,0.0,0.0,0.0,0.0,0.0,0.0,0.0,0.0,0.0,0.0,0.0,0.0,0.0,0.0,0.0,0.0,0.0,0.0,0.0,0.0,0.0,0.0,0.0,0.0,0.0,0.0,0.0,0.0,0.0,0.0,0.0,0.0,0.0,0.0,0.0,0.0,0.0,0.0,0.0,0.0,0.0,0.0,0.0,0.0,0.0,0.0,0.0,0.0,0.0,0.0,0.0,0.0,0.0,0.0,0.0,0.0,0.0,0.0,0.0,0.0,0.0,0.0,0.0,0.0,0.0,0.0,0.0,0.0,0.0,0.0,0.0,0.0,0.0,0.0,0.0,0.0,0.0,0.0,0.0,0.0,0.0,0.0,0.0,0.0,0.0,0.0,0.0,0.0,0.0,0.0,0.0,0.0,0.0,0.0,0.0,0.0,0.0,0.0,0.0,0.0,0.0,0.0,0.0,0.0,0.0,0.0,0.0,-5.7624,-5.7368,-5.7014,0.0,-5.643,0.0,0.0,0.0,0.0,0.0,0.0,0.0,0.0,0.0,0.0,0.0,0.0,0.0,0.0,0.0,0.0,0.0,0.0,0.0,0.0,0.0,0.0,0.0,0.0,0.0,0.0,0.0,0.0,0.0,0.0,0.0,0.0,0.0,0.0,0.0,0.0,0.0,0.0,0.0,0.0,0.0,0.0,0.0,0.0,0.0,0.0,0.0,0.0,0.0,0.0,0.0,0.0,0.0,0.0,0.0,0.0,0.0,0.0,0.0,0.0,0.0,0.0,0.0,0.0,0.0,0.0,0.0,0.0,0.0,0.0,0.0,0.0,0.0,0.0,0.0,0.0,0.0,0.0,0.0,0.0,0.0,0.0,0.0,0.0,0.0,0.0,0.0,0.0,0.0,0.0,0.0,0.0,0.0,0.0,0.0,0.0,0.0,0.0,0.0,0.0,0.0,0.0,0.0,0.0,0.0,0.0,0.0,0.0,0.0,0.0,0.0,0.0,-5.7588,-5.7443,-5.7366,0.0,0.0,0.0,0.0,0.0,0.0,0.0,0.0,0.0,0.0,0.0,0.0,0.0,0.0,0.0,0.0,0.0,0.0,0.0,0.0,0.0,0.0,0.0,0.0,0.0,0.0,0.0,0.0,0.0,0.0,0.0,0.0,0.0,0.0,0.0,0.0,0.0,0.0,0.0,0.0,0.0,0.0,0.0,0.0,0.0,0.0,0.0,0.0,0.0,0.0,0.0,0.0,0.0,0.0,0.0,0.0,0.0,0.0,0.0,0.0,0.0,0.0,0.0,0.0,0.0,0.0,0.0,0.0,0.0,0.0,0.0,0.0,0.0,0.0,0.0,0.0,0.0,0.0,0.0,0.0,0.0,0.0,0.0,0.0,0.0,0.0,0.0,0.0,0.0,0.0,0.0,0.0,0.0,0.0,0.0,0.0,0.0,0.0,0.0,0.0,0.0,0.0,0.0,0.0,0.0,0.0,0.0,0.0,0.0,0.0,-5.8526,-5.8271,-5.8125,-5.8001,-5.7902,0.0,0.0,0.0,0.0,0.0,0.0,0.0,0.0,0.0,0.0,0.0,0.0,0.0,0.0,0.0,0.0,0.0,0.0,0.0,0.0,0.0,0.0,0.0,0.0,0.0,0.0,0.0,0.0,0.0,0.0,0.0,0.0,0.0,0.0,0.0,0.0,0.0,0.0,0.0,0.0,0.0,0.0,0.0,0.0,0.0,0.0,0.0,0.0,0.0,0.0,0.0,0.0,0.0,0.0,0.0,0.0,0.0,0.0,0.0,0.0,0.0,0.0,0.0,0.0,0.0,0.0,0.0,0.0,0.0,0.0,0.0,0.0,0.0,0.0,0.0,0.0,0.0,0.0,0.0,0.0,0.0,0.0,0.0,0.0,0.0,0.0,0.0,0.0,0.0,0.0,0.0,0.0,0.0,0.0,0.0,0.0,0.0,0.0,0.0,0.0,0.0,0.0,0.0,0.0,0.0,0.0,0.0,0.0,0.0,0.0,0.0,0.0,0.0,0.0,-5.8374,0.0,0.0,0.0,0.0,0.0,0.0,0.0,0.0,0.0,0.0,0.0,0.0,0.0,0.0,0.0,0.0,0.0,0.0,0.0,0.0,0.0,0.0,0.0,0.0,0.0,0.0,0.0,0.0,0.0,0.0,0.0,0.0,0.0,0.0,0.0,0.0,0.0,0.0,0.0,0.0,0.0,0.0,0.0,0.0,0.0,0.0,0.0,0.0,0.0,0.0,0.0,0.0,0.0,0.0,0.0,0.0,0.0,0.0,0.0,0.0,0.0,0.0,0.0,0.0,0.0,0.0,0.0,0.0,0.0,0.0,0.0,0.0,0.0,0.0,0.0,0.0,0.0,0.0,0.0,0.0,0.0,0.0,0.0,0.0,0.0,0.0,0.0,0.0,0.0,0.0,0.0,0.0,0.0,0.0,0.0,0.0,0.0,0.0,0.0,0.0,0.0,0.0,0.0,0.0,0.0,0.0,0.0,0.0,0.0,0.0,0.0,0.0,0.0,0.0,0.0,0.0,0.0,0.0,0.0,0.0,0.0,0.0,0.0,0.0,0.0,0.0,0.0,0.0,0.0,0.0,0.0,0.0,0.0,0.0,0.0,0.0,0.0,0.0,0.0,0.0,0.0,0.0,0.0,0.0,0.0,0.0,0.0,0.0,0.0,0.0,0.0,0.0,0.0,0.0,0.0,0.0,0.0,0.0,0.0,0.0,0.0,0.0,0.0,0.0,0.0,0.0,0.0,0.0,0.0,0.0,0.0,0.0,0.0,0.0,0.0,0.0,0.0,0.0,0.0,0.0,0.0,0.0,0.0,0.0,0.0,0.0,0.0,0.0,0.0,0.0,0.0,0.0,0.0,0.0,0.0,0.0,0.0,0.0,0.0,0.0,0.0,0.0,0.0,0.0,0.0,0.0,0.0,0.0,0.0,0.0,0.0,0.0,0.0,0.0,0.0,0.0,0.0,0.0,0.0,0.0,0.0,0.0,0.0,0.0,0.0,0.0,0.0,0.0,0.0,0.0,0.0,0.0,0.0,0.0,0.0,0.0,0.0,0.0,0.0,0.0,0.0,0.0,0.0,0.0,0.0,0.0,0.0,0.0,0.0,0.0,0.0,0.0,0.0,0.0,0.0,0.0,0.0,0.0,0.0,0.0,0.0,0.0,0.0,0.0,0.0,0.0,0.0,0.0,0.0,0.0,0.0,0.0,0.0,0.0,0.0,0.0,0.0,0.0,0.0,0.0,0.0,0.0,0.0,0.0,0.0,0.0,0.0,0.0,0.0,0.0,0.0,0.0,0.0,0.0,0.0,0.0,0.0,0.0,0.0,0.0,0.0,0.0,0.0,0.0,0.0,0.0,0.0,0.0,0.0,0.0,0.0,0.0,0.0,0.0,0.0,0.0,0.0,0.0,0.0,0.0,0.0,0.0,0.0,0.0,0.0,0.0,0.0,0.0,0.0,0.0,0.0,0.0,0.0,0.0,0.0,0.0,0.0,0.0,0.0,0.0,0.0,0.0,0.0,0.0,0.0,0.0,0.0,0.0,0.0,0.0,0.0,0.0,0.0,0.0,0.0,0.0,0.0,0.0,0.0,0.0,0.0,0.0,0.0,0.0,0.0,0.0,0.0,0.0,0.0,0.0,0.0,0.0,0.0,0.0,0.0,0.0,0.0,0.0,0.0,0.0,0.0,0.0,0.0,0.0,0.0,0.0,0.0,0.0,0.0,0.0,0.0,0.0,0.0,0.0,0.0,0.0,0.0,0.0,0.0,0.0,0.0,0.0,0.0,0.0,0.0,0.0,0.0,0.0,0.0,0.0,0.0,0.0,0.0,0.0,0.0,0.0,0.0,0.0,0.0,0.0,0.0,0.0,0.0,0.0,0.0,0.0,0.0,0.0,0.0,0.0,0.0,0.0,0.0,0.0,0.0,0.0,0.0,0.0,0.0,0.0,0.0,0.0,0.0,0.0,0.0,0.0,0.0,0.0,0.0,0.0,0.0,0.0,0.0,0.0,0.0,0.0,0.0,0.0,0.0,0.0,0.0,0.0,0.0,0.0,0.0,0.0,0.0,0.0,0.0,0.0,0.0,0.0,0.0,0.0,0.0,0.0,0.0,0.0,0.0,0.0,0.0,0.0,0.0,0.0,0.0,0.0,0.0,0.0,0.0,0.0,0.0,0.0,0.0,0.0,0.0,0.0,0.0,0.0,0.0,0.0,0.0,0.0,0.0,0.0,0.0,0.0,0.0,0.0,0.0,0.0,0.0,0.0,0.0,0.0,0.0,0.0,0.0,0.0,0.0,0.0,0.0,0.0,0.0,0.0,0.0,0.0,0.0,0.0,0.0,0.0,0.0,0.0,0.0,0.0,0.0,0.0,0.0,0.0,0.0,0.0,0.0,0.0,0.0,0.0,0.0,0.0,0.0,0.0,0.0,0.0,0.0,0.0,0.0,0.0,0.0,0.0,0.0,0.0,0.0,0.0,0.0,0.0,0.0,0.0,0.0,0.0,0.0,0.0,0.0,0.0,0.0,0.0,0.0,0.0,0.0,0.0,0.0,0.0,0.0,0.0,0.0,0.0,0.0,0.0,0.0,0.0,0.0,0.0,0.0,0.0,0.0,0.0,0.0,0.0,0.0,0.0,0.0,0.0,0.0,0.0,0.0,0.0,0.0,0.0,0.0,0.0,0.0,0.0,0.0,0.0,0.0,0.0,0.0,0.0,0.0,0.0,0.0,0.0,0.0,0.0,0.0,0.0,0.0,0.0,0.0,0.0,0.0,0.0,0.0,0.0,0.0,0.0,0.0,0.0,0.0,0.0,0.0,0.0,0.0,0.0,0.0,0.0,0.0,0.0,0.0,0.0,0.0,0.0,0.0,0.0,0.0,0.0,0.0,0.0,0.0,0.0,0.0,0.0,0.0,0.0,0.0,0.0,0.0,0.0,0.0,0.0,0.0,0.0,0.0,0.0,0.0,0.0,0.0,0.0,0.0,0.0,0.0,0.0,0.0,0.0,0.0,0.0,0.0,0.0,0.0,0.0,0.0,0.0,0.0,0.0,0.0,0.0,0.0,0.0,0.0,0.0,0.0,0.0,0.0,0.0,0.0,0.0,0.0,0.0,0.0,0.0,0.0,0.0,0.0,0.0,0.0,0.0,0.0,0.0,0.0,0.0,0.0,0.0,0.0,0.0,0.0,0.0,0.0,0.0,0.0,0.0,0.0,0.0,0.0,0.0,0.0,0.0,0.0,0.0,0.0,0.0,0.0,0.0,0.0,0.0,0.0,0.0,0.0,0.0,0.0,0.0,0.0,0.0,0.0,0.0,0.0,0.0,0.0,0.0,0.0,0.0,0.0,0.0,0.0,0.0,0.0,0.0,0.0,0.0,0.0,0.0,0.0,0.0,0.0,0.0,0.0,0.0,0.0,0.0,0.0,0.0,0.0,0.0,0.0,0.0,0.0,0.0,0.0,0.0,0.0,0.0,0.0,0.0,0.0,0.0,0.0,0.0,0.0,0.0,0.0,0.0,0.0,0.0,0.0,0.0,0.0,0.0,0.0,0.0,0.0,0.0,0.0,0.0,0.0,0.0,0.0,0.0,0.0,0.0,0.0,0.0,0.0,0.0,0.0,0.0,0.0,0.0,0.0,0.0,0.0,0.0,0.0,0.0,0.0,0.0,0.0,0.0,0.0,0.0,0.0,0.0,0.0,0.0,0.0,0.0,0.0,0.0,0.0,0.0,0.0,0.0,0.0,0.0,0.0,0.0,0.0,0.0,0.0,0.0,0.0,0.0,0.0,0.0,0.0,0.0,0.0,0.0,0.0,0.0,0.0,0.0,0.0,0.0,0.0,0.0,0.0,0.0,0.0,0.0,0.0,0.0,0.0,0.0,0.0,0.0,0.0,0.0,0.0,0.0,0.0,0.0,0.0,0.0,0.0,0.0,0.0,0.0,0.0,0.0,0.0,0.0,0.0,0.0,0.0,0.0,0.0,0.0,0.0,0.0,0.0,0.0,0.0,0.0,0.0,0.0,0.0,0.0,0.0,0.0,0.0,0.0,0.0,0.0,0.0,0.0,0.0,0.0,0.0,0.0,0.0,0.0,0.0,0.0,0.0,0.0,0.0,0.0,0.0,0.0,0.0,0.0,0.0,0.0,0.0,0.0,0.0,0.0,0.0,0.0,0.0,0.0,0.0,0.0,0.0,0.0,0.0,0.0,0.0,0.0,0.0,0.0,0.0,0.0,0.0,0.0,0.0,0.0,0.0,0.0,0.0,0.0,0.0,0.0,0.0,0.0,0.0,0.0,0.0,0.0,0.0,0.0,0.0,0.0,0.0,0.0,0.0,0.0,0.0,0.0,0.0,0.0,0.0,0.0]}]]]